<?xml version='1.0' encoding='UTF-8'?><gpx version="1.1" creator="JPX - https://github.com/jenetics/jpx" xmlns="http://www.topografix.com/GPX/1/1"><trk><trkseg><trkpt lat="42.191244320233416" lon="14.220466092425925"><ele>568.0</ele><time>2026-05-01T12:21:07Z</time></trkpt><trkpt lat="42.191160183458365" lon="14.220491948438339"><ele>568.0</ele><time>2026-05-01T12:21:14Z</time></trkpt><trkpt lat="42.191104152238786" lon="14.22053360578679"><ele>568.0</ele><time>2026-05-01T12:21:16Z</time></trkpt><trkpt lat="42.1910363376393" lon="14.22058259568288"><ele>568.0</ele><time>2026-05-01T12:21:51Z</time></trkpt><trkpt lat="42.190937447610295" lon="14.220607262219154"><ele>568.0</ele><time>2026-05-01T12:21:53Z</time></trkpt><trkpt lat="42.19084813862704" lon="14.2206062502678"><ele>568.0</ele><time>2026-05-01T12:21:55Z</time></trkpt><trkpt lat="42.19074157014955" lon="14.220586343363234"><ele>568.5</ele><time>2026-05-01T12:21:57Z</time></trkpt><trkpt lat="42.19063973482541" lon="14.220588792805861"><ele>569.0</ele><time>2026-05-01T12:21:59Z</time></trkpt><trkpt lat="42.190561718402115" lon="14.22058004400927"><ele>569.5</ele><time>2026-05-01T12:22:01Z</time></trkpt><trkpt lat="42.190475413326624" lon="14.220536394677396"><ele>570.0</ele><time>2026-05-01T12:22:03Z</time></trkpt><trkpt lat="42.190388864185714" lon="14.220514568715819"><ele>570.5</ele><time>2026-05-01T12:22:05Z</time></trkpt><trkpt lat="42.19031323318693" lon="14.220482783757845"><ele>571.0</ele><time>2026-05-01T12:22:07Z</time></trkpt><trkpt lat="42.19026547171691" lon="14.220411404838188"><ele>571.0</ele><time>2026-05-01T12:22:11Z</time></trkpt><trkpt lat="42.19019544492419" lon="14.220342218416222"><ele>571.0</ele><time>2026-05-01T12:22:14Z</time></trkpt><trkpt lat="42.1901149560857" lon="14.220315387869594"><ele>571.0</ele><time>2026-05-01T12:22:17Z</time></trkpt><trkpt lat="42.19011823652997" lon="14.220193769586112"><ele>571.0</ele><time>2026-05-01T12:22:19Z</time></trkpt><trkpt lat="42.19007838629211" lon="14.220083913551125"><ele>571.0</ele><time>2026-05-01T12:22:21Z</time></trkpt><trkpt lat="42.190000558552434" lon="14.220027983482403"><ele>571.0</ele><time>2026-05-01T12:22:23Z</time></trkpt><trkpt lat="42.189918458900365" lon="14.2200567931674"><ele>571.0</ele><time>2026-05-01T12:22:25Z</time></trkpt><trkpt lat="42.189837802970274" lon="14.220048890419443"><ele>571.0</ele><time>2026-05-01T12:22:27Z</time></trkpt><trkpt lat="42.1898718934464" lon="14.219964710152315"><ele>571.0</ele><time>2026-05-01T12:22:31Z</time></trkpt><trkpt lat="42.19000399674274" lon="14.219969702594002"><ele>571.0</ele><time>2026-05-01T12:22:33Z</time></trkpt><trkpt lat="42.19006772463082" lon="14.219939100964115"><ele>571.0</ele><time>2026-05-01T12:22:34Z</time></trkpt><trkpt lat="42.190132187864066" lon="14.219898833569056"><ele>571.0</ele><time>2026-05-01T12:22:35Z</time></trkpt><trkpt lat="42.190201013704666" lon="14.219861307137094"><ele>568.4</ele><time>2026-05-01T12:22:36Z</time></trkpt><trkpt lat="42.19030811923775" lon="14.219807503532627"><ele>565.8</ele><time>2026-05-01T12:22:37.999Z</time></trkpt><trkpt lat="42.190421832365466" lon="14.219750578551919"><ele>563.1999999999999</ele><time>2026-05-01T12:22:39.999Z</time></trkpt><trkpt lat="42.19050660813432" lon="14.219732865888083"><ele>560.6</ele><time>2026-05-01T12:22:40.999Z</time></trkpt><trkpt lat="42.19059859944023" lon="14.219719649016707"><ele>558.0</ele><time>2026-05-01T12:22:41.999Z</time></trkpt><trkpt lat="42.19069191870527" lon="14.219722711263808"><ele>557.0</ele><time>2026-05-01T12:22:42.999Z</time></trkpt><trkpt lat="42.19080258919654" lon="14.21971976734346"><ele>556.0</ele><time>2026-05-01T12:22:43.999Z</time></trkpt><trkpt lat="42.19090772363048" lon="14.219720315371537"><ele>555.0</ele><time>2026-05-01T12:22:44.999Z</time></trkpt><trkpt lat="42.19101502808912" lon="14.21972717400692"><ele>554.0</ele><time>2026-05-01T12:22:45.999Z</time></trkpt><trkpt lat="42.19111577723771" lon="14.219736885891011"><ele>553.0</ele><time>2026-05-01T12:22:46.999Z</time></trkpt><trkpt lat="42.191213640828835" lon="14.219733682382062"><ele>553.0</ele><time>2026-05-01T12:22:47.999Z</time></trkpt><trkpt lat="42.19130321102748" lon="14.2197389067234"><ele>553.0</ele><time>2026-05-01T12:22:48.999Z</time></trkpt><trkpt lat="42.19138943707075" lon="14.219745659388096"><ele>553.0</ele><time>2026-05-01T12:22:50Z</time></trkpt><trkpt lat="42.191468195832705" lon="14.219746444233099"><ele>553.0</ele><time>2026-05-01T12:22:51Z</time></trkpt><trkpt lat="42.19154719617309" lon="14.219752692600677"><ele>553.0</ele><time>2026-05-01T12:22:52Z</time></trkpt><trkpt lat="42.19162032235201" lon="14.219754415340537"><ele>553.0</ele><time>2026-05-01T12:22:53Z</time></trkpt><trkpt lat="42.191699828439695" lon="14.21975378430794"><ele>552.1999999999999</ele><time>2026-05-01T12:22:54Z</time></trkpt><trkpt lat="42.191798855189205" lon="14.21976087166103"><ele>551.4</ele><time>2026-05-01T12:22:55Z</time></trkpt><trkpt lat="42.19190974142278" lon="14.21976344490082"><ele>550.5999999999999</ele><time>2026-05-01T12:22:56Z</time></trkpt><trkpt lat="42.192007202888156" lon="14.21977589810463"><ele>549.8</ele><time>2026-05-01T12:22:56.999Z</time></trkpt><trkpt lat="42.192007202888156" lon="14.21977589810463"><ele>549.0</ele><time>2026-05-01T12:22:56.999Z</time></trkpt><trkpt lat="42.192368720199525" lon="14.219859667344355"><ele>551.2</ele><time>2026-05-01T12:23:00.999Z</time></trkpt><trkpt lat="42.192468495507214" lon="14.219889426165425"><ele>553.4</ele><time>2026-05-01T12:23:01.999Z</time></trkpt><trkpt lat="42.192565979613974" lon="14.219924066840129"><ele>555.6</ele><time>2026-05-01T12:23:03Z</time></trkpt><trkpt lat="42.192648175262484" lon="14.219959305305153"><ele>557.8</ele><time>2026-05-01T12:23:04Z</time></trkpt><trkpt lat="42.192729027753096" lon="14.220005229336431"><ele>560.0</ele><time>2026-05-01T12:23:05Z</time></trkpt><trkpt lat="42.192805041174886" lon="14.220083683248404"><ele>560.0</ele><time>2026-05-01T12:23:06Z</time></trkpt><trkpt lat="42.19288975765305" lon="14.220147256519631"><ele>560.0</ele><time>2026-05-01T12:23:07Z</time></trkpt><trkpt lat="42.192970465139176" lon="14.22023058221612"><ele>560.0</ele><time>2026-05-01T12:23:08Z</time></trkpt><trkpt lat="42.19305958116704" lon="14.220312178135735"><ele>560.0</ele><time>2026-05-01T12:23:09Z</time></trkpt><trkpt lat="42.193153803459445" lon="14.220387279877363"><ele>560.0</ele><time>2026-05-01T12:23:10Z</time></trkpt><trkpt lat="42.193261331763004" lon="14.220455040916042"><ele>558.0</ele><time>2026-05-01T12:23:11Z</time></trkpt><trkpt lat="42.193350297046216" lon="14.220502180467772"><ele>556.0</ele><time>2026-05-01T12:23:12Z</time></trkpt><trkpt lat="42.193445755859" lon="14.220541226019133"><ele>554.0</ele><time>2026-05-01T12:23:13Z</time></trkpt><trkpt lat="42.19354942611086" lon="14.22056818682319"><ele>552.0</ele><time>2026-05-01T12:23:14Z</time></trkpt><trkpt lat="42.19363502051063" lon="14.220595315123907"><ele>550.0</ele><time>2026-05-01T12:23:15Z</time></trkpt><trkpt lat="42.193709860261556" lon="14.220627105366061"><ele>550.0</ele><time>2026-05-01T12:23:16Z</time></trkpt><trkpt lat="42.19377336938048" lon="14.220653131118446"><ele>550.0</ele><time>2026-05-01T12:23:17Z</time></trkpt><trkpt lat="42.19388377855354" lon="14.220541360602379"><ele>550.0</ele><time>2026-05-01T12:23:19Z</time></trkpt><trkpt lat="42.19388184310515" lon="14.220406243750507"><ele>550.0</ele><time>2026-05-01T12:23:20Z</time></trkpt><trkpt lat="42.19379977030592" lon="14.220291815829597"><ele>550.0</ele><time>2026-05-01T12:23:21Z</time></trkpt><trkpt lat="42.193669446663876" lon="14.220262202242996"><ele>550.0</ele><time>2026-05-01T12:23:22Z</time></trkpt><trkpt lat="42.19357094365926" lon="14.22020829133544"><ele>550.0</ele><time>2026-05-01T12:23:23Z</time></trkpt><trkpt lat="42.1934964099033" lon="14.220166962151392"><ele>550.0</ele><time>2026-05-01T12:23:24Z</time></trkpt><trkpt lat="42.19342120037149" lon="14.220125258481366"><ele>550.0</ele><time>2026-05-01T12:23:25Z</time></trkpt><trkpt lat="42.193337537615" lon="14.220077167126535"><ele>550.0</ele><time>2026-05-01T12:23:26Z</time></trkpt><trkpt lat="42.19323649752423" lon="14.220018371246267"><ele>551.6666666666667</ele><time>2026-05-01T12:23:27Z</time></trkpt><trkpt lat="42.19314092445632" lon="14.219963018739353"><ele>553.3333333333334</ele><time>2026-05-01T12:23:27.999Z</time></trkpt><trkpt lat="42.193062607381044" lon="14.219916280940314"><ele>555.0</ele><time>2026-05-01T12:23:28.999Z</time></trkpt><trkpt lat="42.19299536428389" lon="14.219842458542397"><ele>556.6666666666666</ele><time>2026-05-01T12:23:29.999Z</time></trkpt><trkpt lat="42.19294659440391" lon="14.219769267752882"><ele>558.3333333333333</ele><time>2026-05-01T12:23:30.999Z</time></trkpt><trkpt lat="42.19293794141133" lon="14.219670316080546"><ele>560.0</ele><time>2026-05-01T12:23:31.999Z</time></trkpt><trkpt lat="42.192958436101925" lon="14.219556274103091"><ele>556.2</ele><time>2026-05-01T12:23:32.999Z</time></trkpt><trkpt lat="42.193017707727975" lon="14.219471226168265"><ele>552.4</ele><time>2026-05-01T12:23:33.999Z</time></trkpt><trkpt lat="42.19307604562256" lon="14.219370309438844"><ele>548.6</ele><time>2026-05-01T12:23:34.999Z</time></trkpt><trkpt lat="42.19318349294294" lon="14.21928402890555"><ele>544.8</ele><time>2026-05-01T12:23:35.999Z</time></trkpt><trkpt lat="42.193307871880165" lon="14.219235043636212"><ele>541.0</ele><time>2026-05-01T12:23:36.999Z</time></trkpt><trkpt lat="42.19341859240224" lon="14.219214208915384"><ele>541.0</ele><time>2026-05-01T12:23:37.999Z</time></trkpt><trkpt lat="42.1934984777916" lon="14.219252345063655"><ele>541.0</ele><time>2026-05-01T12:23:38.999Z</time></trkpt><trkpt lat="42.19357491498593" lon="14.21927784439892"><ele>541.0</ele><time>2026-05-01T12:23:39.999Z</time></trkpt><trkpt lat="42.1936301739514" lon="14.219338856058565"><ele>541.0</ele><time>2026-05-01T12:23:41.999Z</time></trkpt><trkpt lat="42.19371046768001" lon="14.219385148824433"><ele>541.0</ele><time>2026-05-01T12:23:51.999Z</time></trkpt><trkpt lat="42.193795741658555" lon="14.219421160650441"><ele>541.0</ele><time>2026-05-01T12:23:53.999Z</time></trkpt><trkpt lat="42.19387837170325" lon="14.219477395085677"><ele>541.0</ele><time>2026-05-01T12:23:55.999Z</time></trkpt><trkpt lat="42.19396428239709" lon="14.219548952442528"><ele>541.0</ele><time>2026-05-01T12:23:57.999Z</time></trkpt><trkpt lat="42.19405405694259" lon="14.219623274381068"><ele>541.0</ele><time>2026-05-01T12:23:59.999Z</time></trkpt><trkpt lat="42.1941352726331" lon="14.219682338589928"><ele>541.0</ele><time>2026-05-01T12:24:01.999Z</time></trkpt><trkpt lat="42.194203991856696" lon="14.219669731341531"><ele>541.0</ele><time>2026-05-01T12:24:13.999Z</time></trkpt><trkpt lat="42.19413316778991" lon="14.219595291394693"><ele>541.0</ele><time>2026-05-01T12:24:15.999Z</time></trkpt><trkpt lat="42.19404086831464" lon="14.219545653663609"><ele>541.0</ele><time>2026-05-01T12:24:16.999Z</time></trkpt><trkpt lat="42.19409752265902" lon="14.219250930740554"><ele>541.0</ele><time>2026-05-01T12:24:17.999Z</time></trkpt><trkpt lat="42.19401819135186" lon="14.219157842520934"><ele>541.0</ele><time>2026-05-01T12:24:18.999Z</time></trkpt><trkpt lat="42.1939701736516" lon="14.219066068364876"><ele>541.0</ele><time>2026-05-01T12:24:19.999Z</time></trkpt><trkpt lat="42.19390575553088" lon="14.218960799941605"><ele>541.0</ele><time>2026-05-01T12:24:20.999Z</time></trkpt><trkpt lat="42.19386310679921" lon="14.218891105816052"><ele>541.0</ele><time>2026-05-01T12:24:21.999Z</time></trkpt><trkpt lat="42.19347840836337" lon="14.219192781181123"><ele>541.0</ele><time>2026-05-01T12:24:22.999Z</time></trkpt><trkpt lat="42.193347119155284" lon="14.219184021142732"><ele>541.0</ele><time>2026-05-01T12:24:24.999Z</time></trkpt><trkpt lat="42.19324496172706" lon="14.219209963234524"><ele>541.0</ele><time>2026-05-01T12:24:25.999Z</time></trkpt><trkpt lat="42.19312861675359" lon="14.219289575992473"><ele>541.0</ele><time>2026-05-01T12:24:26.999Z</time></trkpt><trkpt lat="42.19302258652428" lon="14.219391595176608"><ele>540.4</ele><time>2026-05-01T12:24:27.999Z</time></trkpt><trkpt lat="42.19293509683704" lon="14.219507357350505"><ele>539.8</ele><time>2026-05-01T12:24:28.999Z</time></trkpt><trkpt lat="42.19289539770056" lon="14.219606618645983"><ele>539.1999999999999</ele><time>2026-05-01T12:24:29.999Z</time></trkpt><trkpt lat="42.1929003754564" lon="14.219713552150735"><ele>538.6</ele><time>2026-05-01T12:24:31.999Z</time></trkpt><trkpt lat="42.1929444325984" lon="14.21980500756174"><ele>538.0</ele><time>2026-05-01T12:24:35.999Z</time></trkpt><trkpt lat="42.19300846687256" lon="14.21990649699206"><ele>540.4</ele><time>2026-05-01T12:24:37.999Z</time></trkpt><trkpt lat="42.19308726955019" lon="14.219975265504491"><ele>542.8</ele><time>2026-05-01T12:24:38.999Z</time></trkpt><trkpt lat="42.19317271793821" lon="14.220030158701025"><ele>545.2</ele><time>2026-05-01T12:24:39.999Z</time></trkpt><trkpt lat="42.1932418267146" lon="14.220070122519035"><ele>547.6</ele><time>2026-05-01T12:24:40.999Z</time></trkpt><trkpt lat="42.19337671465482" lon="14.220148767588476"><ele>550.0</ele><time>2026-05-01T12:24:59.999Z</time></trkpt><trkpt lat="42.193475157474985" lon="14.220203625535767"><ele>550.0</ele><time>2026-05-01T12:25:01.999Z</time></trkpt><trkpt lat="42.193542905842044" lon="14.220241191993605"><ele>550.0</ele><time>2026-05-01T12:25:02.999Z</time></trkpt><trkpt lat="42.193605182686376" lon="14.22027677118004"><ele>550.0</ele><time>2026-05-01T12:25:03.999Z</time></trkpt><trkpt lat="42.193692091462005" lon="14.22019656418037"><ele>550.0</ele><time>2026-05-01T12:25:04.999Z</time></trkpt><trkpt lat="42.193795196049905" lon="14.220251988454992"><ele>550.0</ele><time>2026-05-01T12:25:06.999Z</time></trkpt><trkpt lat="42.19389640926359" lon="14.220290345603766"><ele>550.0</ele><time>2026-05-01T12:25:08.999Z</time></trkpt><trkpt lat="42.19397314489433" lon="14.220422531955858"><ele>550.0</ele><time>2026-05-01T12:25:10.999Z</time></trkpt><trkpt lat="42.19400666451307" lon="14.220535986018778"><ele>550.0</ele><time>2026-05-01T12:25:11.999Z</time></trkpt><trkpt lat="42.19402115332857" lon="14.220672082682595"><ele>550.0</ele><time>2026-05-01T12:25:12.999Z</time></trkpt><trkpt lat="42.19404134754509" lon="14.220788070750258"><ele>550.0</ele><time>2026-05-01T12:25:13.999Z</time></trkpt><trkpt lat="42.19404747996226" lon="14.22089885651708"><ele>546.8</ele><time>2026-05-01T12:25:14.999Z</time></trkpt><trkpt lat="42.1940429066361" lon="14.221029890894268"><ele>543.6</ele><time>2026-05-01T12:25:15.999Z</time></trkpt><trkpt lat="42.19405195346916" lon="14.221165065721419"><ele>540.4</ele><time>2026-05-01T12:25:16.999Z</time></trkpt><trkpt lat="42.19404672588655" lon="14.221305888058541"><ele>537.2</ele><time>2026-05-01T12:25:17.999Z</time></trkpt><trkpt lat="42.194041864557306" lon="14.221465301528248"><ele>534.0</ele><time>2026-05-01T12:25:18.999Z</time></trkpt><trkpt lat="42.194038135439136" lon="14.221588986898517"><ele>532.75</ele><time>2026-05-01T12:25:19.999Z</time></trkpt><trkpt lat="42.194030721282026" lon="14.221728264426222"><ele>531.5</ele><time>2026-05-01T12:25:20.999Z</time></trkpt><trkpt lat="42.19402523846955" lon="14.221874258526285"><ele>530.25</ele><time>2026-05-01T12:25:21.999Z</time></trkpt><trkpt lat="42.19402576561563" lon="14.222026299399095"><ele>529.0</ele><time>2026-05-01T12:25:22.999Z</time></trkpt><trkpt lat="42.19402755860386" lon="14.2222001598157"><ele>527.25</ele><time>2026-05-01T12:25:23.999Z</time></trkpt><trkpt lat="42.194022977255976" lon="14.222383391150313"><ele>525.5</ele><time>2026-05-01T12:25:24.999Z</time></trkpt><trkpt lat="42.194019361233636" lon="14.222585903491638"><ele>523.75</ele><time>2026-05-01T12:25:25.999Z</time></trkpt><trkpt lat="42.194036116555196" lon="14.222788154055264"><ele>522.0</ele><time>2026-05-01T12:25:26.999Z</time></trkpt><trkpt lat="42.194051934320655" lon="14.222971474851237"><ele>522.0</ele><time>2026-05-01T12:25:27.999Z</time></trkpt><trkpt lat="42.19405723043029" lon="14.223142991288256"><ele>522.0</ele><time>2026-05-01T12:25:28.999Z</time></trkpt><trkpt lat="42.19407619957512" lon="14.223312593928075"><ele>522.0</ele><time>2026-05-01T12:25:29.999Z</time></trkpt><trkpt lat="42.194107443991236" lon="14.223451192353192"><ele>522.0</ele><time>2026-05-01T12:25:30.999Z</time></trkpt><trkpt lat="42.19411686536931" lon="14.223592138259374"><ele>520.8000000000001</ele><time>2026-05-01T12:25:31.999Z</time></trkpt><trkpt lat="42.194130439028434" lon="14.223713805310659"><ele>519.6</ele><time>2026-05-01T12:25:32.999Z</time></trkpt><trkpt lat="42.194144071009" lon="14.223815772021856"><ele>518.4000000000001</ele><time>2026-05-01T12:25:33.999Z</time></trkpt><trkpt lat="42.19420750524682" lon="14.22393618730078"><ele>517.2</ele><time>2026-05-01T12:25:35.999Z</time></trkpt><trkpt lat="42.19430062784781" lon="14.22392105226101"><ele>516.0</ele><time>2026-05-01T12:25:37.999Z</time></trkpt><trkpt lat="42.19438388663934" lon="14.223828381949202"><ele>516.0</ele><time>2026-05-01T12:25:39.999Z</time></trkpt><trkpt lat="42.19446605703326" lon="14.223741119322334"><ele>516.0</ele><time>2026-05-01T12:25:41.999Z</time></trkpt><trkpt lat="42.194574130445055" lon="14.223646313208972"><ele>516.0</ele><time>2026-05-01T12:25:43.999Z</time></trkpt><trkpt lat="42.194653446125734" lon="14.223582552274866"><ele>516.0</ele><time>2026-05-01T12:25:44.999Z</time></trkpt><trkpt lat="42.19473053271912" lon="14.223508012582013"><ele>516.0</ele><time>2026-05-01T12:25:45.999Z</time></trkpt><trkpt lat="42.19478659129755" lon="14.22345449982926"><ele>514.8</ele><time>2026-05-01T12:25:46.999Z</time></trkpt><trkpt lat="42.194865053664145" lon="14.223390469412115"><ele>513.6</ele><time>2026-05-01T12:25:47.999Z</time></trkpt><trkpt lat="42.194934518244835" lon="14.223334633161253"><ele>512.4</ele><time>2026-05-01T12:25:48.999Z</time></trkpt><trkpt lat="42.19501070253086" lon="14.223269668491701"><ele>511.2</ele><time>2026-05-01T12:25:49.999Z</time></trkpt><trkpt lat="42.19508899129239" lon="14.223195507197856"><ele>510.0</ele><time>2026-05-01T12:25:50.999Z</time></trkpt><trkpt lat="42.195177058581805" lon="14.223113942774646"><ele>510.0</ele><time>2026-05-01T12:25:51.999Z</time></trkpt><trkpt lat="42.195259653791965" lon="14.223005441904288"><ele>510.0</ele><time>2026-05-01T12:25:52.999Z</time></trkpt><trkpt lat="42.19533605089522" lon="14.222885530027172"><ele>510.0</ele><time>2026-05-01T12:25:53.999Z</time></trkpt><trkpt lat="42.19542467353874" lon="14.222792041409212"><ele>510.0</ele><time>2026-05-01T12:25:54.999Z</time></trkpt><trkpt lat="42.195485342006705" lon="14.22267679422245"><ele>510.0</ele><time>2026-05-01T12:25:55.999Z</time></trkpt><trkpt lat="42.19555247044763" lon="14.222566573701927"><ele>510.0</ele><time>2026-05-01T12:25:56.999Z</time></trkpt><trkpt lat="42.19561690389363" lon="14.22243929223952"><ele>510.0</ele><time>2026-05-01T12:25:57.999Z</time></trkpt><trkpt lat="42.1956631297065" lon="14.22229970605933"><ele>510.0</ele><time>2026-05-01T12:25:58.999Z</time></trkpt><trkpt lat="42.195699465648254" lon="14.22214618686978"><ele>508.25</ele><time>2026-05-01T12:25:59.999Z</time></trkpt><trkpt lat="42.195745014266684" lon="14.22199328804777"><ele>506.5</ele><time>2026-05-01T12:26:00.999Z</time></trkpt><trkpt lat="42.19577412572962" lon="14.221844209883132"><ele>504.75</ele><time>2026-05-01T12:26:01.999Z</time></trkpt><trkpt lat="42.19579692632765" lon="14.22169020722468"><ele>503.0</ele><time>2026-05-01T12:26:02.999Z</time></trkpt><trkpt lat="42.19580790884887" lon="14.221529100784515"><ele>503.5</ele><time>2026-05-01T12:26:03.999Z</time></trkpt><trkpt lat="42.195800141496015" lon="14.22135124074567"><ele>504.0</ele><time>2026-05-01T12:26:04.999Z</time></trkpt><trkpt lat="42.195789719928584" lon="14.22118457311646"><ele>504.5</ele><time>2026-05-01T12:26:05.999Z</time></trkpt><trkpt lat="42.195800535664915" lon="14.221015462278697"><ele>505.0</ele><time>2026-05-01T12:26:06.999Z</time></trkpt><trkpt lat="42.19579645188706" lon="14.220844876036713"><ele>505.0</ele><time>2026-05-01T12:26:07.999Z</time></trkpt><trkpt lat="42.19578590772271" lon="14.220687171909756"><ele>505.0</ele><time>2026-05-01T12:26:08.999Z</time></trkpt><trkpt lat="42.19578655651852" lon="14.220536942008218"><ele>505.0</ele><time>2026-05-01T12:26:09.999Z</time></trkpt><trkpt lat="42.19580340050532" lon="14.220397898423558"><ele>505.0</ele><time>2026-05-01T12:26:10.999Z</time></trkpt><trkpt lat="42.19582767178482" lon="14.220269069763104"><ele>505.0</ele><time>2026-05-01T12:26:11.999Z</time></trkpt><trkpt lat="42.19586779764242" lon="14.220132453003824"><ele>505.4</ele><time>2026-05-01T12:26:12.999Z</time></trkpt><trkpt lat="42.195932816740445" lon="14.220000294000355"><ele>505.8</ele><time>2026-05-01T12:26:13.999Z</time></trkpt><trkpt lat="42.195987025069236" lon="14.219860501796566"><ele>506.20000000000005</ele><time>2026-05-01T12:26:14.999Z</time></trkpt><trkpt lat="42.196045468448105" lon="14.219744525873036"><ele>506.6</ele><time>2026-05-01T12:26:15.999Z</time></trkpt><trkpt lat="42.19611866440496" lon="14.219656921655732"><ele>507.0</ele><time>2026-05-01T12:26:16.999Z</time></trkpt><trkpt lat="42.19620352848198" lon="14.21957521578331"><ele>507.1666666666667</ele><time>2026-05-01T12:26:17.999Z</time></trkpt><trkpt lat="42.196288887111045" lon="14.219488783465323"><ele>507.33333333333337</ele><time>2026-05-01T12:26:18.999Z</time></trkpt><trkpt lat="42.19636972570478" lon="14.219409456922367"><ele>507.5</ele><time>2026-05-01T12:26:19.999Z</time></trkpt><trkpt lat="42.196441869664454" lon="14.219349145952352"><ele>507.6666666666667</ele><time>2026-05-01T12:26:20.999Z</time></trkpt><trkpt lat="42.19649577074515" lon="14.219301378736697"><ele>507.83333333333337</ele><time>2026-05-01T12:26:21.999Z</time></trkpt><trkpt lat="42.19656520461674" lon="14.219227738843784"><ele>508.0</ele><time>2026-05-01T12:26:23.999Z</time></trkpt><trkpt lat="42.19666285388605" lon="14.219220591231384"><ele>506.79999999999995</ele><time>2026-05-01T12:26:25.999Z</time></trkpt><trkpt lat="42.196730144020414" lon="14.219226500065847"><ele>505.59999999999997</ele><time>2026-05-01T12:26:26.999Z</time></trkpt><trkpt lat="42.1967997671897" lon="14.219229276940661"><ele>504.40000000000003</ele><time>2026-05-01T12:26:27.999Z</time></trkpt><trkpt lat="42.19688371542231" lon="14.219136049250812"><ele>503.20000000000005</ele><time>2026-05-01T12:26:29.999Z</time></trkpt><trkpt lat="42.19701152388413" lon="14.219067625629132"><ele>502.0</ele><time>2026-05-01T12:26:31.999Z</time></trkpt><trkpt lat="42.197108784187556" lon="14.219078940463508"><ele>502.0</ele><time>2026-05-01T12:26:32.999Z</time></trkpt><trkpt lat="42.197220008504395" lon="14.219095048148795"><ele>502.00000000000006</ele><time>2026-05-01T12:26:33.999Z</time></trkpt><trkpt lat="42.19730573041751" lon="14.219084664298084"><ele>502.00000000000006</ele><time>2026-05-01T12:26:34.999Z</time></trkpt><trkpt lat="42.1974022902056" lon="14.219064419133595"><ele>502.0</ele><time>2026-05-01T12:26:35.999Z</time></trkpt><trkpt lat="42.197506407977876" lon="14.219053205228857"><ele>502.0</ele><time>2026-05-01T12:26:36.999Z</time></trkpt><trkpt lat="42.19760632008572" lon="14.219034500828087"><ele>501.40000000000003</ele><time>2026-05-01T12:26:37.999Z</time></trkpt><trkpt lat="42.19771235420961" lon="14.219015652072956"><ele>500.80000000000007</ele><time>2026-05-01T12:26:38.999Z</time></trkpt><trkpt lat="42.19780433724714" lon="14.218991100721508"><ele>500.2</ele><time>2026-05-01T12:26:39.999Z</time></trkpt><trkpt lat="42.19788762360754" lon="14.218967992129981"><ele>499.6</ele><time>2026-05-01T12:26:40.999Z</time></trkpt><trkpt lat="42.197972728857756" lon="14.218948334252453"><ele>499.0</ele><time>2026-05-01T12:26:41.999Z</time></trkpt><trkpt lat="42.19806846270287" lon="14.218924928829693"><ele>496.6666666666667</ele><time>2026-05-01T12:26:42.999Z</time></trkpt><trkpt lat="42.1981958042439" lon="14.218892900067758"><ele>494.33333333333337</ele><time>2026-05-01T12:26:43.999Z</time></trkpt><trkpt lat="42.19834592615176" lon="14.218847545256786"><ele>492.0</ele><time>2026-05-01T12:26:44.999Z</time></trkpt><trkpt lat="42.198521701150085" lon="14.218798003345372"><ele>492.0</ele><time>2026-05-01T12:26:45.999Z</time></trkpt><trkpt lat="42.1987016911463" lon="14.218720310372085"><ele>492.0</ele><time>2026-05-01T12:26:46.999Z</time></trkpt><trkpt lat="42.19887156292084" lon="14.218603854096553"><ele>492.0</ele><time>2026-05-01T12:26:47.999Z</time></trkpt><trkpt lat="42.199043207289805" lon="14.218542077795252"><ele>490.33333333333337</ele><time>2026-05-01T12:26:48.999Z</time></trkpt><trkpt lat="42.19919954654506" lon="14.218483438129175"><ele>488.6666666666667</ele><time>2026-05-01T12:26:49.999Z</time></trkpt><trkpt lat="42.199353807703" lon="14.2184196592616"><ele>487.0</ele><time>2026-05-01T12:26:50.999Z</time></trkpt><trkpt lat="42.199494614432844" lon="14.21836092005492"><ele>487.0</ele><time>2026-05-01T12:26:51.999Z</time></trkpt><trkpt lat="42.19963016881754" lon="14.218303870680524"><ele>487.0</ele><time>2026-05-01T12:26:52.999Z</time></trkpt><trkpt lat="42.19976914846865" lon="14.218260084826687"><ele>487.0</ele><time>2026-05-01T12:26:53.999Z</time></trkpt><trkpt lat="42.19990808519747" lon="14.218229482476149"><ele>487.0</ele><time>2026-05-01T12:26:54.999Z</time></trkpt><trkpt lat="42.20003994576009" lon="14.218214196768143"><ele>486.1666666666667</ele><time>2026-05-01T12:26:55.999Z</time></trkpt><trkpt lat="42.200155310980925" lon="14.218207768713157"><ele>485.33333333333337</ele><time>2026-05-01T12:26:56.999Z</time></trkpt><trkpt lat="42.20024572855642" lon="14.218207099363982"><ele>484.5</ele><time>2026-05-01T12:26:57.999Z</time></trkpt><trkpt lat="42.2003317068557" lon="14.218201128812703"><ele>483.66666666666663</ele><time>2026-05-01T12:26:58.999Z</time></trkpt><trkpt lat="42.20040852567003" lon="14.218178520327106"><ele>482.8333333333333</ele><time>2026-05-01T12:26:59.999Z</time></trkpt><trkpt lat="42.200478671430716" lon="14.218191458641563"><ele>482.0</ele><time>2026-05-01T12:27:00.999Z</time></trkpt><trkpt lat="42.200546166518926" lon="14.218119202682379"><ele>481.3333333333333</ele><time>2026-05-01T12:27:01.998Z</time></trkpt><trkpt lat="42.2006163476468" lon="14.218097563159068"><ele>480.66666666666663</ele><time>2026-05-01T12:27:02.998Z</time></trkpt><trkpt lat="42.20069354918068" lon="14.218079096298762"><ele>480.0</ele><time>2026-05-01T12:27:03.998Z</time></trkpt><trkpt lat="42.200771294666936" lon="14.218065837615093"><ele>479.33333333333337</ele><time>2026-05-01T12:27:04.998Z</time></trkpt><trkpt lat="42.20086033527392" lon="14.218047187252719"><ele>478.6666666666667</ele><time>2026-05-01T12:27:05.998Z</time></trkpt><trkpt lat="42.20098069955533" lon="14.218018382256831"><ele>478.0</ele><time>2026-05-01T12:27:06.998Z</time></trkpt><trkpt lat="42.20112169747221" lon="14.217989447278956"><ele>477.0</ele><time>2026-05-01T12:27:07.998Z</time></trkpt><trkpt lat="42.2012816261733" lon="14.217964722795527"><ele>476.0</ele><time>2026-05-01T12:27:08.998Z</time></trkpt><trkpt lat="42.20143780794017" lon="14.217940506886817"><ele>475.0</ele><time>2026-05-01T12:27:09.998Z</time></trkpt><trkpt lat="42.20158946097614" lon="14.217927859628954"><ele>474.25</ele><time>2026-05-01T12:27:10.998Z</time></trkpt><trkpt lat="42.20173293706051" lon="14.21793570819241"><ele>473.5</ele><time>2026-05-01T12:27:11.998Z</time></trkpt><trkpt lat="42.20187861771133" lon="14.21795895901816"><ele>472.75</ele><time>2026-05-01T12:27:12.999Z</time></trkpt><trkpt lat="42.20201285922278" lon="14.218000670811232"><ele>472.0</ele><time>2026-05-01T12:27:13.999Z</time></trkpt><trkpt lat="42.202136626372095" lon="14.218039796814296"><ele>472.0</ele><time>2026-05-01T12:27:14.999Z</time></trkpt><trkpt lat="42.20226139112287" lon="14.218063949231052"><ele>472.0</ele><time>2026-05-01T12:27:15.999Z</time></trkpt><trkpt lat="42.20239102029437" lon="14.21807607640585"><ele>472.0</ele><time>2026-05-01T12:27:16.999Z</time></trkpt><trkpt lat="42.20251525776016" lon="14.218068342567214"><ele>472.0</ele><time>2026-05-01T12:27:17.999Z</time></trkpt><trkpt lat="42.2026405702135" lon="14.218058649297229"><ele>471.25</ele><time>2026-05-01T12:27:18.999Z</time></trkpt><trkpt lat="42.20277085337981" lon="14.21804061947488"><ele>470.5</ele><time>2026-05-01T12:27:19.999Z</time></trkpt><trkpt lat="42.202899855531875" lon="14.21802052692203"><ele>469.75</ele><time>2026-05-01T12:27:20.999Z</time></trkpt><trkpt lat="42.203016342237454" lon="14.218001628329452"><ele>469.0</ele><time>2026-05-01T12:27:21.999Z</time></trkpt><trkpt lat="42.20311776753114" lon="14.217965842515179"><ele>466.75</ele><time>2026-05-01T12:27:22.999Z</time></trkpt><trkpt lat="42.203207813939805" lon="14.217903228284626"><ele>464.5</ele><time>2026-05-01T12:27:23.999Z</time></trkpt><trkpt lat="42.20329666937148" lon="14.217815153221741"><ele>462.25</ele><time>2026-05-01T12:27:24.999Z</time></trkpt><trkpt lat="42.20339856211689" lon="14.21772218414717"><ele>460.0</ele><time>2026-05-01T12:27:25.999Z</time></trkpt><trkpt lat="42.203500600010784" lon="14.217645316435563"><ele>460.0</ele><time>2026-05-01T12:27:26.999Z</time></trkpt><trkpt lat="42.203598539230896" lon="14.217566073124074"><ele>460.0</ele><time>2026-05-01T12:27:27.999Z</time></trkpt><trkpt lat="42.203700169436445" lon="14.2174718501503"><ele>460.0</ele><time>2026-05-01T12:27:28.999Z</time></trkpt><trkpt lat="42.20379256756266" lon="14.217385073086781"><ele>460.0</ele><time>2026-05-01T12:27:29.999Z</time></trkpt><trkpt lat="42.20388434709254" lon="14.217313295328498"><ele>460.6</ele><time>2026-05-01T12:27:30.999Z</time></trkpt><trkpt lat="42.20398472241424" lon="14.217291947209048"><ele>461.2</ele><time>2026-05-01T12:27:31.999Z</time></trkpt><trkpt lat="42.20407744400464" lon="14.217304458330162"><ele>461.79999999999995</ele><time>2026-05-01T12:27:32.999Z</time></trkpt><trkpt lat="42.204174318499796" lon="14.217308190957787"><ele>462.4</ele><time>2026-05-01T12:27:33.999Z</time></trkpt><trkpt lat="42.2042737684738" lon="14.21732318987179"><ele>463.0</ele><time>2026-05-01T12:27:34.999Z</time></trkpt><trkpt lat="42.20438215681614" lon="14.217314239741526"><ele>463.0</ele><time>2026-05-01T12:27:35.999Z</time></trkpt><trkpt lat="42.20450369064229" lon="14.21728027558075"><ele>463.0</ele><time>2026-05-01T12:27:36.999Z</time></trkpt><trkpt lat="42.20462442268345" lon="14.21722768464427"><ele>463.0</ele><time>2026-05-01T12:27:37.999Z</time></trkpt><trkpt lat="42.20472908978289" lon="14.217182926167798"><ele>463.0</ele><time>2026-05-01T12:27:38.999Z</time></trkpt><trkpt lat="42.204817164090755" lon="14.217148540979457"><ele>462.2</ele><time>2026-05-01T12:27:39.999Z</time></trkpt><trkpt lat="42.20490622498156" lon="14.217112049368183"><ele>461.4</ele><time>2026-05-01T12:27:40.999Z</time></trkpt><trkpt lat="42.205004735728544" lon="14.217069724043064"><ele>460.59999999999997</ele><time>2026-05-01T12:27:41.999Z</time></trkpt><trkpt lat="42.205115613577796" lon="14.217021540092842"><ele>459.79999999999995</ele><time>2026-05-01T12:27:42.999Z</time></trkpt><trkpt lat="42.20522726307624" lon="14.216995464076529"><ele>459.0</ele><time>2026-05-01T12:27:43.999Z</time></trkpt><trkpt lat="42.205339759138475" lon="14.216963382655381"><ele>459.0</ele><time>2026-05-01T12:27:44.999Z</time></trkpt><trkpt lat="42.20542492100831" lon="14.216946684066354"><ele>459.0</ele><time>2026-05-01T12:27:45.999Z</time></trkpt><trkpt lat="42.20551394091171" lon="14.216957036908624"><ele>459.0</ele><time>2026-05-01T12:27:47.999Z</time></trkpt><trkpt lat="42.205574149296325" lon="14.217019226133708"><ele>459.0</ele><time>2026-05-01T12:27:49.999Z</time></trkpt><trkpt lat="42.20561115174149" lon="14.217160440769016"><ele>459.0</ele><time>2026-05-01T12:27:51.999Z</time></trkpt><trkpt lat="42.20566598279547" lon="14.217263567598351"><ele>456.5</ele><time>2026-05-01T12:27:53.999Z</time></trkpt><trkpt lat="42.205714125522555" lon="14.217359425176731"><ele>454.0</ele><time>2026-05-01T12:27:56.999Z</time></trkpt><trkpt lat="42.205758925706654" lon="14.217446773943779"><ele>451.5</ele><time>2026-05-01T12:27:59.999Z</time></trkpt><trkpt lat="42.205787453209396" lon="14.217529083263281"><ele>449.0</ele><time>2026-05-01T12:30:25Z</time></trkpt><trkpt lat="42.20582794685314" lon="14.217619654970358"><ele>446.5</ele><time>2026-05-01T12:30:27Z</time></trkpt><trkpt lat="42.20589954994893" lon="14.217767417093413"><ele>444.0</ele><time>2026-05-01T12:30:29Z</time></trkpt><trkpt lat="42.205950766012236" lon="14.217871053512173"><ele>444.0</ele><time>2026-05-01T12:30:30Z</time></trkpt><trkpt lat="42.20602761624774" lon="14.217979162459134"><ele>444.0</ele><time>2026-05-01T12:30:31Z</time></trkpt><trkpt lat="42.206097974393806" lon="14.218117236601419"><ele>444.0</ele><time>2026-05-01T12:30:32Z</time></trkpt><trkpt lat="42.206177349295906" lon="14.218233430379728"><ele>444.0</ele><time>2026-05-01T12:30:33Z</time></trkpt><trkpt lat="42.20626164123804" lon="14.218319594374785"><ele>442.79999999999995</ele><time>2026-05-01T12:30:34Z</time></trkpt><trkpt lat="42.20635575881095" lon="14.218391936959563"><ele>441.59999999999997</ele><time>2026-05-01T12:30:35Z</time></trkpt><trkpt lat="42.206468697557284" lon="14.218463005301603"><ele>440.4</ele><time>2026-05-01T12:30:36Z</time></trkpt><trkpt lat="42.20655818822894" lon="14.21854748331871"><ele>439.2</ele><time>2026-05-01T12:30:37Z</time></trkpt><trkpt lat="42.2066259224401" lon="14.218600067846056"><ele>438.0</ele><time>2026-05-01T12:30:38Z</time></trkpt><trkpt lat="42.20668487866613" lon="14.218663122908142"><ele>436.59999999999997</ele><time>2026-05-01T12:30:39Z</time></trkpt><trkpt lat="42.20673743808967" lon="14.218748585112383"><ele>435.19999999999993</ele><time>2026-05-01T12:30:40Z</time></trkpt><trkpt lat="42.20678741858445" lon="14.218858056125296"><ele>433.8</ele><time>2026-05-01T12:30:41Z</time></trkpt><trkpt lat="42.20684269414815" lon="14.218976669071589"><ele>432.4</ele><time>2026-05-01T12:30:42Z</time></trkpt><trkpt lat="42.206901804633446" lon="14.219103511172158"><ele>431.0</ele><time>2026-05-01T12:30:43Z</time></trkpt><trkpt lat="42.2069595187034" lon="14.21923057767605"><ele>430.4</ele><time>2026-05-01T12:30:44Z</time></trkpt><trkpt lat="42.207028740018266" lon="14.219340802721707"><ele>429.8</ele><time>2026-05-01T12:30:45Z</time></trkpt><trkpt lat="42.20707670702515" lon="14.219463878200777"><ele>429.19999999999993</ele><time>2026-05-01T12:30:46Z</time></trkpt><trkpt lat="42.20712466346103" lon="14.219576899162146"><ele>428.59999999999997</ele><time>2026-05-01T12:30:47Z</time></trkpt><trkpt lat="42.207173790791956" lon="14.219690840822858"><ele>428.0</ele><time>2026-05-01T12:30:48Z</time></trkpt><trkpt lat="42.20722485958574" lon="14.219808320398501"><ele>427.3333333333333</ele><time>2026-05-01T12:30:49Z</time></trkpt><trkpt lat="42.20728293540242" lon="14.2199079180981"><ele>426.66666666666663</ele><time>2026-05-01T12:30:50Z</time></trkpt><trkpt lat="42.20735413272671" lon="14.219980442476144"><ele>426.0</ele><time>2026-05-01T12:30:51Z</time></trkpt><trkpt lat="42.207444330231496" lon="14.220015296410846"><ele>425.33333333333337</ele><time>2026-05-01T12:30:52Z</time></trkpt><trkpt lat="42.20753587312787" lon="14.220010667357045"><ele>424.6666666666667</ele><time>2026-05-01T12:30:53Z</time></trkpt><trkpt lat="42.20761243764336" lon="14.220011634947156"><ele>424.0</ele><time>2026-05-01T12:30:54Z</time></trkpt><trkpt lat="42.207706847124165" lon="14.220002549289315"><ele>422.79999999999995</ele><time>2026-05-01T12:30:56Z</time></trkpt><trkpt lat="42.20779262803081" lon="14.220011584781425"><ele>421.59999999999997</ele><time>2026-05-01T12:30:59Z</time></trkpt><trkpt lat="42.20788034614665" lon="14.219974908156136"><ele>420.4</ele><time>2026-05-01T12:31:01Z</time></trkpt><trkpt lat="42.207959738071615" lon="14.219945989384591"><ele>419.2</ele><time>2026-05-01T12:31:03Z</time></trkpt><trkpt lat="42.20805276235868" lon="14.219920476919508"><ele>418.0</ele><time>2026-05-01T12:31:05Z</time></trkpt><trkpt lat="42.20814551191596" lon="14.219885185385017"><ele>416.0</ele><time>2026-05-01T12:31:07Z</time></trkpt><trkpt lat="42.208247792133314" lon="14.219840447788748"><ele>414.0</ele><time>2026-05-01T12:31:09Z</time></trkpt><trkpt lat="42.20834747663837" lon="14.21979775189831"><ele>412.0</ele><time>2026-05-01T12:31:11Z</time></trkpt><trkpt lat="42.20841217076626" lon="14.2197597357401"><ele>410.0</ele><time>2026-05-01T12:31:14Z</time></trkpt><trkpt lat="42.20823269480181" lon="14.219845130081517"><ele>411.3333333333333</ele><time>2026-05-01T12:31:22Z</time></trkpt><trkpt lat="42.20814335368014" lon="14.219897147620507"><ele>412.66666666666663</ele><time>2026-05-01T12:31:23Z</time></trkpt><trkpt lat="42.2080437545337" lon="14.219936815998075"><ele>414.0</ele><time>2026-05-01T12:31:24Z</time></trkpt><trkpt lat="42.20795368070418" lon="14.219952299547272"><ele>415.33333333333337</ele><time>2026-05-01T12:31:25Z</time></trkpt><trkpt lat="42.20787673569963" lon="14.219969350239035"><ele>416.6666666666667</ele><time>2026-05-01T12:31:26Z</time></trkpt><trkpt lat="42.207813706011706" lon="14.219997611031037"><ele>418.0</ele><time>2026-05-01T12:31:27Z</time></trkpt><trkpt lat="42.207747593282214" lon="14.220016963720175"><ele>418.0</ele><time>2026-05-01T12:31:29Z</time></trkpt><trkpt lat="42.20778936633281" lon="14.220142802894507"><ele>418.0</ele><time>2026-05-01T12:31:31Z</time></trkpt><trkpt lat="42.20781938664934" lon="14.220226163865114"><ele>418.0</ele><time>2026-05-01T12:31:34Z</time></trkpt><trkpt lat="42.207913844067015" lon="14.219962709374487"><ele>418.0</ele><time>2026-05-01T12:31:38Z</time></trkpt><trkpt lat="42.20801782173735" lon="14.21992773234069"><ele>418.0</ele><time>2026-05-01T12:31:40Z</time></trkpt><trkpt lat="42.207902873286876" lon="14.220421523745573"><ele>418.0</ele><time>2026-05-01T12:31:42Z</time></trkpt><trkpt lat="42.2079237064826" lon="14.22052768972878"><ele>418.0</ele><time>2026-05-01T12:31:45Z</time></trkpt><trkpt lat="42.20814922634725" lon="14.21992310935532"><ele>416.4</ele><time>2026-05-01T12:31:47Z</time></trkpt><trkpt lat="42.20820338251256" lon="14.219859431775044"><ele>414.79999999999995</ele><time>2026-05-01T12:31:49Z</time></trkpt><trkpt lat="42.208315682926205" lon="14.219812949471484"><ele>413.2</ele><time>2026-05-01T12:31:51Z</time></trkpt><trkpt lat="42.20843014793916" lon="14.219750665118585"><ele>411.6</ele><time>2026-05-01T12:31:53Z</time></trkpt><trkpt lat="42.20850043039606" lon="14.219705308445848"><ele>410.0</ele><time>2026-05-01T12:31:54Z</time></trkpt><trkpt lat="42.208576307059126" lon="14.219645933765728"><ele>410.0</ele><time>2026-05-01T12:31:55Z</time></trkpt><trkpt lat="42.208631670551625" lon="14.219602612711034"><ele>410.0</ele><time>2026-05-01T12:31:56Z</time></trkpt><trkpt lat="42.20871163064341" lon="14.219561004968734"><ele>410.0</ele><time>2026-05-01T12:31:57Z</time></trkpt><trkpt lat="42.20883532681249" lon="14.219554260259049"><ele>410.0</ele><time>2026-05-01T12:31:58Z</time></trkpt><trkpt lat="42.20898917886672" lon="14.219714870190986"><ele>407.4</ele><time>2026-05-01T12:31:59Z</time></trkpt><trkpt lat="42.20905647833061" lon="14.219830293641193"><ele>404.8</ele><time>2026-05-01T12:32:00Z</time></trkpt><trkpt lat="42.20909748919173" lon="14.219959747271771"><ele>402.20000000000005</ele><time>2026-05-01T12:32:01Z</time></trkpt><trkpt lat="42.20906577352296" lon="14.220110797134108"><ele>399.6</ele><time>2026-05-01T12:32:02Z</time></trkpt><trkpt lat="42.209107632547706" lon="14.22017607883989"><ele>397.0</ele><time>2026-05-01T12:32:03Z</time></trkpt><trkpt lat="42.20916949411158" lon="14.220248628962166"><ele>397.0</ele><time>2026-05-01T12:32:05Z</time></trkpt><trkpt lat="42.20940747686835" lon="14.220066904481754"><ele>397.0</ele><time>2026-05-01T12:32:06Z</time></trkpt><trkpt lat="42.2094743534321" lon="14.220081690722878"><ele>397.0</ele><time>2026-05-01T12:32:10Z</time></trkpt><trkpt lat="42.2095742659024" lon="14.219997124288309"><ele>397.00000000000006</ele><time>2026-05-01T12:32:12Z</time></trkpt><trkpt lat="42.20961662931968" lon="14.219915207992848"><ele>397.0</ele><time>2026-05-01T12:32:13Z</time></trkpt><trkpt lat="42.20966924094141" lon="14.219813177633373"><ele>397.0</ele><time>2026-05-01T12:32:14Z</time></trkpt><trkpt lat="42.20971415732254" lon="14.219707573378752"><ele>397.0</ele><time>2026-05-01T12:32:15Z</time></trkpt><trkpt lat="42.2097430917169" lon="14.21960669174013"><ele>397.00000000000006</ele><time>2026-05-01T12:32:16Z</time></trkpt><trkpt lat="42.20977417107968" lon="14.219518616067973"><ele>397.0</ele><time>2026-05-01T12:32:17Z</time></trkpt><trkpt lat="42.20977601902128" lon="14.219389837649612"><ele>397.0</ele><time>2026-05-01T12:32:19Z</time></trkpt><trkpt lat="42.20976911704581" lon="14.219564801401365"><ele>397.0</ele><time>2026-05-01T12:32:25Z</time></trkpt><trkpt lat="42.209764601654285" lon="14.21971471163482"><ele>397.0</ele><time>2026-05-01T12:32:26Z</time></trkpt><trkpt lat="42.209701761515156" lon="14.219794027683376"><ele>397.0</ele><time>2026-05-01T12:32:27Z</time></trkpt><trkpt lat="42.209864432944684" lon="14.219998554752863"><ele>397.0</ele><time>2026-05-01T12:32:28Z</time></trkpt><trkpt lat="42.20979581984502" lon="14.220137073427095"><ele>397.0</ele><time>2026-05-01T12:32:29Z</time></trkpt><trkpt lat="42.209782133616216" lon="14.220251123701473"><ele>397.0</ele><time>2026-05-01T12:32:30Z</time></trkpt><trkpt lat="42.2097826936437" lon="14.22034726548518"><ele>397.0</ele><time>2026-05-01T12:32:31Z</time></trkpt><trkpt lat="42.20978938020268" lon="14.220435057359076"><ele>397.0</ele><time>2026-05-01T12:32:32Z</time></trkpt><trkpt lat="42.20980304368354" lon="14.220575691010827"><ele>396.0</ele><time>2026-05-01T12:32:34Z</time></trkpt><trkpt lat="42.209814809303616" lon="14.22069453209892"><ele>395.0</ele><time>2026-05-01T12:32:36Z</time></trkpt><trkpt lat="42.2098280860851" lon="14.22079985547347"><ele>394.0</ele><time>2026-05-01T12:32:39Z</time></trkpt><trkpt lat="42.209828764545286" lon="14.22088767701038"><ele>393.0</ele><time>2026-05-01T12:32:41Z</time></trkpt><trkpt lat="42.20983878700827" lon="14.220991022337126"><ele>392.0</ele><time>2026-05-01T12:32:43Z</time></trkpt><trkpt lat="42.20999876381159" lon="14.221057200606015"><ele>392.0</ele><time>2026-05-01T12:32:49Z</time></trkpt><trkpt lat="42.21004056282973" lon="14.221128655736567"><ele>392.0</ele><time>2026-05-01T12:32:51Z</time></trkpt><trkpt lat="42.2100196666955" lon="14.221217088014653"><ele>392.0</ele><time>2026-05-01T12:32:53Z</time></trkpt><trkpt lat="42.209806034668006" lon="14.221162558365693"><ele>392.0</ele><time>2026-05-01T12:32:54Z</time></trkpt><trkpt lat="42.210074401101785" lon="14.221207149771105"><ele>391.66666666666663</ele><time>2026-05-01T12:32:59Z</time></trkpt><trkpt lat="42.21002521693188" lon="14.221144802748636"><ele>391.3333333333333</ele><time>2026-05-01T12:33:02Z</time></trkpt><trkpt lat="42.20998296109201" lon="14.221060471825353"><ele>391.0</ele><time>2026-05-01T12:33:27Z</time></trkpt><trkpt lat="42.20990341905198" lon="14.22106955337664"><ele>390.66666666666663</ele><time>2026-05-01T12:33:30Z</time></trkpt><trkpt lat="42.209860475643396" lon="14.220957863067907"><ele>390.3333333333333</ele><time>2026-05-01T12:33:33Z</time></trkpt><trkpt lat="42.209866048927985" lon="14.22086340281776"><ele>390.0</ele><time>2026-05-01T12:33:34Z</time></trkpt><trkpt lat="42.21002721175375" lon="14.220756406778245"><ele>390.0</ele><time>2026-05-01T12:33:40Z</time></trkpt><trkpt lat="42.2101346149098" lon="14.220733576909929"><ele>390.0</ele><time>2026-05-01T12:33:42Z</time></trkpt><trkpt lat="42.21021893715847" lon="14.220726663012243"><ele>390.0</ele><time>2026-05-01T12:33:44Z</time></trkpt><trkpt lat="42.2102948626799" lon="14.2207250739877"><ele>390.0</ele><time>2026-05-01T12:33:46Z</time></trkpt><trkpt lat="42.21035848791362" lon="14.220753100422831"><ele>390.0</ele><time>2026-05-01T12:33:48Z</time></trkpt><trkpt lat="42.21039117463101" lon="14.220865303125723"><ele>390.0</ele><time>2026-05-01T12:33:50Z</time></trkpt><trkpt lat="42.210473750024924" lon="14.220896503625474"><ele>390.0</ele><time>2026-05-01T12:33:52Z</time></trkpt><trkpt lat="42.21057967639466" lon="14.220854258056242"><ele>390.0</ele><time>2026-05-01T12:33:54Z</time></trkpt><trkpt lat="42.2106771253554" lon="14.220820509015377"><ele>390.0</ele><time>2026-05-01T12:33:56Z</time></trkpt><trkpt lat="42.21077382086712" lon="14.220798872293166"><ele>390.0</ele><time>2026-05-01T12:33:58Z</time></trkpt><trkpt lat="42.21088369915639" lon="14.22077457463652"><ele>390.0</ele><time>2026-05-01T12:34:00Z</time></trkpt><trkpt lat="42.2109475375119" lon="14.22076538135017"><ele>388.8</ele><time>2026-05-01T12:34:01Z</time></trkpt><trkpt lat="42.21102680725941" lon="14.220753730968216"><ele>387.6</ele><time>2026-05-01T12:34:02Z</time></trkpt><trkpt lat="42.211100782203445" lon="14.220741361489141"><ele>386.4</ele><time>2026-05-01T12:34:03Z</time></trkpt><trkpt lat="42.2111646702347" lon="14.220727785954878"><ele>385.2</ele><time>2026-05-01T12:34:04Z</time></trkpt><trkpt lat="42.21126998832169" lon="14.220699205480514"><ele>384.0</ele><time>2026-05-01T12:34:06Z</time></trkpt><trkpt lat="42.211398237347595" lon="14.220677916059985"><ele>381.2</ele><time>2026-05-01T12:34:08Z</time></trkpt><trkpt lat="42.21150838783164" lon="14.220627217582757"><ele>378.4</ele><time>2026-05-01T12:34:10Z</time></trkpt><trkpt lat="42.211607722032305" lon="14.220597045055863"><ele>375.6</ele><time>2026-05-01T12:34:12Z</time></trkpt><trkpt lat="42.211713879735576" lon="14.220591649589421"><ele>372.8</ele><time>2026-05-01T12:34:14Z</time></trkpt><trkpt lat="42.21180463722684" lon="14.220569161411339"><ele>370.0</ele><time>2026-05-01T12:34:16Z</time></trkpt><trkpt lat="42.21186130576745" lon="14.220529180719229"><ele>370.0</ele><time>2026-05-01T12:34:18Z</time></trkpt><trkpt lat="42.21192487064527" lon="14.220490365801185"><ele>370.0</ele><time>2026-05-01T12:34:21Z</time></trkpt><trkpt lat="42.21197978232833" lon="14.220413968822"><ele>370.0</ele><time>2026-05-01T12:34:27Z</time></trkpt><trkpt lat="42.212016280783075" lon="14.220319667684603"><ele>370.0</ele><time>2026-05-01T12:34:48Z</time></trkpt><trkpt lat="42.21206240733164" lon="14.220260496150132"><ele>370.0</ele><time>2026-05-01T12:34:54Z</time></trkpt><trkpt lat="42.212134996566476" lon="14.2202422975797"><ele>370.0</ele><time>2026-05-01T12:34:59Z</time></trkpt><trkpt lat="42.212222938744354" lon="14.22022212443524"><ele>370.0</ele><time>2026-05-01T12:35:02Z</time></trkpt><trkpt lat="42.21227978939993" lon="14.220274984453466"><ele>370.0</ele><time>2026-05-01T12:35:05Z</time></trkpt><trkpt lat="42.21228362389315" lon="14.220426954413336"><ele>370.0</ele><time>2026-05-01T12:35:07Z</time></trkpt><trkpt lat="42.21227609290164" lon="14.220572141427922"><ele>370.0</ele><time>2026-05-01T12:35:09Z</time></trkpt><trkpt lat="42.21231414414633" lon="14.220690556475992"><ele>370.0</ele><time>2026-05-01T12:35:11Z</time></trkpt><trkpt lat="42.21235330241789" lon="14.220807547723762"><ele>370.4</ele><time>2026-05-01T12:35:13Z</time></trkpt><trkpt lat="42.212453503340456" lon="14.220799614080653"><ele>370.8</ele><time>2026-05-01T12:35:15Z</time></trkpt><trkpt lat="42.212522200653495" lon="14.22074542999491"><ele>371.20000000000005</ele><time>2026-05-01T12:35:16Z</time></trkpt><trkpt lat="42.2126373674527" lon="14.22067440306516"><ele>371.6</ele><time>2026-05-01T12:35:18Z</time></trkpt><trkpt lat="42.21274166705471" lon="14.220610612455745"><ele>372.0</ele><time>2026-05-01T12:35:20Z</time></trkpt><trkpt lat="42.212807016527094" lon="14.220583040264003"><ele>372.0</ele><time>2026-05-01T12:35:22Z</time></trkpt><trkpt lat="42.212902246699535" lon="14.220551209630859"><ele>372.0</ele><time>2026-05-01T12:35:25Z</time></trkpt><trkpt lat="42.21298929285468" lon="14.220454353373691"><ele>372.0</ele><time>2026-05-01T12:35:27Z</time></trkpt><trkpt lat="42.21305036567427" lon="14.220420924961191"><ele>372.0</ele><time>2026-05-01T12:35:29Z</time></trkpt><trkpt lat="42.21313773184452" lon="14.220346866431976"><ele>372.0</ele><time>2026-05-01T12:35:32Z</time></trkpt><trkpt lat="42.21320831947807" lon="14.220243741228856"><ele>372.8</ele><time>2026-05-01T12:35:34Z</time></trkpt><trkpt lat="42.21329317568393" lon="14.220201995505235"><ele>373.6</ele><time>2026-05-01T12:35:36Z</time></trkpt><trkpt lat="42.213387523803625" lon="14.220146483091368"><ele>374.40000000000003</ele><time>2026-05-01T12:35:38Z</time></trkpt><trkpt lat="42.21345326167956" lon="14.220063939580024"><ele>375.20000000000005</ele><time>2026-05-01T12:35:40Z</time></trkpt><trkpt lat="42.21351752803367" lon="14.219977366201682"><ele>376.0</ele><time>2026-05-01T12:35:42Z</time></trkpt><trkpt lat="42.21358856940738" lon="14.219907591190388"><ele>376.0</ele><time>2026-05-01T12:35:44Z</time></trkpt><trkpt lat="42.213651781290814" lon="14.219866710191738"><ele>376.0</ele><time>2026-05-01T12:35:46Z</time></trkpt><trkpt lat="42.213714681120145" lon="14.21979557004047"><ele>376.0</ele><time>2026-05-01T12:35:48Z</time></trkpt><trkpt lat="42.21377507207816" lon="14.219725192051472"><ele>376.0</ele><time>2026-05-01T12:35:50Z</time></trkpt><trkpt lat="42.21383434723374" lon="14.219662969628464"><ele>376.0</ele><time>2026-05-01T12:35:52Z</time></trkpt><trkpt lat="42.2139035848656" lon="14.219597358965743"><ele>376.0</ele><time>2026-05-01T12:35:54Z</time></trkpt><trkpt lat="42.21397028397812" lon="14.219529011389909"><ele>374.20000000000005</ele><time>2026-05-01T12:35:56Z</time></trkpt><trkpt lat="42.214018990179504" lon="14.21943464919124"><ele>372.40000000000003</ele><time>2026-05-01T12:35:58Z</time></trkpt><trkpt lat="42.21407421629555" lon="14.219333586825849"><ele>370.6</ele><time>2026-05-01T12:36:00Z</time></trkpt><trkpt lat="42.21413522613668" lon="14.219219495714164"><ele>368.8</ele><time>2026-05-01T12:36:02Z</time></trkpt><trkpt lat="42.21418563073022" lon="14.219108058261396"><ele>367.0</ele><time>2026-05-01T12:36:04Z</time></trkpt><trkpt lat="42.214238435090884" lon="14.218989252182563"><ele>364.5</ele><time>2026-05-01T12:36:06Z</time></trkpt><trkpt lat="42.21429400869108" lon="14.218896670959149"><ele>362.0</ele><time>2026-05-01T12:36:08Z</time></trkpt><trkpt lat="42.21438822245029" lon="14.218783180646948"><ele>359.5</ele><time>2026-05-01T12:36:10Z</time></trkpt><trkpt lat="42.214445269019556" lon="14.21874037666631"><ele>357.0</ele><time>2026-05-01T12:36:11Z</time></trkpt><trkpt lat="42.21451622398963" lon="14.218691391577714"><ele>354.5</ele><time>2026-05-01T12:36:12Z</time></trkpt><trkpt lat="42.214572844005936" lon="14.218629606069186"><ele>352.0</ele><time>2026-05-01T12:36:13Z</time></trkpt><trkpt lat="42.21465684116314" lon="14.218527530474478"><ele>352.0</ele><time>2026-05-01T12:36:15Z</time></trkpt><trkpt lat="42.21472661525806" lon="14.218446067711206"><ele>352.0</ele><time>2026-05-01T12:36:17Z</time></trkpt><trkpt lat="42.2147809851145" lon="14.218384166765466"><ele>352.0</ele><time>2026-05-01T12:36:18Z</time></trkpt><trkpt lat="42.2148653484816" lon="14.218273655726865"><ele>352.0</ele><time>2026-05-01T12:36:20Z</time></trkpt><trkpt lat="42.21491881252973" lon="14.218203381640748"><ele>352.0</ele><time>2026-05-01T12:36:21Z</time></trkpt><trkpt lat="42.21501036258321" lon="14.218104490102622"><ele>351.3333333333333</ele><time>2026-05-01T12:36:23Z</time></trkpt><trkpt lat="42.21509249178624" lon="14.218015434829342"><ele>350.66666666666663</ele><time>2026-05-01T12:36:25Z</time></trkpt><trkpt lat="42.215147399062644" lon="14.217970604170274"><ele>350.0</ele><time>2026-05-01T12:36:26Z</time></trkpt><trkpt lat="42.21521407084778" lon="14.217917296384671"><ele>349.3333333333333</ele><time>2026-05-01T12:36:27Z</time></trkpt><trkpt lat="42.21527646202434" lon="14.217881036794747"><ele>348.6666666666667</ele><time>2026-05-01T12:36:28Z</time></trkpt><trkpt lat="42.21534846777383" lon="14.217839547287484"><ele>348.0</ele><time>2026-05-01T12:36:29Z</time></trkpt><trkpt lat="42.215418127296125" lon="14.217800408729197"><ele>348.0</ele><time>2026-05-01T12:36:30Z</time></trkpt><trkpt lat="42.21552680527681" lon="14.217716914608404"><ele>348.0</ele><time>2026-05-01T12:36:32Z</time></trkpt><trkpt lat="42.215587621302234" lon="14.217652486636533"><ele>348.0</ele><time>2026-05-01T12:36:33Z</time></trkpt><trkpt lat="42.21565824123111" lon="14.217593041295562"><ele>348.0</ele><time>2026-05-01T12:36:34Z</time></trkpt><trkpt lat="42.21572098755426" lon="14.217527619479204"><ele>348.0</ele><time>2026-05-01T12:36:35Z</time></trkpt><trkpt lat="42.21578958124831" lon="14.2174717212942"><ele>348.0</ele><time>2026-05-01T12:36:36Z</time></trkpt><trkpt lat="42.21584431046762" lon="14.217414505737423"><ele>348.79999999999995</ele><time>2026-05-01T12:36:37Z</time></trkpt><trkpt lat="42.21594150118849" lon="14.217326002676348"><ele>349.6</ele><time>2026-05-01T12:36:39Z</time></trkpt><trkpt lat="42.21599149521431" lon="14.217270638258798"><ele>350.4</ele><time>2026-05-01T12:36:40Z</time></trkpt><trkpt lat="42.21604910537155" lon="14.217211031320502"><ele>351.20000000000005</ele><time>2026-05-01T12:36:41Z</time></trkpt><trkpt lat="42.21613633516599" lon="14.217135573965605"><ele>352.0</ele><time>2026-05-01T12:36:43Z</time></trkpt><trkpt lat="42.21621337775475" lon="14.217054750771242"><ele>350.0</ele><time>2026-05-01T12:36:45Z</time></trkpt><trkpt lat="42.21629228182075" lon="14.216996152328557"><ele>348.0</ele><time>2026-05-01T12:36:47Z</time></trkpt><trkpt lat="42.21638436750363" lon="14.216915514941931"><ele>346.0</ele><time>2026-05-01T12:36:49Z</time></trkpt><trkpt lat="42.21648188784082" lon="14.21685069386404"><ele>344.0</ele><time>2026-05-01T12:36:51Z</time></trkpt><trkpt lat="42.21657706403795" lon="14.216798525880304"><ele>342.0</ele><time>2026-05-01T12:36:53Z</time></trkpt><trkpt lat="42.21667900873584" lon="14.216765830864242"><ele>342.0</ele><time>2026-05-01T12:36:55Z</time></trkpt><trkpt lat="42.21676646711302" lon="14.216702129449578"><ele>342.0</ele><time>2026-05-01T12:36:57Z</time></trkpt><trkpt lat="42.216864046654884" lon="14.216637891361387"><ele>342.0</ele><time>2026-05-01T12:36:59Z</time></trkpt><trkpt lat="42.21695919768643" lon="14.216562148782206"><ele>342.0</ele><time>2026-05-01T12:37:01Z</time></trkpt><trkpt lat="42.21706950192555" lon="14.216481396197182"><ele>342.0</ele><time>2026-05-01T12:37:03Z</time></trkpt><trkpt lat="42.217149334462086" lon="14.216435359907289"><ele>341.3333333333333</ele><time>2026-05-01T12:37:04Z</time></trkpt><trkpt lat="42.217231964279165" lon="14.216381573575767"><ele>340.6666666666667</ele><time>2026-05-01T12:37:05Z</time></trkpt><trkpt lat="42.21729983783589" lon="14.216336421563984"><ele>340.0</ele><time>2026-05-01T12:37:06Z</time></trkpt><trkpt lat="42.21736369041409" lon="14.216295957504128"><ele>339.33333333333337</ele><time>2026-05-01T12:37:07Z</time></trkpt><trkpt lat="42.217424966924476" lon="14.216254290712794"><ele>338.6666666666667</ele><time>2026-05-01T12:37:08Z</time></trkpt><trkpt lat="42.21748841021175" lon="14.216232557130212"><ele>338.0</ele><time>2026-05-01T12:37:09Z</time></trkpt><trkpt lat="42.217573285799645" lon="14.216286458179622"><ele>337.83333333333337</ele><time>2026-05-01T12:37:11Z</time></trkpt><trkpt lat="42.21763806593641" lon="14.21639943812139"><ele>337.6666666666667</ele><time>2026-05-01T12:37:13Z</time></trkpt><trkpt lat="42.21766431554268" lon="14.216505772840732"><ele>337.5</ele><time>2026-05-01T12:37:15Z</time></trkpt><trkpt lat="42.217682023451104" lon="14.216594277523004"><ele>337.3333333333333</ele><time>2026-05-01T12:37:17Z</time></trkpt><trkpt lat="42.21768307444475" lon="14.216710676276675"><ele>337.16666666666663</ele><time>2026-05-01T12:37:19Z</time></trkpt><trkpt lat="42.217596411580196" lon="14.216768256252283"><ele>337.0</ele><time>2026-05-01T12:37:21Z</time></trkpt><trkpt lat="42.217502368768216" lon="14.216801066369872"><ele>338.40000000000003</ele><time>2026-05-01T12:37:23Z</time></trkpt><trkpt lat="42.21746544838818" lon="14.216907842468867"><ele>339.8</ele><time>2026-05-01T12:37:26Z</time></trkpt><trkpt lat="42.2175752485171" lon="14.216969247623934"><ele>341.2</ele><time>2026-05-01T12:37:28Z</time></trkpt><trkpt lat="42.21765661240582" lon="14.216933843982217"><ele>342.6</ele><time>2026-05-01T12:37:29Z</time></trkpt><trkpt lat="42.2177519222712" lon="14.216917708906301"><ele>344.0</ele><time>2026-05-01T12:37:30Z</time></trkpt><trkpt lat="42.21784864063895" lon="14.216902361373153"><ele>344.0</ele><time>2026-05-01T12:37:31Z</time></trkpt><trkpt lat="42.21793520533745" lon="14.21688931793845"><ele>344.0</ele><time>2026-05-01T12:37:32Z</time></trkpt><trkpt lat="42.218037511889" lon="14.216927943755262"><ele>344.0</ele><time>2026-05-01T12:37:34Z</time></trkpt><trkpt lat="42.21808829977681" lon="14.216990839567634"><ele>344.0</ele><time>2026-05-01T12:37:35Z</time></trkpt><trkpt lat="42.218144013037424" lon="14.217060038001149"><ele>344.0</ele><time>2026-05-01T12:37:36Z</time></trkpt><trkpt lat="42.21820838817006" lon="14.217121492142578"><ele>344.0</ele><time>2026-05-01T12:37:37Z</time></trkpt><trkpt lat="42.218268480585095" lon="14.217180329727693"><ele>344.75</ele><time>2026-05-01T12:37:38Z</time></trkpt><trkpt lat="42.21835818562164" lon="14.21711579674939"><ele>345.5</ele><time>2026-05-01T12:37:41Z</time></trkpt><trkpt lat="42.21840397910347" lon="14.216996216887365"><ele>346.25</ele><time>2026-05-01T12:37:42Z</time></trkpt><trkpt lat="42.21847927088619" lon="14.21685140108381"><ele>347.0</ele><time>2026-05-01T12:37:43Z</time></trkpt><trkpt lat="42.218590200373995" lon="14.21670873223364"><ele>347.0</ele><time>2026-05-01T12:37:44Z</time></trkpt><trkpt lat="42.21872147914032" lon="14.216593341250393"><ele>347.0</ele><time>2026-05-01T12:37:45Z</time></trkpt><trkpt lat="42.21887020819751" lon="14.216485144321702"><ele>347.0</ele><time>2026-05-01T12:37:46Z</time></trkpt><trkpt lat="42.21900527809698" lon="14.21635755113915"><ele>345.0</ele><time>2026-05-01T12:37:47Z</time></trkpt><trkpt lat="42.21912006234635" lon="14.216213550673423"><ele>343.0</ele><time>2026-05-01T12:37:48Z</time></trkpt><trkpt lat="42.219220589635555" lon="14.216060872694438"><ele>341.0</ele><time>2026-05-01T12:37:49Z</time></trkpt><trkpt lat="42.21931316677736" lon="14.215887205692919"><ele>341.0</ele><time>2026-05-01T12:37:50Z</time></trkpt><trkpt lat="42.21940146585277" lon="14.215670600858505"><ele>341.0</ele><time>2026-05-01T12:37:51Z</time></trkpt><trkpt lat="42.21947778443791" lon="14.215432857671663"><ele>341.0</ele><time>2026-05-01T12:37:52Z</time></trkpt><trkpt lat="42.21955379459776" lon="14.215205405506536"><ele>337.6666666666667</ele><time>2026-05-01T12:37:53Z</time></trkpt><trkpt lat="42.219639080020656" lon="14.214996630803332"><ele>334.3333333333333</ele><time>2026-05-01T12:37:54Z</time></trkpt><trkpt lat="42.21973559041765" lon="14.214808532500674"><ele>331.0</ele><time>2026-05-01T12:37:55Z</time></trkpt><trkpt lat="42.21982350421248" lon="14.2146404443322"><ele>330.20000000000005</ele><time>2026-05-01T12:37:56Z</time></trkpt><trkpt lat="42.219897066674854" lon="14.214487131771481"><ele>329.40000000000003</ele><time>2026-05-01T12:37:57Z</time></trkpt><trkpt lat="42.219945651901924" lon="14.214352066171704"><ele>328.6</ele><time>2026-05-01T12:37:58Z</time></trkpt><trkpt lat="42.21997322159304" lon="14.21426233520766"><ele>327.8</ele><time>2026-05-01T12:37:59Z</time></trkpt><trkpt lat="42.22000197637131" lon="14.214177220265624"><ele>327.0</ele><time>2026-05-01T12:38:00Z</time></trkpt><trkpt lat="42.22003677950449" lon="14.214034798245894"><ele>326.0</ele><time>2026-05-01T12:38:02Z</time></trkpt><trkpt lat="42.22007052237363" lon="14.21394813312335"><ele>325.0</ele><time>2026-05-01T12:38:03Z</time></trkpt><trkpt lat="42.22011645890183" lon="14.21382445449608"><ele>324.0</ele><time>2026-05-01T12:38:05Z</time></trkpt><trkpt lat="42.22010019155066" lon="14.21369496773481"><ele>323.0</ele><time>2026-05-01T12:38:08Z</time></trkpt><trkpt lat="42.22003771207343" lon="14.21366087493287"><ele>322.0</ele><time>2026-05-01T12:38:09Z</time></trkpt><trkpt lat="42.21996142189186" lon="14.213638917622145"><ele>321.0</ele><time>2026-05-01T12:38:10Z</time></trkpt><trkpt lat="42.2198981066963" lon="14.213605210360276"><ele>321.0</ele><time>2026-05-01T12:38:11Z</time></trkpt><trkpt lat="42.21986217642238" lon="14.213491885663029"><ele>321.0</ele><time>2026-05-01T12:38:13Z</time></trkpt><trkpt lat="42.2198916603419" lon="14.213398155935632"><ele>321.0</ele><time>2026-05-01T12:38:14Z</time></trkpt><trkpt lat="42.219958645178885" lon="14.213304855429797"><ele>321.0</ele><time>2026-05-01T12:38:15Z</time></trkpt><trkpt lat="42.2200318410437" lon="14.213197632645256"><ele>321.0</ele><time>2026-05-01T12:38:16Z</time></trkpt><trkpt lat="42.220091178247365" lon="14.21308185287501"><ele>321.25</ele><time>2026-05-01T12:38:17Z</time></trkpt><trkpt lat="42.22015700185971" lon="14.212975966819672"><ele>321.5</ele><time>2026-05-01T12:38:18Z</time></trkpt><trkpt lat="42.220248248304685" lon="14.21285035005185"><ele>321.75</ele><time>2026-05-01T12:38:19Z</time></trkpt><trkpt lat="42.22035050901723" lon="14.212716126081878"><ele>322.0</ele><time>2026-05-01T12:38:20Z</time></trkpt><trkpt lat="42.22045419630698" lon="14.212589635054572"><ele>322.0</ele><time>2026-05-01T12:38:21Z</time></trkpt><trkpt lat="42.22055574887593" lon="14.212480605149482"><ele>322.0</ele><time>2026-05-01T12:38:22Z</time></trkpt><trkpt lat="42.22064386777724" lon="14.21237153165854"><ele>322.0</ele><time>2026-05-01T12:38:23Z</time></trkpt><trkpt lat="42.22073768730151" lon="14.212248094944039"><ele>322.0</ele><time>2026-05-01T12:38:24Z</time></trkpt><trkpt lat="42.22083181068781" lon="14.212110112979161"><ele>321.5</ele><time>2026-05-01T12:38:25Z</time></trkpt><trkpt lat="42.220935742022895" lon="14.211978091207063"><ele>321.0</ele><time>2026-05-01T12:38:26Z</time></trkpt><trkpt lat="42.22104407520991" lon="14.211862429010267"><ele>320.5</ele><time>2026-05-01T12:38:27Z</time></trkpt><trkpt lat="42.22117116470022" lon="14.211757859216059"><ele>320.0</ele><time>2026-05-01T12:38:28Z</time></trkpt><trkpt lat="42.221337552259115" lon="14.211651947293513"><ele>318.6666666666667</ele><time>2026-05-01T12:38:29Z</time></trkpt><trkpt lat="42.221522718823024" lon="14.211548491990332"><ele>317.3333333333333</ele><time>2026-05-01T12:38:30Z</time></trkpt><trkpt lat="42.22168515955143" lon="14.211450809369003"><ele>316.0</ele><time>2026-05-01T12:38:31Z</time></trkpt><trkpt lat="42.22183219274508" lon="14.211357443782227"><ele>315.3333333333333</ele><time>2026-05-01T12:38:32Z</time></trkpt><trkpt lat="42.22196659463707" lon="14.211274169765533"><ele>314.6666666666667</ele><time>2026-05-01T12:38:33Z</time></trkpt><trkpt lat="42.22210667002408" lon="14.211216071080111"><ele>314.0</ele><time>2026-05-01T12:38:34Z</time></trkpt><trkpt lat="42.2222609948045" lon="14.211169802661793"><ele>313.0</ele><time>2026-05-01T12:38:35Z</time></trkpt><trkpt lat="42.22240372702344" lon="14.211119147306043"><ele>312.0</ele><time>2026-05-01T12:38:36Z</time></trkpt><trkpt lat="42.22254765235132" lon="14.211057035044451"><ele>311.0</ele><time>2026-05-01T12:38:37Z</time></trkpt><trkpt lat="42.222665772233775" lon="14.210978290116202"><ele>310.0</ele><time>2026-05-01T12:38:38Z</time></trkpt><trkpt lat="42.222783838215726" lon="14.210891100737888"><ele>310.0</ele><time>2026-05-01T12:38:39Z</time></trkpt><trkpt lat="42.22288464701566" lon="14.210804216280339"><ele>310.0</ele><time>2026-05-01T12:38:40Z</time></trkpt><trkpt lat="42.22297325041066" lon="14.210722322373146"><ele>310.0</ele><time>2026-05-01T12:38:41Z</time></trkpt><trkpt lat="42.2230586579308" lon="14.210647669252893"><ele>310.0</ele><time>2026-05-01T12:38:42Z</time></trkpt><trkpt lat="42.22314750313036" lon="14.210560944828432"><ele>310.0</ele><time>2026-05-01T12:38:43Z</time></trkpt><trkpt lat="42.223230859184014" lon="14.210463709222187"><ele>309.8</ele><time>2026-05-01T12:38:44Z</time></trkpt><trkpt lat="42.22331512640485" lon="14.210362952178375"><ele>309.6</ele><time>2026-05-01T12:38:45Z</time></trkpt><trkpt lat="42.22340064477258" lon="14.21025086650013"><ele>309.4</ele><time>2026-05-01T12:38:46Z</time></trkpt><trkpt lat="42.223477332184125" lon="14.210142445079507"><ele>309.2</ele><time>2026-05-01T12:38:47Z</time></trkpt><trkpt lat="42.223549088425095" lon="14.21005125842021"><ele>309.0</ele><time>2026-05-01T12:38:48Z</time></trkpt><trkpt lat="42.22362413438178" lon="14.20996970933008"><ele>309.0</ele><time>2026-05-01T12:38:49Z</time></trkpt><trkpt lat="42.22370681081507" lon="14.209889287848474"><ele>309.0</ele><time>2026-05-01T12:38:50Z</time></trkpt><trkpt lat="42.223791758238626" lon="14.209827489153874"><ele>309.0</ele><time>2026-05-01T12:38:51Z</time></trkpt><trkpt lat="42.22387916506632" lon="14.209810922222667"><ele>309.0</ele><time>2026-05-01T12:38:52Z</time></trkpt><trkpt lat="42.223969718081776" lon="14.209824166355384"><ele>309.0</ele><time>2026-05-01T12:38:53Z</time></trkpt><trkpt lat="42.224064273452754" lon="14.209862244752733"><ele>309.0</ele><time>2026-05-01T12:38:54Z</time></trkpt><trkpt lat="42.224155767894814" lon="14.209897879010407"><ele>309.0</ele><time>2026-05-01T12:38:55Z</time></trkpt><trkpt lat="42.224245821770765" lon="14.209907022217855"><ele>309.0</ele><time>2026-05-01T12:38:56Z</time></trkpt><trkpt lat="42.22433559033677" lon="14.20986048914325"><ele>309.0</ele><time>2026-05-01T12:38:57Z</time></trkpt><trkpt lat="42.22441568746441" lon="14.20977487989675"><ele>309.0</ele><time>2026-05-01T12:38:58Z</time></trkpt><trkpt lat="42.2244798148604" lon="14.20963790262237"><ele>309.4</ele><time>2026-05-01T12:38:59Z</time></trkpt><trkpt lat="42.224559158631784" lon="14.209522852179848"><ele>309.79999999999995</ele><time>2026-05-01T12:39:00Z</time></trkpt><trkpt lat="42.22462611533042" lon="14.209424265328526"><ele>310.20000000000005</ele><time>2026-05-01T12:39:01Z</time></trkpt><trkpt lat="42.22470749619597" lon="14.209334831609215"><ele>310.6</ele><time>2026-05-01T12:39:02Z</time></trkpt><trkpt lat="42.22478618555367" lon="14.20925333073435"><ele>311.0</ele><time>2026-05-01T12:39:03Z</time></trkpt><trkpt lat="42.22488242837735" lon="14.209190572668552"><ele>310.0</ele><time>2026-05-01T12:39:04Z</time></trkpt><trkpt lat="42.22500198838274" lon="14.209150631654213"><ele>309.0</ele><time>2026-05-01T12:39:05Z</time></trkpt><trkpt lat="42.2251408013886" lon="14.209124442014444"><ele>308.0</ele><time>2026-05-01T12:39:06Z</time></trkpt><trkpt lat="42.2252820741421" lon="14.209078461668545"><ele>307.0</ele><time>2026-05-01T12:39:07Z</time></trkpt><trkpt lat="42.225416223734584" lon="14.20900533614857"><ele>306.5</ele><time>2026-05-01T12:39:08Z</time></trkpt><trkpt lat="42.225530219019376" lon="14.20892135225392"><ele>306.0</ele><time>2026-05-01T12:39:09Z</time></trkpt><trkpt lat="42.225638998588074" lon="14.208856410636363"><ele>305.5</ele><time>2026-05-01T12:39:10Z</time></trkpt><trkpt lat="42.22575391456088" lon="14.20880337560198"><ele>305.0</ele><time>2026-05-01T12:39:11Z</time></trkpt><trkpt lat="42.22587224612522" lon="14.208774121581929"><ele>304.6666666666667</ele><time>2026-05-01T12:39:12Z</time></trkpt><trkpt lat="42.22598826709567" lon="14.208742086918607"><ele>304.33333333333337</ele><time>2026-05-01T12:39:13Z</time></trkpt><trkpt lat="42.22607941467612" lon="14.208718977793428"><ele>304.0</ele><time>2026-05-01T12:39:14Z</time></trkpt><trkpt lat="42.226143980372754" lon="14.208683794966559"><ele>303.6666666666667</ele><time>2026-05-01T12:39:15Z</time></trkpt><trkpt lat="42.22619565693357" lon="14.208621178185405"><ele>303.3333333333333</ele><time>2026-05-01T12:39:16Z</time></trkpt><trkpt lat="42.226235429627195" lon="14.208510548946453"><ele>303.0</ele><time>2026-05-01T12:39:17Z</time></trkpt><trkpt lat="42.22629262470563" lon="14.20835374255854"><ele>303.0</ele><time>2026-05-01T12:39:18Z</time></trkpt><trkpt lat="42.226345034100895" lon="14.208162127444421"><ele>303.0</ele><time>2026-05-01T12:39:19Z</time></trkpt><trkpt lat="42.22641264023149" lon="14.207991413309868"><ele>303.0</ele><time>2026-05-01T12:39:20Z</time></trkpt><trkpt lat="42.22647681719904" lon="14.207863336871105"><ele>303.0</ele><time>2026-05-01T12:39:21Z</time></trkpt><trkpt lat="42.2265112135599" lon="14.207750734766764"><ele>302.2</ele><time>2026-05-01T12:39:22Z</time></trkpt><trkpt lat="42.22655532347557" lon="14.207652506472764"><ele>301.4</ele><time>2026-05-01T12:39:23Z</time></trkpt><trkpt lat="42.226618876073125" lon="14.20756231994051"><ele>300.59999999999997</ele><time>2026-05-01T12:39:24Z</time></trkpt><trkpt lat="42.22671473330971" lon="14.20747081611868"><ele>299.8</ele><time>2026-05-01T12:39:25Z</time></trkpt><trkpt lat="42.22683002186531" lon="14.207366227013704"><ele>299.0</ele><time>2026-05-01T12:39:26Z</time></trkpt><trkpt lat="42.226965939460825" lon="14.207275422704528"><ele>298.75</ele><time>2026-05-01T12:39:27Z</time></trkpt><trkpt lat="42.227118462460474" lon="14.207189555771517"><ele>298.5</ele><time>2026-05-01T12:39:28Z</time></trkpt><trkpt lat="42.22725483864209" lon="14.207116851822441"><ele>298.25</ele><time>2026-05-01T12:39:29Z</time></trkpt><trkpt lat="42.227353140756726" lon="14.207048884187161"><ele>298.0</ele><time>2026-05-01T12:39:30Z</time></trkpt><trkpt lat="42.227428656494226" lon="14.206993879873885"><ele>297.2</ele><time>2026-05-01T12:39:31Z</time></trkpt><trkpt lat="42.22749947034384" lon="14.206932352939365"><ele>296.4</ele><time>2026-05-01T12:39:32Z</time></trkpt><trkpt lat="42.22756405596183" lon="14.206845277753162"><ele>295.59999999999997</ele><time>2026-05-01T12:39:33Z</time></trkpt><trkpt lat="42.22761267734986" lon="14.206722994947649"><ele>294.8</ele><time>2026-05-01T12:39:34Z</time></trkpt><trkpt lat="42.22764420018601" lon="14.206568536172892"><ele>294.0</ele><time>2026-05-01T12:39:35Z</time></trkpt><trkpt lat="42.22767029666979" lon="14.206409270860313"><ele>293.5</ele><time>2026-05-01T12:39:36Z</time></trkpt><trkpt lat="42.22770507271735" lon="14.20626213422899"><ele>293.0</ele><time>2026-05-01T12:39:37Z</time></trkpt><trkpt lat="42.22775071070588" lon="14.206145755011605"><ele>292.5</ele><time>2026-05-01T12:39:38Z</time></trkpt><trkpt lat="42.22779724777092" lon="14.206039482770606"><ele>292.0</ele><time>2026-05-01T12:39:39Z</time></trkpt><trkpt lat="42.22782129490787" lon="14.20595717637283"><ele>291.5</ele><time>2026-05-01T12:39:40Z</time></trkpt><trkpt lat="42.227817544335075" lon="14.205855327895156"><ele>291.0</ele><time>2026-05-01T12:39:41Z</time></trkpt><trkpt lat="42.22779045032305" lon="14.205729172922775"><ele>290.8</ele><time>2026-05-01T12:39:42Z</time></trkpt><trkpt lat="42.227725736998515" lon="14.205597279969888"><ele>290.6</ele><time>2026-05-01T12:39:43Z</time></trkpt><trkpt lat="42.22766921502556" lon="14.205464938438427"><ele>290.4</ele><time>2026-05-01T12:39:44Z</time></trkpt><trkpt lat="42.22766060539983" lon="14.205327436944756"><ele>290.2</ele><time>2026-05-01T12:39:45Z</time></trkpt><trkpt lat="42.22767907349439" lon="14.205196971923236"><ele>290.0</ele><time>2026-05-01T12:39:46Z</time></trkpt><trkpt lat="42.2277252298645" lon="14.205130078981584"><ele>290.0</ele><time>2026-05-01T12:39:47Z</time></trkpt><trkpt lat="42.22778206457471" lon="14.205068238566133"><ele>290.0</ele><time>2026-05-01T12:39:48Z</time></trkpt><trkpt lat="42.22785505374316" lon="14.20498670999215"><ele>290.0</ele><time>2026-05-01T12:39:49Z</time></trkpt><trkpt lat="42.22794277188868" lon="14.204931201386662"><ele>290.0</ele><time>2026-05-01T12:39:50Z</time></trkpt><trkpt lat="42.228051300907154" lon="14.204892354074385"><ele>290.0</ele><time>2026-05-01T12:39:51Z</time></trkpt><trkpt lat="42.22815317067846" lon="14.204859538682891"><ele>290.0</ele><time>2026-05-01T12:39:52Z</time></trkpt><trkpt lat="42.22824097423195" lon="14.204773351450973"><ele>290.0</ele><time>2026-05-01T12:39:53Z</time></trkpt><trkpt lat="42.228310125461604" lon="14.204657765869639"><ele>290.0</ele><time>2026-05-01T12:39:54Z</time></trkpt><trkpt lat="42.22836884561897" lon="14.204526229879518"><ele>290.0</ele><time>2026-05-01T12:39:55Z</time></trkpt><trkpt lat="42.22842283072552" lon="14.204385539458908"><ele>290.0</ele><time>2026-05-01T12:39:56Z</time></trkpt><trkpt lat="42.228464200638335" lon="14.204269701284808"><ele>290.0</ele><time>2026-05-01T12:39:57Z</time></trkpt><trkpt lat="42.22850329745622" lon="14.204155021140867"><ele>290.0</ele><time>2026-05-01T12:39:58Z</time></trkpt><trkpt lat="42.2285739517313" lon="14.204071146094108"><ele>290.0</ele><time>2026-05-01T12:39:59Z</time></trkpt><trkpt lat="42.22867292987511" lon="14.2039905976785"><ele>290.0</ele><time>2026-05-01T12:40:00Z</time></trkpt><trkpt lat="42.22878216376442" lon="14.203929125650188"><ele>289.6</ele><time>2026-05-01T12:40:01Z</time></trkpt><trkpt lat="42.22887440018849" lon="14.203894043471355"><ele>289.2</ele><time>2026-05-01T12:40:02Z</time></trkpt><trkpt lat="42.2289718774508" lon="14.203845014716078"><ele>288.8</ele><time>2026-05-01T12:40:03Z</time></trkpt><trkpt lat="42.22906914794927" lon="14.203789326073991"><ele>288.4</ele><time>2026-05-01T12:40:04Z</time></trkpt><trkpt lat="42.229175730038016" lon="14.203714129548239"><ele>288.0</ele><time>2026-05-01T12:40:05Z</time></trkpt><trkpt lat="42.229284737346106" lon="14.203627508791852"><ele>288.0</ele><time>2026-05-01T12:40:06Z</time></trkpt><trkpt lat="42.22938672790986" lon="14.20353915778673"><ele>288.0</ele><time>2026-05-01T12:40:07Z</time></trkpt><trkpt lat="42.22946233927444" lon="14.203452883787442"><ele>288.0</ele><time>2026-05-01T12:40:08Z</time></trkpt><trkpt lat="42.22952449725352" lon="14.203369309848027"><ele>288.0</ele><time>2026-05-01T12:40:09Z</time></trkpt><trkpt lat="42.229566957751196" lon="14.203259150608794"><ele>288.0</ele><time>2026-05-01T12:40:10Z</time></trkpt><trkpt lat="42.22959322129783" lon="14.20311323842576"><ele>287.0</ele><time>2026-05-01T12:40:11Z</time></trkpt><trkpt lat="42.229590706348354" lon="14.202942162622362"><ele>286.0</ele><time>2026-05-01T12:40:12Z</time></trkpt><trkpt lat="42.22958915960992" lon="14.202752662676247"><ele>285.0</ele><time>2026-05-01T12:40:13Z</time></trkpt><trkpt lat="42.22960782713908" lon="14.202580782221226"><ele>284.0</ele><time>2026-05-01T12:40:14Z</time></trkpt><trkpt lat="42.22965398566647" lon="14.20242532180634"><ele>283.75</ele><time>2026-05-01T12:40:15Z</time></trkpt><trkpt lat="42.22971821768517" lon="14.202284951050487"><ele>283.5</ele><time>2026-05-01T12:40:16Z</time></trkpt><trkpt lat="42.22980361033279" lon="14.202147501270995"><ele>283.25</ele><time>2026-05-01T12:40:17Z</time></trkpt><trkpt lat="42.22989617447589" lon="14.202016087454046"><ele>283.0</ele><time>2026-05-01T12:40:18Z</time></trkpt><trkpt lat="42.22998705795292" lon="14.20190351312108"><ele>283.0</ele><time>2026-05-01T12:40:19Z</time></trkpt><trkpt lat="42.23009395174407" lon="14.201802022857205"><ele>283.0</ele><time>2026-05-01T12:40:20Z</time></trkpt><trkpt lat="42.230217044144005" lon="14.201716025114548"><ele>283.0</ele><time>2026-05-01T12:40:21Z</time></trkpt><trkpt lat="42.230332663008916" lon="14.20164722247302"><ele>283.0</ele><time>2026-05-01T12:40:22Z</time></trkpt><trkpt lat="42.23045921344249" lon="14.201569506204756"><ele>282.66666666666663</ele><time>2026-05-01T12:40:23Z</time></trkpt><trkpt lat="42.23057818469134" lon="14.201462485967399"><ele>282.3333333333333</ele><time>2026-05-01T12:40:24Z</time></trkpt><trkpt lat="42.23068936389579" lon="14.201314509288823"><ele>282.0</ele><time>2026-05-01T12:40:25Z</time></trkpt><trkpt lat="42.23078858563419" lon="14.201137518343698"><ele>282.0</ele><time>2026-05-01T12:40:26Z</time></trkpt><trkpt lat="42.23086479293336" lon="14.200973700727836"><ele>282.0</ele><time>2026-05-01T12:40:27Z</time></trkpt><trkpt lat="42.230919280952065" lon="14.200807612959528"><ele>282.0</ele><time>2026-05-01T12:40:28Z</time></trkpt><trkpt lat="42.230991621541925" lon="14.200651975007736"><ele>282.0</ele><time>2026-05-01T12:40:29Z</time></trkpt><trkpt lat="42.23111276652205" lon="14.200509677614683"><ele>281.0</ele><time>2026-05-01T12:40:30Z</time></trkpt><trkpt lat="42.231255256079976" lon="14.200373097098517"><ele>280.0</ele><time>2026-05-01T12:40:31Z</time></trkpt><trkpt lat="42.23138547677562" lon="14.200218943576102"><ele>279.0</ele><time>2026-05-01T12:40:32Z</time></trkpt><trkpt lat="42.231509837377985" lon="14.200042834569492"><ele>279.0</ele><time>2026-05-01T12:40:33Z</time></trkpt><trkpt lat="42.231628313280304" lon="14.199876716085196"><ele>279.0</ele><time>2026-05-01T12:40:34Z</time></trkpt><trkpt lat="42.23172609181305" lon="14.199739985294988"><ele>279.0</ele><time>2026-05-01T12:40:35Z</time></trkpt><trkpt lat="42.231808791337805" lon="14.199641753054848"><ele>279.0</ele><time>2026-05-01T12:40:36Z</time></trkpt><trkpt lat="42.2318974689205" lon="14.199550880042507"><ele>278.0</ele><time>2026-05-01T12:40:37Z</time></trkpt><trkpt lat="42.23198737003627" lon="14.199414000405463"><ele>277.0</ele><time>2026-05-01T12:40:38Z</time></trkpt><trkpt lat="42.23207676405926" lon="14.199228381154784"><ele>276.0</ele><time>2026-05-01T12:40:39Z</time></trkpt><trkpt lat="42.23218533476888" lon="14.19902945738993"><ele>274.6666666666667</ele><time>2026-05-01T12:40:40Z</time></trkpt><trkpt lat="42.23231274174506" lon="14.19883755287132"><ele>273.33333333333337</ele><time>2026-05-01T12:40:41Z</time></trkpt><trkpt lat="42.23242748954793" lon="14.19865475703166"><ele>272.0</ele><time>2026-05-01T12:40:42Z</time></trkpt><trkpt lat="42.23253210233265" lon="14.19849210648986"><ele>272.0</ele><time>2026-05-01T12:40:43Z</time></trkpt><trkpt lat="42.232625193262585" lon="14.198363440809796"><ele>272.0</ele><time>2026-05-01T12:40:44Z</time></trkpt><trkpt lat="42.23270846422883" lon="14.198243134932321"><ele>272.0</ele><time>2026-05-01T12:40:45Z</time></trkpt><trkpt lat="42.232787962798746" lon="14.198130179990693"><ele>272.0</ele><time>2026-05-01T12:40:46Z</time></trkpt><trkpt lat="42.23283153910773" lon="14.198053237796373"><ele>272.0</ele><time>2026-05-01T12:40:47Z</time></trkpt><trkpt lat="42.232864384884785" lon="14.197932548610384"><ele>271.0</ele><time>2026-05-01T12:40:49Z</time></trkpt><trkpt lat="42.232897770647405" lon="14.197815376947037"><ele>270.0</ele><time>2026-05-01T12:40:51Z</time></trkpt><trkpt lat="42.23296646959013" lon="14.197792670306145"><ele>269.0</ele><time>2026-05-01T12:40:53Z</time></trkpt><trkpt lat="42.23308382785367" lon="14.19778292085515"><ele>268.0</ele><time>2026-05-01T12:40:55Z</time></trkpt><trkpt lat="42.2331877842141" lon="14.197727320414874"><ele>267.0</ele><time>2026-05-01T12:40:57Z</time></trkpt><trkpt lat="42.23326831718105" lon="14.197667091461422"><ele>267.0</ele><time>2026-05-01T12:40:59Z</time></trkpt><trkpt lat="42.23336891502227" lon="14.197573652038278"><ele>267.0</ele><time>2026-05-01T12:41:01Z</time></trkpt><trkpt lat="42.23343678853786" lon="14.19751999412321"><ele>267.0</ele><time>2026-05-01T12:41:02Z</time></trkpt><trkpt lat="42.23350909439149" lon="14.197477616955895"><ele>267.0</ele><time>2026-05-01T12:41:03Z</time></trkpt><trkpt lat="42.233570552206196" lon="14.197431133239695"><ele>267.0</ele><time>2026-05-01T12:41:04Z</time></trkpt><trkpt lat="42.23362332213523" lon="14.197369521891893"><ele>267.0</ele><time>2026-05-01T12:41:05Z</time></trkpt><trkpt lat="42.23367611969023" lon="14.197284145395628"><ele>267.0</ele><time>2026-05-01T12:41:06Z</time></trkpt><trkpt lat="42.23371499274505" lon="14.19718480706271"><ele>267.0</ele><time>2026-05-01T12:41:07Z</time></trkpt><trkpt lat="42.23374826334585" lon="14.197069180933045"><ele>267.0</ele><time>2026-05-01T12:41:08Z</time></trkpt><trkpt lat="42.23378578300528" lon="14.196963549109274"><ele>267.0</ele><time>2026-05-01T12:41:09Z</time></trkpt><trkpt lat="42.23382681661918" lon="14.196873540109747"><ele>267.0</ele><time>2026-05-01T12:41:10Z</time></trkpt><trkpt lat="42.23387879591503" lon="14.196778712388795"><ele>267.0</ele><time>2026-05-01T12:41:11Z</time></trkpt><trkpt lat="42.23392253219888" lon="14.196685877579386"><ele>267.0</ele><time>2026-05-01T12:41:12Z</time></trkpt><trkpt lat="42.23395039474779" lon="14.19659411738538"><ele>267.0</ele><time>2026-05-01T12:41:13Z</time></trkpt><trkpt lat="42.23398422901185" lon="14.1964832187588"><ele>267.0</ele><time>2026-05-01T12:41:14Z</time></trkpt><trkpt lat="42.23402172612302" lon="14.196350258876237"><ele>267.0</ele><time>2026-05-01T12:41:15Z</time></trkpt><trkpt lat="42.23407775861029" lon="14.196205922265941"><ele>267.0</ele><time>2026-05-01T12:41:16Z</time></trkpt><trkpt lat="42.23413519231274" lon="14.196078709513834"><ele>266.8</ele><time>2026-05-01T12:41:17Z</time></trkpt><trkpt lat="42.23418740512557" lon="14.1959580343874"><ele>266.6</ele><time>2026-05-01T12:41:18Z</time></trkpt><trkpt lat="42.23424569296295" lon="14.195828414300594"><ele>266.40000000000003</ele><time>2026-05-01T12:41:19Z</time></trkpt><trkpt lat="42.23431267912261" lon="14.195713425840488"><ele>266.2</ele><time>2026-05-01T12:41:20Z</time></trkpt><trkpt lat="42.23439744980343" lon="14.195598462280632"><ele>266.0</ele><time>2026-05-01T12:41:21Z</time></trkpt><trkpt lat="42.23449253874402" lon="14.19548302818886"><ele>266.0</ele><time>2026-05-01T12:41:22Z</time></trkpt><trkpt lat="42.23456988628624" lon="14.19539287664746"><ele>266.0</ele><time>2026-05-01T12:41:23Z</time></trkpt><trkpt lat="42.23463990205467" lon="14.195308260163715"><ele>266.0</ele><time>2026-05-01T12:41:24Z</time></trkpt><trkpt lat="42.234697086239386" lon="14.19521844432589"><ele>266.0</ele><time>2026-05-01T12:41:25Z</time></trkpt><trkpt lat="42.23477202053233" lon="14.195150740563852"><ele>266.0</ele><time>2026-05-01T12:41:26Z</time></trkpt><trkpt lat="42.23486015350478" lon="14.195065744586117"><ele>266.0</ele><time>2026-05-01T12:41:27Z</time></trkpt><trkpt lat="42.234946050873" lon="14.194987958100405"><ele>266.0</ele><time>2026-05-01T12:41:28Z</time></trkpt><trkpt lat="42.23502746928225" lon="14.194910019498899"><ele>266.0</ele><time>2026-05-01T12:41:29Z</time></trkpt><trkpt lat="42.235100689535805" lon="14.194820463099086"><ele>266.0</ele><time>2026-05-01T12:41:30Z</time></trkpt><trkpt lat="42.235181866707755" lon="14.19471937640857"><ele>266.0</ele><time>2026-05-01T12:41:31Z</time></trkpt><trkpt lat="42.23527175507136" lon="14.194622935849164"><ele>265.8</ele><time>2026-05-01T12:41:32Z</time></trkpt><trkpt lat="42.23535918854355" lon="14.194535928995803"><ele>265.6</ele><time>2026-05-01T12:41:33Z</time></trkpt><trkpt lat="42.23545295951677" lon="14.19445710467164"><ele>265.4</ele><time>2026-05-01T12:41:34Z</time></trkpt><trkpt lat="42.23552945157888" lon="14.194395265850112"><ele>265.2</ele><time>2026-05-01T12:41:35Z</time></trkpt><trkpt lat="42.235590900857304" lon="14.19435974951002"><ele>265.0</ele><time>2026-05-01T12:41:36Z</time></trkpt><trkpt lat="42.23567942556025" lon="14.194327091713292"><ele>265.0</ele><time>2026-05-01T12:41:37Z</time></trkpt><trkpt lat="42.23578023196267" lon="14.194289722604891"><ele>265.0</ele><time>2026-05-01T12:41:38Z</time></trkpt><trkpt lat="42.23588769085392" lon="14.194235448066602"><ele>265.0</ele><time>2026-05-01T12:41:39Z</time></trkpt><trkpt lat="42.23596491181002" lon="14.194147193299074"><ele>265.0</ele><time>2026-05-01T12:41:40Z</time></trkpt><trkpt lat="42.23602687842969" lon="14.194027682988859"><ele>265.0</ele><time>2026-05-01T12:41:41Z</time></trkpt><trkpt lat="42.23609067283042" lon="14.193896387588111"><ele>264.25</ele><time>2026-05-01T12:41:42Z</time></trkpt><trkpt lat="42.236146518034545" lon="14.193752953858755"><ele>263.5</ele><time>2026-05-01T12:41:43Z</time></trkpt><trkpt lat="42.236184713166246" lon="14.193605924318868"><ele>262.75</ele><time>2026-05-01T12:41:44Z</time></trkpt><trkpt lat="42.23623172055292" lon="14.193442320435134"><ele>262.0</ele><time>2026-05-01T12:41:45Z</time></trkpt><trkpt lat="42.23627619370525" lon="14.19329042414663"><ele>261.2</ele><time>2026-05-01T12:41:46Z</time></trkpt><trkpt lat="42.2363102900653" lon="14.19315099382812"><ele>260.4</ele><time>2026-05-01T12:41:47Z</time></trkpt><trkpt lat="42.23633633504405" lon="14.193019914321406"><ele>259.6</ele><time>2026-05-01T12:41:48Z</time></trkpt><trkpt lat="42.23635508456944" lon="14.19290744833254"><ele>258.8</ele><time>2026-05-01T12:41:49Z</time></trkpt><trkpt lat="42.236371082185855" lon="14.192799208695423"><ele>258.0</ele><time>2026-05-01T12:41:50Z</time></trkpt><trkpt lat="42.23639917302525" lon="14.192678063980798"><ele>258.0</ele><time>2026-05-01T12:41:51Z</time></trkpt><trkpt lat="42.23643921418587" lon="14.192547980472021"><ele>258.0</ele><time>2026-05-01T12:41:52Z</time></trkpt><trkpt lat="42.236487450504775" lon="14.192422207576593"><ele>258.0</ele><time>2026-05-01T12:41:53Z</time></trkpt><trkpt lat="42.23653899062443" lon="14.192285441408066"><ele>258.0</ele><time>2026-05-01T12:41:54Z</time></trkpt><trkpt lat="42.236581056630726" lon="14.192142488992397"><ele>258.0</ele><time>2026-05-01T12:41:55Z</time></trkpt><trkpt lat="42.23662910900726" lon="14.19199022073365"><ele>257.8</ele><time>2026-05-01T12:41:56Z</time></trkpt><trkpt lat="42.23667677645668" lon="14.191853521642813"><ele>257.6</ele><time>2026-05-01T12:41:57Z</time></trkpt><trkpt lat="42.23673235259676" lon="14.191722641192603"><ele>257.4</ele><time>2026-05-01T12:41:58Z</time></trkpt><trkpt lat="42.236795776012045" lon="14.19159316934947"><ele>257.2</ele><time>2026-05-01T12:41:59Z</time></trkpt><trkpt lat="42.23686690868987" lon="14.19148158045049"><ele>257.0</ele><time>2026-05-01T12:42:00Z</time></trkpt><trkpt lat="42.236939124405716" lon="14.191384500836849"><ele>256.0</ele><time>2026-05-01T12:42:01Z</time></trkpt><trkpt lat="42.23701008790454" lon="14.19129653318861"><ele>255.0</ele><time>2026-05-01T12:42:02Z</time></trkpt><trkpt lat="42.23707300718219" lon="14.191216516766366"><ele>254.0</ele><time>2026-05-01T12:42:03Z</time></trkpt><trkpt lat="42.23711327002393" lon="14.191126813503928"><ele>253.0</ele><time>2026-05-01T12:42:04Z</time></trkpt><trkpt lat="42.23713860495142" lon="14.191002685046474"><ele>252.0</ele><time>2026-05-01T12:42:05Z</time></trkpt><trkpt lat="42.237174207155626" lon="14.190849161771839"><ele>252.0</ele><time>2026-05-01T12:42:06Z</time></trkpt><trkpt lat="42.23722595829656" lon="14.190684440015072"><ele>252.0</ele><time>2026-05-01T12:42:07Z</time></trkpt><trkpt lat="42.23728099895583" lon="14.190545289993347"><ele>252.0</ele><time>2026-05-01T12:42:08Z</time></trkpt><trkpt lat="42.23734553825234" lon="14.190420630493971"><ele>252.0</ele><time>2026-05-01T12:42:09Z</time></trkpt><trkpt lat="42.23741844099479" lon="14.190321937572179"><ele>252.25</ele><time>2026-05-01T12:42:10Z</time></trkpt><trkpt lat="42.23750669669727" lon="14.190244829539369"><ele>252.5</ele><time>2026-05-01T12:42:11Z</time></trkpt><trkpt lat="42.237604430570144" lon="14.190165448007242"><ele>252.75</ele><time>2026-05-01T12:42:12Z</time></trkpt><trkpt lat="42.237700555566825" lon="14.190064725797098"><ele>253.0</ele><time>2026-05-01T12:42:13Z</time></trkpt><trkpt lat="42.2377683022283" lon="14.189944555700515"><ele>251.75</ele><time>2026-05-01T12:42:14Z</time></trkpt><trkpt lat="42.237827251191135" lon="14.189790188039467"><ele>250.5</ele><time>2026-05-01T12:42:15Z</time></trkpt><trkpt lat="42.237876125157186" lon="14.189634057242433"><ele>249.25</ele><time>2026-05-01T12:42:16Z</time></trkpt><trkpt lat="42.237912938520005" lon="14.189478637200805"><ele>248.0</ele><time>2026-05-01T12:42:17Z</time></trkpt><trkpt lat="42.23792429361463" lon="14.189314925482073"><ele>248.0</ele><time>2026-05-01T12:42:18Z</time></trkpt><trkpt lat="42.23793174313501" lon="14.18915972511007"><ele>248.0</ele><time>2026-05-01T12:42:19Z</time></trkpt><trkpt lat="42.23793921242727" lon="14.189008766626486"><ele>248.0</ele><time>2026-05-01T12:42:20Z</time></trkpt><trkpt lat="42.2379358729248" lon="14.188855690975453"><ele>248.0</ele><time>2026-05-01T12:42:21Z</time></trkpt><trkpt lat="42.237922101316244" lon="14.188719768864779"><ele>248.0</ele><time>2026-05-01T12:42:22Z</time></trkpt><trkpt lat="42.23793316473892" lon="14.188585383249114"><ele>247.4</ele><time>2026-05-01T12:42:23Z</time></trkpt><trkpt lat="42.237983923401316" lon="14.188428821029406"><ele>246.8</ele><time>2026-05-01T12:42:24Z</time></trkpt><trkpt lat="42.23805020851188" lon="14.188293844174185"><ele>246.2</ele><time>2026-05-01T12:42:25Z</time></trkpt><trkpt lat="42.238119275267145" lon="14.188212202968174"><ele>245.6</ele><time>2026-05-01T12:42:26Z</time></trkpt><trkpt lat="42.238192523766415" lon="14.1881486775225"><ele>245.0</ele><time>2026-05-01T12:42:27Z</time></trkpt><trkpt lat="42.238264645533405" lon="14.188079786542989"><ele>244.66666666666669</ele><time>2026-05-01T12:42:28Z</time></trkpt><trkpt lat="42.238322699190505" lon="14.187996577846029"><ele>244.33333333333334</ele><time>2026-05-01T12:42:29Z</time></trkpt><trkpt lat="42.23835750189746" lon="14.187902935012245"><ele>244.0</ele><time>2026-05-01T12:42:30Z</time></trkpt><trkpt lat="42.23836218075179" lon="14.187795083522852"><ele>243.66666666666669</ele><time>2026-05-01T12:42:31Z</time></trkpt><trkpt lat="42.238356129085474" lon="14.187691451524383"><ele>243.33333333333334</ele><time>2026-05-01T12:42:32Z</time></trkpt><trkpt lat="42.23834792696317" lon="14.187563079335257"><ele>243.0</ele><time>2026-05-01T12:42:34Z</time></trkpt><trkpt lat="42.23837796312419" lon="14.187442379426965"><ele>243.0</ele><time>2026-05-01T12:42:36Z</time></trkpt><trkpt lat="42.2384235028749" lon="14.18738268773057"><ele>243.0</ele><time>2026-05-01T12:42:37Z</time></trkpt><trkpt lat="42.23848925679503" lon="14.187335586785965"><ele>243.0</ele><time>2026-05-01T12:42:38Z</time></trkpt><trkpt lat="42.23857708065847" lon="14.187298701828647"><ele>243.0</ele><time>2026-05-01T12:42:39Z</time></trkpt><trkpt lat="42.238689483417" lon="14.18726182911874"><ele>243.0</ele><time>2026-05-01T12:42:40Z</time></trkpt><trkpt lat="42.23880462976493" lon="14.187239934313121"><ele>243.8</ele><time>2026-05-01T12:42:41Z</time></trkpt><trkpt lat="42.23889491656854" lon="14.187215895623956"><ele>244.60000000000002</ele><time>2026-05-01T12:42:42Z</time></trkpt><trkpt lat="42.238953915679005" lon="14.18717424671681"><ele>245.39999999999998</ele><time>2026-05-01T12:42:43Z</time></trkpt><trkpt lat="42.23900981462312" lon="14.18707637599658"><ele>246.2</ele><time>2026-05-01T12:42:44Z</time></trkpt><trkpt lat="42.23906022297303" lon="14.186948401634698"><ele>247.0</ele><time>2026-05-01T12:42:45Z</time></trkpt><trkpt lat="42.23911922948233" lon="14.186798174183973"><ele>247.5</ele><time>2026-05-01T12:42:46Z</time></trkpt><trkpt lat="42.23917462731631" lon="14.186641459137608"><ele>248.0</ele><time>2026-05-01T12:42:47Z</time></trkpt><trkpt lat="42.2392281796574" lon="14.18651465918966"><ele>248.5</ele><time>2026-05-01T12:42:48Z</time></trkpt><trkpt lat="42.23928255287858" lon="14.186417170397828"><ele>249.0</ele><time>2026-05-01T12:42:49Z</time></trkpt><trkpt lat="42.23938391641373" lon="14.186254640262014"><ele>250.2</ele><time>2026-05-01T12:42:51Z</time></trkpt><trkpt lat="42.23946454152769" lon="14.18617608127863"><ele>251.39999999999998</ele><time>2026-05-01T12:42:52Z</time></trkpt><trkpt lat="42.239551600763825" lon="14.186074461480072"><ele>252.6</ele><time>2026-05-01T12:42:53Z</time></trkpt><trkpt lat="42.23964688414802" lon="14.18598914871306"><ele>253.8</ele><time>2026-05-01T12:42:54Z</time></trkpt><trkpt lat="42.23970719001704" lon="14.18591382332611"><ele>255.0</ele><time>2026-05-01T12:42:55Z</time></trkpt><trkpt lat="42.239761887485415" lon="14.185777541059702"><ele>254.6</ele><time>2026-05-01T12:42:56Z</time></trkpt><trkpt lat="42.23983495098675" lon="14.185656394695451"><ele>254.2</ele><time>2026-05-01T12:42:57Z</time></trkpt><trkpt lat="42.23987938187759" lon="14.18554912897383"><ele>253.8</ele><time>2026-05-01T12:42:58Z</time></trkpt><trkpt lat="42.23991359253289" lon="14.185455491075125"><ele>253.4</ele><time>2026-05-01T12:42:59Z</time></trkpt><trkpt lat="42.23995467938833" lon="14.185353477961423"><ele>253.0</ele><time>2026-05-01T12:43:00Z</time></trkpt><trkpt lat="42.240027966103874" lon="14.185242652857045"><ele>253.0</ele><time>2026-05-01T12:43:01Z</time></trkpt><trkpt lat="42.24012239026284" lon="14.185147234028753"><ele>253.0</ele><time>2026-05-01T12:43:02Z</time></trkpt><trkpt lat="42.2402154200183" lon="14.185066633520217"><ele>253.0</ele><time>2026-05-01T12:43:03Z</time></trkpt><trkpt lat="42.240295473851866" lon="14.184980472496507"><ele>253.0</ele><time>2026-05-01T12:43:04Z</time></trkpt><trkpt lat="42.24036200940992" lon="14.18488976190307"><ele>253.0</ele><time>2026-05-01T12:43:05Z</time></trkpt><trkpt lat="42.240418929220425" lon="14.1848155953606"><ele>252.99999999999997</ele><time>2026-05-01T12:43:06Z</time></trkpt><trkpt lat="42.24047017409504" lon="14.184755216464417"><ele>253.0</ele><time>2026-05-01T12:43:07Z</time></trkpt><trkpt lat="42.24056589830977" lon="14.184688011625616"><ele>253.0</ele><time>2026-05-01T12:43:09Z</time></trkpt><trkpt lat="42.24062930384079" lon="14.184670625894302"><ele>253.0</ele><time>2026-05-01T12:43:13Z</time></trkpt><trkpt lat="42.2406902780823" lon="14.184736798177704"><ele>252.99999999999997</ele><time>2026-05-01T12:43:17Z</time></trkpt><trkpt lat="42.240797731975235" lon="14.184812259930236"><ele>253.0</ele><time>2026-05-01T12:43:19Z</time></trkpt><trkpt lat="42.2408589648182" lon="14.184848036410315"><ele>252.2</ele><time>2026-05-01T12:43:20Z</time></trkpt><trkpt lat="42.24092508015796" lon="14.184896494533499"><ele>251.4</ele><time>2026-05-01T12:43:21Z</time></trkpt><trkpt lat="42.24101688898335" lon="14.184963143419623"><ele>250.59999999999997</ele><time>2026-05-01T12:43:22Z</time></trkpt><trkpt lat="42.24113449102829" lon="14.185042645933217"><ele>249.79999999999998</ele><time>2026-05-01T12:43:23Z</time></trkpt><trkpt lat="42.241234694023014" lon="14.185098390971719"><ele>249.0</ele><time>2026-05-01T12:43:24Z</time></trkpt><trkpt lat="42.24129533469642" lon="14.185133243918111"><ele>249.0</ele><time>2026-05-01T12:43:25Z</time></trkpt><trkpt lat="42.24136654551527" lon="14.185179288843491"><ele>249.0</ele><time>2026-05-01T12:43:26Z</time></trkpt><trkpt lat="42.241450248392" lon="14.185198019504881"><ele>249.0</ele><time>2026-05-01T12:43:27Z</time></trkpt><trkpt lat="42.24153902484693" lon="14.185184295812133"><ele>249.0</ele><time>2026-05-01T12:43:28Z</time></trkpt><trkpt lat="42.241617914999004" lon="14.185130494892302"><ele>249.0</ele><time>2026-05-01T12:43:29Z</time></trkpt><trkpt lat="42.241685823132414" lon="14.18504334231821"><ele>249.0</ele><time>2026-05-01T12:43:30Z</time></trkpt><trkpt lat="42.24173706213194" lon="14.184948880577657"><ele>248.39999999999998</ele><time>2026-05-01T12:43:31Z</time></trkpt><trkpt lat="42.24179537209429" lon="14.184866535855877"><ele>247.79999999999998</ele><time>2026-05-01T12:43:32Z</time></trkpt><trkpt lat="42.24186950947578" lon="14.184779505695543"><ele>247.20000000000002</ele><time>2026-05-01T12:43:33Z</time></trkpt><trkpt lat="42.241942139441775" lon="14.184687274539112"><ele>246.60000000000002</ele><time>2026-05-01T12:43:34Z</time></trkpt><trkpt lat="42.24199719603773" lon="14.18457415628111"><ele>246.0</ele><time>2026-05-01T12:43:35Z</time></trkpt><trkpt lat="42.242022460918264" lon="14.184422868415846"><ele>246.0</ele><time>2026-05-01T12:43:36Z</time></trkpt><trkpt lat="42.24202665432562" lon="14.184257334215815"><ele>246.00000000000003</ele><time>2026-05-01T12:43:37Z</time></trkpt><trkpt lat="42.24201551305938" lon="14.184120671285825"><ele>246.00000000000003</ele><time>2026-05-01T12:43:38Z</time></trkpt><trkpt lat="42.242028199807905" lon="14.184010130045515"><ele>246.0</ele><time>2026-05-01T12:43:39Z</time></trkpt><trkpt lat="42.242057422730724" lon="14.183902871286685"><ele>246.0</ele><time>2026-05-01T12:43:40Z</time></trkpt><trkpt lat="42.24210621630127" lon="14.183787658235417"><ele>246.0</ele><time>2026-05-01T12:43:41Z</time></trkpt><trkpt lat="42.24217292829037" lon="14.183670723598244"><ele>246.0</ele><time>2026-05-01T12:43:42Z</time></trkpt><trkpt lat="42.242250823336654" lon="14.183541700908298"><ele>246.0</ele><time>2026-05-01T12:43:43Z</time></trkpt><trkpt lat="42.24232680539632" lon="14.183408888424612"><ele>246.0</ele><time>2026-05-01T12:43:44Z</time></trkpt><trkpt lat="42.24241584646727" lon="14.183310061852824"><ele>246.25</ele><time>2026-05-01T12:43:45Z</time></trkpt><trkpt lat="42.24253960903679" lon="14.183286257049456"><ele>246.5</ele><time>2026-05-01T12:43:46Z</time></trkpt><trkpt lat="42.24266668340992" lon="14.183305126796649"><ele>246.75</ele><time>2026-05-01T12:43:47Z</time></trkpt><trkpt lat="42.24278882931462" lon="14.183331181651958"><ele>247.0</ele><time>2026-05-01T12:43:48.001Z</time></trkpt><trkpt lat="42.24289960174821" lon="14.1833743198459"><ele>246.99999999999997</ele><time>2026-05-01T12:43:49.001Z</time></trkpt><trkpt lat="42.24297155254148" lon="14.183390448913135"><ele>247.0</ele><time>2026-05-01T12:43:50.001Z</time></trkpt><trkpt lat="42.24303982542702" lon="14.18341102797677"><ele>247.0</ele><time>2026-05-01T12:43:51.001Z</time></trkpt><trkpt lat="42.243106936461984" lon="14.183430096735536"><ele>247.0</ele><time>2026-05-01T12:43:52.001Z</time></trkpt><trkpt lat="42.24317007638444" lon="14.183433917448598"><ele>246.99999999999997</ele><time>2026-05-01T12:43:53.001Z</time></trkpt><trkpt lat="42.24328680332054" lon="14.183384585963083"><ele>247.0</ele><time>2026-05-01T12:43:55.001Z</time></trkpt><trkpt lat="42.24332166205364" lon="14.183301040197899"><ele>247.0</ele><time>2026-05-01T12:43:56.001Z</time></trkpt><trkpt lat="42.24330550834684" lon="14.183195781376627"><ele>247.0</ele><time>2026-05-01T12:43:58.001Z</time></trkpt><trkpt lat="42.243190579332826" lon="14.18308950521414"><ele>247.0</ele><time>2026-05-01T12:44:00.001Z</time></trkpt><trkpt lat="42.24307736378829" lon="14.183036400952247"><ele>247.0</ele><time>2026-05-01T12:44:01.001Z</time></trkpt><trkpt lat="42.24296421024106" lon="14.182986254591636"><ele>247.5</ele><time>2026-05-01T12:44:02.001Z</time></trkpt><trkpt lat="42.24285907770397" lon="14.182943754155493"><ele>248.0</ele><time>2026-05-01T12:44:03.001Z</time></trkpt><trkpt lat="42.24276671876632" lon="14.18289513730511"><ele>248.5</ele><time>2026-05-01T12:44:04.001Z</time></trkpt><trkpt lat="42.24266552879952" lon="14.18282974944645"><ele>249.0</ele><time>2026-05-01T12:44:05.001Z</time></trkpt><trkpt lat="42.242553538390524" lon="14.182736975359912"><ele>249.0</ele><time>2026-05-01T12:44:06.001Z</time></trkpt><trkpt lat="42.24245883360873" lon="14.182631178967554"><ele>248.99999999999997</ele><time>2026-05-01T12:44:07Z</time></trkpt><trkpt lat="42.242400577939335" lon="14.18254207026036"><ele>248.99999999999997</ele><time>2026-05-01T12:44:08Z</time></trkpt><trkpt lat="42.24233318064974" lon="14.18245465323955"><ele>249.0</ele><time>2026-05-01T12:44:10Z</time></trkpt><trkpt lat="42.24236276737079" lon="14.18232559496812"><ele>249.0</ele><time>2026-05-01T12:44:12Z</time></trkpt><trkpt lat="42.2424255709524" lon="14.182274940630466"><ele>249.28571428571428</ele><time>2026-05-01T12:44:13Z</time></trkpt><trkpt lat="42.2425097087814" lon="14.182249160129903"><ele>249.57142857142856</ele><time>2026-05-01T12:44:14Z</time></trkpt><trkpt lat="42.24257826096104" lon="14.182244610468796"><ele>249.85714285714283</ele><time>2026-05-01T12:44:15Z</time></trkpt><trkpt lat="42.24264656412064" lon="14.182227713479424"><ele>250.1428571428571</ele><time>2026-05-01T12:44:16Z</time></trkpt><trkpt lat="42.24271726224416" lon="14.182184580982245"><ele>250.42857142857142</ele><time>2026-05-01T12:44:17Z</time></trkpt><trkpt lat="42.24277795728547" lon="14.18213195677636"><ele>250.71428571428567</ele><time>2026-05-01T12:44:18Z</time></trkpt><trkpt lat="42.24283720533261" lon="14.182088276813827"><ele>250.99999999999997</ele><time>2026-05-01T12:44:19Z</time></trkpt><trkpt lat="42.24289674337641" lon="14.182054682333781"><ele>251.0</ele><time>2026-05-01T12:44:20Z</time></trkpt><trkpt lat="42.24298603126935" lon="14.181992113956026"><ele>251.00000000000003</ele><time>2026-05-01T12:44:22Z</time></trkpt><trkpt lat="42.24309014538005" lon="14.181946823904763"><ele>251.00000000000003</ele><time>2026-05-01T12:44:24Z</time></trkpt><trkpt lat="42.24316155457744" lon="14.181929703750091"><ele>251.0</ele><time>2026-05-01T12:44:25Z</time></trkpt><trkpt lat="42.24324632199685" lon="14.181891147293104"><ele>251.0</ele><time>2026-05-01T12:44:26Z</time></trkpt><trkpt lat="42.24334285429054" lon="14.18183034397008"><ele>250.0</ele><time>2026-05-01T12:44:27Z</time></trkpt><trkpt lat="42.2434314143167" lon="14.181772827047714"><ele>249.00000000000003</ele><time>2026-05-01T12:44:28Z</time></trkpt><trkpt lat="42.243519568079044" lon="14.18171855064551"><ele>248.00000000000003</ele><time>2026-05-01T12:44:29Z</time></trkpt><trkpt lat="42.24362586532137" lon="14.181655814152924"><ele>247.0</ele><time>2026-05-01T12:44:30Z</time></trkpt><trkpt lat="42.24373310105798" lon="14.181603904644138"><ele>246.0</ele><time>2026-05-01T12:44:31Z</time></trkpt><trkpt lat="42.243845801337244" lon="14.181549118015482"><ele>244.75</ele><time>2026-05-01T12:44:32Z</time></trkpt><trkpt lat="42.24397994867889" lon="14.181481228436704"><ele>243.5</ele><time>2026-05-01T12:44:33Z</time></trkpt><trkpt lat="42.24410888284176" lon="14.18140648266151"><ele>242.25</ele><time>2026-05-01T12:44:34Z</time></trkpt><trkpt lat="42.24422656825376" lon="14.181336595911318"><ele>241.0</ele><time>2026-05-01T12:44:35Z</time></trkpt><trkpt lat="42.24433274282253" lon="14.181268167448986"><ele>241.0</ele><time>2026-05-01T12:44:36Z</time></trkpt><trkpt lat="42.24444495423105" lon="14.18119390567559"><ele>241.0</ele><time>2026-05-01T12:44:37Z</time></trkpt><trkpt lat="42.24456179051608" lon="14.181119747246107"><ele>241.0</ele><time>2026-05-01T12:44:38Z</time></trkpt><trkpt lat="42.24466373766273" lon="14.181060800210055"><ele>241.0</ele><time>2026-05-01T12:44:39Z</time></trkpt><trkpt lat="42.244751510510596" lon="14.18102353991597"><ele>240.49999999999997</ele><time>2026-05-01T12:44:40Z</time></trkpt><trkpt lat="42.24482274081549" lon="14.1810092004176"><ele>240.0</ele><time>2026-05-01T12:44:41Z</time></trkpt><trkpt lat="42.24490827981639" lon="14.181047976077977"><ele>239.5</ele><time>2026-05-01T12:44:45Z</time></trkpt><trkpt lat="42.24497748392646" lon="14.181065368662578"><ele>239.0</ele><time>2026-05-01T12:44:48Z</time></trkpt><trkpt lat="42.24505282607875" lon="14.181124250500133"><ele>238.49999999999997</ele><time>2026-05-01T12:44:52Z</time></trkpt><trkpt lat="42.245134333375276" lon="14.18120076967321"><ele>238.0</ele><time>2026-05-01T12:44:54Z</time></trkpt><trkpt lat="42.245212830921155" lon="14.181276355470029"><ele>238.0</ele><time>2026-05-01T12:44:56Z</time></trkpt><trkpt lat="42.24527769516873" lon="14.181327880146565"><ele>238.0</ele><time>2026-05-01T12:44:58Z</time></trkpt><trkpt lat="42.245399119406066" lon="14.1814213873611"><ele>238.0</ele><time>2026-05-01T12:45:00Z</time></trkpt><trkpt lat="42.24549161937255" lon="14.181470562367943"><ele>238.0</ele><time>2026-05-01T12:45:01Z</time></trkpt><trkpt lat="42.24559646883368" lon="14.181506144774675"><ele>238.0</ele><time>2026-05-01T12:45:02Z</time></trkpt><trkpt lat="42.245690278200506" lon="14.181542092433654"><ele>237.8</ele><time>2026-05-01T12:45:03Z</time></trkpt><trkpt lat="42.24577704679989" lon="14.181597519428346"><ele>237.60000000000002</ele><time>2026-05-01T12:45:04Z</time></trkpt><trkpt lat="42.24585851604495" lon="14.181668428174273"><ele>237.39999999999998</ele><time>2026-05-01T12:45:05Z</time></trkpt><trkpt lat="42.24594927490077" lon="14.181752536369775"><ele>237.2</ele><time>2026-05-01T12:45:06Z</time></trkpt><trkpt lat="42.24604248968714" lon="14.181826291392806"><ele>237.0</ele><time>2026-05-01T12:45:07Z</time></trkpt><trkpt lat="42.2461487146917" lon="14.181882564845997"><ele>237.0</ele><time>2026-05-01T12:45:08Z</time></trkpt><trkpt lat="42.24627674321082" lon="14.181910392101381"><ele>237.0</ele><time>2026-05-01T12:45:09Z</time></trkpt><trkpt lat="42.246395338726" lon="14.181913317031075"><ele>237.0</ele><time>2026-05-01T12:45:10Z</time></trkpt><trkpt lat="42.246514844078106" lon="14.18190913600201"><ele>237.0</ele><time>2026-05-01T12:45:11Z</time></trkpt><trkpt lat="42.246630392240796" lon="14.181905465950384"><ele>236.0</ele><time>2026-05-01T12:45:12Z</time></trkpt><trkpt lat="42.24674197477014" lon="14.181917831182378"><ele>235.0</ele><time>2026-05-01T12:45:13Z</time></trkpt><trkpt lat="42.24685231769415" lon="14.181951701354066"><ele>234.0</ele><time>2026-05-01T12:45:14Z</time></trkpt><trkpt lat="42.2469533832387" lon="14.182000066657485"><ele>233.0</ele><time>2026-05-01T12:45:15Z</time></trkpt><trkpt lat="42.24704637799445" lon="14.182055126153523"><ele>232.0</ele><time>2026-05-01T12:45:16Z</time></trkpt><trkpt lat="42.24713809347081" lon="14.182119662337808"><ele>232.0</ele><time>2026-05-01T12:45:17Z</time></trkpt><trkpt lat="42.247219598977985" lon="14.182201999979226"><ele>232.0</ele><time>2026-05-01T12:45:18Z</time></trkpt><trkpt lat="42.24728531406881" lon="14.182292125785812"><ele>232.0</ele><time>2026-05-01T12:45:19Z</time></trkpt><trkpt lat="42.247336901885966" lon="14.182391859316398"><ele>232.0</ele><time>2026-05-01T12:45:20Z</time></trkpt><trkpt lat="42.24737949170284" lon="14.182497110441675"><ele>232.0</ele><time>2026-05-01T12:45:21Z</time></trkpt><trkpt lat="42.24741076700083" lon="14.182603242107863"><ele>231.99999999999997</ele><time>2026-05-01T12:45:22Z</time></trkpt><trkpt lat="42.247432796649214" lon="14.18270460862581"><ele>232.0</ele><time>2026-05-01T12:45:23Z</time></trkpt><trkpt lat="42.24747975941327" lon="14.182786843657222"><ele>232.0</ele><time>2026-05-01T12:45:24Z</time></trkpt><trkpt lat="42.247557435101676" lon="14.182861359328259"><ele>232.0</ele><time>2026-05-01T12:45:25Z</time></trkpt><trkpt lat="42.24763148837725" lon="14.182923561608906"><ele>231.99999999999997</ele><time>2026-05-01T12:45:26Z</time></trkpt><trkpt lat="42.24770281214953" lon="14.182974780430017"><ele>232.0</ele><time>2026-05-01T12:45:27Z</time></trkpt><trkpt lat="42.24778165425721" lon="14.183032381725273"><ele>231.99999999999997</ele><time>2026-05-01T12:45:28Z</time></trkpt><trkpt lat="42.247861201665266" lon="14.18309654050642"><ele>232.0</ele><time>2026-05-01T12:45:29Z</time></trkpt><trkpt lat="42.24792552038638" lon="14.18318580619023"><ele>232.0</ele><time>2026-05-01T12:45:30Z</time></trkpt><trkpt lat="42.24797573865649" lon="14.183290436748035"><ele>232.0</ele><time>2026-05-01T12:45:31Z</time></trkpt><trkpt lat="42.248013933251315" lon="14.183390914752191"><ele>231.99999999999997</ele><time>2026-05-01T12:45:32Z</time></trkpt><trkpt lat="42.24804125532147" lon="14.18348260802764"><ele>232.0</ele><time>2026-05-01T12:45:33Z</time></trkpt><trkpt lat="42.24805732311917" lon="14.18357264120804"><ele>232.33333333333331</ele><time>2026-05-01T12:45:34Z</time></trkpt><trkpt lat="42.248069119782585" lon="14.183672604369756"><ele>232.66666666666666</ele><time>2026-05-01T12:45:35Z</time></trkpt><trkpt lat="42.248052240082316" lon="14.183818400971111"><ele>233.0</ele><time>2026-05-01T12:45:37Z</time></trkpt><trkpt lat="42.24807550760813" lon="14.18390811622736"><ele>233.33333333333331</ele><time>2026-05-01T12:45:39Z</time></trkpt><trkpt lat="42.24815950649959" lon="14.183887576052594"><ele>233.66666666666666</ele><time>2026-05-01T12:45:41Z</time></trkpt><trkpt lat="42.248205269349" lon="14.183767414964226"><ele>234.0</ele><time>2026-05-01T12:45:42Z</time></trkpt><trkpt lat="42.24823773704666" lon="14.183635671553338"><ele>232.39999999999998</ele><time>2026-05-01T12:45:43Z</time></trkpt><trkpt lat="42.24828722919332" lon="14.183514924044438"><ele>230.79999999999998</ele><time>2026-05-01T12:45:44Z</time></trkpt><trkpt lat="42.248352398108835" lon="14.183403853295822"><ele>229.20000000000002</ele><time>2026-05-01T12:45:45Z</time></trkpt><trkpt lat="42.248444007992596" lon="14.18331039312374"><ele>227.60000000000002</ele><time>2026-05-01T12:45:46Z</time></trkpt><trkpt lat="42.248550206611036" lon="14.18324854802184"><ele>226.0</ele><time>2026-05-01T12:45:47Z</time></trkpt><trkpt lat="42.24866584559282" lon="14.183217597527753"><ele>226.0</ele><time>2026-05-01T12:45:48Z</time></trkpt><trkpt lat="42.2487840495341" lon="14.18320828119411"><ele>226.0</ele><time>2026-05-01T12:45:49Z</time></trkpt><trkpt lat="42.24888926813954" lon="14.183238105836905"><ele>226.0</ele><time>2026-05-01T12:45:50Z</time></trkpt><trkpt lat="42.2489833394477" lon="14.183325736953073"><ele>226.0</ele><time>2026-05-01T12:45:51Z</time></trkpt><trkpt lat="42.24906729045571" lon="14.18345323475066"><ele>224.83333333333331</ele><time>2026-05-01T12:45:52Z</time></trkpt><trkpt lat="42.249104429134164" lon="14.183523285863904"><ele>223.66666666666666</ele><time>2026-05-01T12:45:53Z</time></trkpt><trkpt lat="42.249214955862065" lon="14.18354003739812"><ele>222.5</ele><time>2026-05-01T12:45:55Z</time></trkpt><trkpt lat="42.24927462726027" lon="14.18348595470411"><ele>221.33333333333331</ele><time>2026-05-01T12:45:56Z</time></trkpt><trkpt lat="42.24933251337066" lon="14.183406053758818"><ele>220.16666666666666</ele><time>2026-05-01T12:45:57Z</time></trkpt><trkpt lat="42.24939445413763" lon="14.183337661829807"><ele>219.0</ele><time>2026-05-01T12:45:58Z</time></trkpt><trkpt lat="42.24947803737298" lon="14.18326073473733"><ele>218.75</ele><time>2026-05-01T12:45:59Z</time></trkpt><trkpt lat="42.249565013467496" lon="14.183166340645805"><ele>218.5</ele><time>2026-05-01T12:46:00Z</time></trkpt><trkpt lat="42.24965156127932" lon="14.183044658212406"><ele>218.25</ele><time>2026-05-01T12:46:01Z</time></trkpt><trkpt lat="42.249734564230266" lon="14.182900640208034"><ele>218.0</ele><time>2026-05-01T12:46:02Z</time></trkpt><trkpt lat="42.24980222018596" lon="14.182764191653025"><ele>218.0</ele><time>2026-05-01T12:46:03Z</time></trkpt><trkpt lat="42.24986029626022" lon="14.182650785877202"><ele>218.0</ele><time>2026-05-01T12:46:04Z</time></trkpt><trkpt lat="42.24990181183861" lon="14.182560781157395"><ele>218.0</ele><time>2026-05-01T12:46:05Z</time></trkpt><trkpt lat="42.2499529105918" lon="14.18245391215471"><ele>218.0</ele><time>2026-05-01T12:46:06Z</time></trkpt><trkpt lat="42.24999865036083" lon="14.182332918705596"><ele>218.0</ele><time>2026-05-01T12:46:07Z</time></trkpt><trkpt lat="42.25006205776292" lon="14.182226007084813"><ele>219.0</ele><time>2026-05-01T12:46:08Z</time></trkpt><trkpt lat="42.25012261311196" lon="14.182119356772343"><ele>220.0</ele><time>2026-05-01T12:46:09Z</time></trkpt><trkpt lat="42.2501836650255" lon="14.182002336616167"><ele>221.0</ele><time>2026-05-01T12:46:10Z</time></trkpt><trkpt lat="42.25026333668593" lon="14.181899340897484"><ele>222.0</ele><time>2026-05-01T12:46:11Z</time></trkpt><trkpt lat="42.25034701405846" lon="14.1818156026828"><ele>223.0</ele><time>2026-05-01T12:46:12Z</time></trkpt><trkpt lat="42.25043087986128" lon="14.181748318409467"><ele>223.0</ele><time>2026-05-01T12:46:13Z</time></trkpt><trkpt lat="42.25050122652656" lon="14.181704092855467"><ele>223.0</ele><time>2026-05-01T12:46:14Z</time></trkpt><trkpt lat="42.25057604840341" lon="14.181679352368366"><ele>223.0</ele><time>2026-05-01T12:46:15Z</time></trkpt><trkpt lat="42.25064846480167" lon="14.181654951625013"><ele>223.0</ele><time>2026-05-01T12:46:16Z</time></trkpt><trkpt lat="42.2507221810162" lon="14.181624112958364"><ele>223.0</ele><time>2026-05-01T12:46:17Z</time></trkpt><trkpt lat="42.25078772927459" lon="14.181608231927623"><ele>223.0</ele><time>2026-05-01T12:46:19Z</time></trkpt><trkpt lat="42.250727223241256" lon="14.181565807756934"><ele>223.0</ele><time>2026-05-01T12:46:24Z</time></trkpt><trkpt lat="42.25065563571838" lon="14.181625877989523"><ele>223.0</ele><time>2026-05-01T12:46:25Z</time></trkpt><trkpt lat="42.25053106284485" lon="14.181694556181853"><ele>223.0</ele><time>2026-05-01T12:46:26Z</time></trkpt><trkpt lat="42.250382696162966" lon="14.181778133999885"><ele>223.0</ele><time>2026-05-01T12:46:27Z</time></trkpt><trkpt lat="42.250225495212064" lon="14.181878234280616"><ele>223.0</ele><time>2026-05-01T12:46:28Z</time></trkpt><trkpt lat="42.25013063444754" lon="14.182080876928792"><ele>223.0</ele><time>2026-05-01T12:46:29Z</time></trkpt><trkpt lat="42.250039437569725" lon="14.182265070081996"><ele>223.0</ele><time>2026-05-01T12:46:30Z</time></trkpt><trkpt lat="42.24997871813826" lon="14.182447462526145"><ele>222.5</ele><time>2026-05-01T12:46:31Z</time></trkpt><trkpt lat="42.249882905591164" lon="14.182607149431245"><ele>222.0</ele><time>2026-05-01T12:46:32Z</time></trkpt><trkpt lat="42.249805052969954" lon="14.182765777634843"><ele>221.5</ele><time>2026-05-01T12:46:33Z</time></trkpt><trkpt lat="42.249726520575045" lon="14.182904507644118"><ele>221.0</ele><time>2026-05-01T12:46:34Z</time></trkpt><trkpt lat="42.24967091366789" lon="14.18302084592249"><ele>221.0</ele><time>2026-05-01T12:46:35Z</time></trkpt><trkpt lat="42.24962039285852" lon="14.18308237893647"><ele>221.00000000000003</ele><time>2026-05-01T12:46:36Z</time></trkpt><trkpt lat="42.24957149428454" lon="14.18314168147129"><ele>221.00000000000003</ele><time>2026-05-01T12:46:38Z</time></trkpt><trkpt lat="42.2496527662915" lon="14.183118152212183"><ele>221.0</ele><time>2026-05-01T12:46:41Z</time></trkpt><trkpt lat="42.249708311922106" lon="14.182971315663977"><ele>221.0</ele><time>2026-05-01T12:46:43Z</time></trkpt><trkpt lat="42.24980506486389" lon="14.182891958659994"><ele>220.4</ele><time>2026-05-01T12:46:45Z</time></trkpt><trkpt lat="42.2498699009999" lon="14.18283578277487"><ele>219.8</ele><time>2026-05-01T12:46:46Z</time></trkpt><trkpt lat="42.24993712154556" lon="14.182757654890267"><ele>219.20000000000002</ele><time>2026-05-01T12:46:47Z</time></trkpt><trkpt lat="42.250001278711466" lon="14.182643731408442"><ele>218.60000000000002</ele><time>2026-05-01T12:46:48Z</time></trkpt><trkpt lat="42.250061625321045" lon="14.182538825632424"><ele>218.0</ele><time>2026-05-01T12:46:49Z</time></trkpt><trkpt lat="42.250143043231674" lon="14.182409999455492"><ele>219.0</ele><time>2026-05-01T12:46:50Z</time></trkpt><trkpt lat="42.25021808603164" lon="14.182290246338848"><ele>220.0</ele><time>2026-05-01T12:46:51Z</time></trkpt><trkpt lat="42.2502873482224" lon="14.182204379441979"><ele>221.0</ele><time>2026-05-01T12:46:52Z</time></trkpt><trkpt lat="42.2503711801008" lon="14.182125570406559"><ele>222.0</ele><time>2026-05-01T12:46:53Z</time></trkpt><trkpt lat="42.25047684985752" lon="14.18203306436737"><ele>223.0</ele><time>2026-05-01T12:46:54Z</time></trkpt><trkpt lat="42.25058050402433" lon="14.181923703275775"><ele>221.25</ele><time>2026-05-01T12:46:55Z</time></trkpt><trkpt lat="42.250707552921725" lon="14.181808806387892"><ele>219.5</ele><time>2026-05-01T12:46:56Z</time></trkpt><trkpt lat="42.25081988109597" lon="14.181703654070592"><ele>217.75</ele><time>2026-05-01T12:46:57Z</time></trkpt><trkpt lat="42.250945571593654" lon="14.181616285154098"><ele>216.0</ele><time>2026-05-01T12:46:58Z</time></trkpt><trkpt lat="42.25108366747352" lon="14.18154625373137"><ele>217.5</ele><time>2026-05-01T12:46:59Z</time></trkpt><trkpt lat="42.25120530528848" lon="14.181480558057705"><ele>219.0</ele><time>2026-05-01T12:47:00Z</time></trkpt><trkpt lat="42.251314869420284" lon="14.181406592074268"><ele>220.5</ele><time>2026-05-01T12:47:01Z</time></trkpt><trkpt lat="42.251405663595186" lon="14.181332582369482"><ele>222.0</ele><time>2026-05-01T12:47:02Z</time></trkpt><trkpt lat="42.251519259436655" lon="14.181261874335993"><ele>222.5</ele><time>2026-05-01T12:47:03Z</time></trkpt><trkpt lat="42.25164870178009" lon="14.181184040214559"><ele>223.0</ele><time>2026-05-01T12:47:04Z</time></trkpt><trkpt lat="42.251770029151196" lon="14.181120831421211"><ele>223.5</ele><time>2026-05-01T12:47:05Z</time></trkpt><trkpt lat="42.25186074554381" lon="14.181079332275829"><ele>224.0</ele><time>2026-05-01T12:47:06Z</time></trkpt><trkpt lat="42.251943380702265" lon="14.181064609126095"><ele>224.00000000000003</ele><time>2026-05-01T12:47:09Z</time></trkpt><trkpt lat="42.25187111375429" lon="14.181011350180968"><ele>224.0</ele><time>2026-05-01T12:47:14Z</time></trkpt><trkpt lat="42.251790298344666" lon="14.181045205482345"><ele>224.0</ele><time>2026-05-01T12:47:15Z</time></trkpt><trkpt lat="42.25170278841091" lon="14.181122886489591"><ele>224.0</ele><time>2026-05-01T12:47:16Z</time></trkpt><trkpt lat="42.251633035223094" lon="14.181183331953049"><ele>224.00000000000003</ele><time>2026-05-01T12:47:17Z</time></trkpt><trkpt lat="42.251605714830966" lon="14.18128474821403"><ele>224.0</ele><time>2026-05-01T12:47:19Z</time></trkpt><trkpt lat="42.251711335401076" lon="14.181381303926722"><ele>224.0</ele><time>2026-05-01T12:47:21Z</time></trkpt><trkpt lat="42.251793783976595" lon="14.181429722183712"><ele>223.99999999999997</ele><time>2026-05-01T12:47:22Z</time></trkpt><trkpt lat="42.251885248116416" lon="14.181500321486137"><ele>223.99999999999997</ele><time>2026-05-01T12:47:23Z</time></trkpt><trkpt lat="42.25196845251604" lon="14.181592276975506"><ele>224.0</ele><time>2026-05-01T12:47:24Z</time></trkpt><trkpt lat="42.252041672989506" lon="14.181689397088913"><ele>224.0</ele><time>2026-05-01T12:47:25Z</time></trkpt><trkpt lat="42.25212085329242" lon="14.181775980437015"><ele>221.5</ele><time>2026-05-01T12:47:26Z</time></trkpt><trkpt lat="42.252217553679415" lon="14.18185241893557"><ele>219.0</ele><time>2026-05-01T12:47:27Z</time></trkpt><trkpt lat="42.252337030337785" lon="14.181914073367219"><ele>216.5</ele><time>2026-05-01T12:47:28Z</time></trkpt><trkpt lat="42.25246298009013" lon="14.181933687575624"><ele>214.0</ele><time>2026-05-01T12:47:29Z</time></trkpt><trkpt lat="42.2526020406074" lon="14.181911444189394"><ele>213.66666666666666</ele><time>2026-05-01T12:47:30Z</time></trkpt><trkpt lat="42.25275589809714" lon="14.181873459321332"><ele>213.33333333333331</ele><time>2026-05-01T12:47:31Z</time></trkpt><trkpt lat="42.25290448005103" lon="14.181836273929914"><ele>213.0</ele><time>2026-05-01T12:47:32Z</time></trkpt><trkpt lat="42.25306482631663" lon="14.181800634735168"><ele>214.5</ele><time>2026-05-01T12:47:33Z</time></trkpt><trkpt lat="42.253225721474024" lon="14.181773693213263"><ele>216.0</ele><time>2026-05-01T12:47:34Z</time></trkpt><trkpt lat="42.253367517527245" lon="14.181768378548488"><ele>217.5</ele><time>2026-05-01T12:47:35Z</time></trkpt><trkpt lat="42.25350577873485" lon="14.181781163647116"><ele>219.0</ele><time>2026-05-01T12:47:36Z</time></trkpt><trkpt lat="42.25363998634205" lon="14.181842342045526"><ele>219.0</ele><time>2026-05-01T12:47:37Z</time></trkpt><trkpt lat="42.25376572867123" lon="14.181946641014969"><ele>219.0</ele><time>2026-05-01T12:47:38Z</time></trkpt><trkpt lat="42.25390007205904" lon="14.182078853718295"><ele>219.0</ele><time>2026-05-01T12:47:39Z</time></trkpt><trkpt lat="42.25403920268594" lon="14.182202319674063"><ele>219.33333333333331</ele><time>2026-05-01T12:47:40Z</time></trkpt><trkpt lat="42.254190261209175" lon="14.182315396455085"><ele>219.66666666666666</ele><time>2026-05-01T12:47:41Z</time></trkpt><trkpt lat="42.25432296906589" lon="14.182415701509518"><ele>220.0</ele><time>2026-05-01T12:47:42Z</time></trkpt><trkpt lat="42.25447009172568" lon="14.182530783791913"><ele>220.0</ele><time>2026-05-01T12:47:43Z</time></trkpt><trkpt lat="42.254612471158424" lon="14.182655090034594"><ele>220.0</ele><time>2026-05-01T12:47:44Z</time></trkpt><trkpt lat="42.254739826735005" lon="14.182788903151826"><ele>220.0</ele><time>2026-05-01T12:47:45Z</time></trkpt><trkpt lat="42.25485840625587" lon="14.182948418734473"><ele>220.33333333333331</ele><time>2026-05-01T12:47:46Z</time></trkpt><trkpt lat="42.25496947487676" lon="14.183120363808163"><ele>220.66666666666669</ele><time>2026-05-01T12:47:47Z</time></trkpt><trkpt lat="42.255089550022596" lon="14.183299421080479"><ele>221.0</ele><time>2026-05-01T12:47:48Z</time></trkpt><trkpt lat="42.25522461633035" lon="14.183483290952857"><ele>221.0</ele><time>2026-05-01T12:47:49Z</time></trkpt><trkpt lat="42.25535912911252" lon="14.183658940852455"><ele>221.0</ele><time>2026-05-01T12:47:50Z</time></trkpt><trkpt lat="42.255486628314934" lon="14.183824208889158"><ele>221.0</ele><time>2026-05-01T12:47:51Z</time></trkpt><trkpt lat="42.255607068844775" lon="14.18398746896186"><ele>221.0</ele><time>2026-05-01T12:47:52Z</time></trkpt><trkpt lat="42.255713957283135" lon="14.184162969268396"><ele>221.0</ele><time>2026-05-01T12:47:53Z</time></trkpt><trkpt lat="42.2558051982916" lon="14.184332710518289"><ele>221.0</ele><time>2026-05-01T12:47:54Z</time></trkpt><trkpt lat="42.25589946583496" lon="14.18447093283322"><ele>221.0</ele><time>2026-05-01T12:47:55Z</time></trkpt><trkpt lat="42.2560013688163" lon="14.184578647761588"><ele>221.0</ele><time>2026-05-01T12:47:56Z</time></trkpt><trkpt lat="42.25612402664425" lon="14.184655783863128"><ele>221.0</ele><time>2026-05-01T12:47:57Z</time></trkpt><trkpt lat="42.2562599629042" lon="14.184734933675163"><ele>221.0</ele><time>2026-05-01T12:47:58Z</time></trkpt><trkpt lat="42.25638239830837" lon="14.184828997069934"><ele>221.0</ele><time>2026-05-01T12:47:59Z</time></trkpt><trkpt lat="42.256486930874246" lon="14.184922732043885"><ele>221.00000000000003</ele><time>2026-05-01T12:48:00Z</time></trkpt><trkpt lat="42.25656248500163" lon="14.1850005042293"><ele>221.00000000000003</ele><time>2026-05-01T12:48:01Z</time></trkpt><trkpt lat="42.256650850734324" lon="14.185080948971416"><ele>221.0</ele><time>2026-05-01T12:48:03Z</time></trkpt><trkpt lat="42.256729013450325" lon="14.18504430963188"><ele>221.0</ele><time>2026-05-01T12:48:05Z</time></trkpt><trkpt lat="42.256793991250554" lon="14.184906480697718"><ele>222.20000000000002</ele><time>2026-05-01T12:48:07Z</time></trkpt><trkpt lat="42.25684041160746" lon="14.18481024716943"><ele>223.40000000000003</ele><time>2026-05-01T12:48:08Z</time></trkpt><trkpt lat="42.2569042413441" lon="14.184706745329311"><ele>224.6</ele><time>2026-05-01T12:48:09Z</time></trkpt><trkpt lat="42.25698215546286" lon="14.184624933621375"><ele>225.8</ele><time>2026-05-01T12:48:10Z</time></trkpt><trkpt lat="42.25707815823192" lon="14.184560803421151"><ele>227.0</ele><time>2026-05-01T12:48:11Z</time></trkpt><trkpt lat="42.257184540553574" lon="14.184495253326496"><ele>227.39999999999998</ele><time>2026-05-01T12:48:12Z</time></trkpt><trkpt lat="42.2572904776463" lon="14.184413480199542"><ele>227.79999999999998</ele><time>2026-05-01T12:48:13Z</time></trkpt><trkpt lat="42.25736820910245" lon="14.184333840353778"><ele>228.2</ele><time>2026-05-01T12:48:14Z</time></trkpt><trkpt lat="42.25744908368455" lon="14.184243759687497"><ele>228.6</ele><time>2026-05-01T12:48:15Z</time></trkpt><trkpt lat="42.25752039967346" lon="14.184155924303841"><ele>229.0</ele><time>2026-05-01T12:48:16Z</time></trkpt><trkpt lat="42.25754970667094" lon="14.18403638091801"><ele>230.2</ele><time>2026-05-01T12:48:18Z</time></trkpt><trkpt lat="42.25758194838534" lon="14.183917821463632"><ele>231.39999999999998</ele><time>2026-05-01T12:48:19Z</time></trkpt><trkpt lat="42.25760000466342" lon="14.183796666991434"><ele>232.6</ele><time>2026-05-01T12:48:20Z</time></trkpt><trkpt lat="42.257593031710506" lon="14.18366621300688"><ele>233.8</ele><time>2026-05-01T12:48:21Z</time></trkpt><trkpt lat="42.25756086557239" lon="14.183522488797871"><ele>235.0</ele><time>2026-05-01T12:48:22Z</time></trkpt><trkpt lat="42.25753099646935" lon="14.183372483157287"><ele>234.99999999999997</ele><time>2026-05-01T12:48:23Z</time></trkpt><trkpt lat="42.257506215646025" lon="14.183269133347151"><ele>235.0</ele><time>2026-05-01T12:48:24Z</time></trkpt><trkpt lat="42.257487552177615" lon="14.183138907425159"><ele>235.0</ele><time>2026-05-01T12:48:25Z</time></trkpt><trkpt lat="42.25746698778334" lon="14.183027406786792"><ele>235.0</ele><time>2026-05-01T12:48:26Z</time></trkpt><trkpt lat="42.25745416176779" lon="14.182941120314416"><ele>234.99999999999997</ele><time>2026-05-01T12:48:27Z</time></trkpt><trkpt lat="42.25737505239469" lon="14.182843844219983"><ele>235.0</ele><time>2026-05-01T12:48:29Z</time></trkpt><trkpt lat="42.25731846785363" lon="14.18280372424435"><ele>237.6</ele><time>2026-05-01T12:48:30Z</time></trkpt><trkpt lat="42.257239061418915" lon="14.182759419221535"><ele>240.2</ele><time>2026-05-01T12:48:31Z</time></trkpt><trkpt lat="42.25716194392913" lon="14.182737941729968"><ele>242.8</ele><time>2026-05-01T12:48:32Z</time></trkpt><trkpt lat="42.25708633640816" lon="14.182715429485715"><ele>245.4</ele><time>2026-05-01T12:48:33Z</time></trkpt><trkpt lat="42.25701138113871" lon="14.182617364051994"><ele>248.0</ele><time>2026-05-01T12:48:35Z</time></trkpt><trkpt lat="42.257057493689096" lon="14.182478078736548"><ele>248.00000000000003</ele><time>2026-05-01T12:48:37Z</time></trkpt><trkpt lat="42.25707288126112" lon="14.18236794824506"><ele>248.0</ele><time>2026-05-01T12:48:38Z</time></trkpt><trkpt lat="42.257074095586894" lon="14.182262979034858"><ele>248.0</ele><time>2026-05-01T12:48:39Z</time></trkpt><trkpt lat="42.25711499332747" lon="14.182153956297293"><ele>248.0</ele><time>2026-05-01T12:48:41Z</time></trkpt><trkpt lat="42.2571869671652" lon="14.182105399742035"><ele>248.00000000000003</ele><time>2026-05-01T12:48:42Z</time></trkpt><trkpt lat="42.257272193602525" lon="14.18199951886718"><ele>248.0</ele><time>2026-05-01T12:48:43Z</time></trkpt><trkpt lat="42.25733552559318" lon="14.181858639306258"><ele>249.75</ele><time>2026-05-01T12:48:44Z</time></trkpt><trkpt lat="42.25738399801879" lon="14.181711748169107"><ele>251.5</ele><time>2026-05-01T12:48:45Z</time></trkpt><trkpt lat="42.257418359594716" lon="14.181558108056159"><ele>253.25</ele><time>2026-05-01T12:48:46Z</time></trkpt><trkpt lat="42.257456214579356" lon="14.181396569993225"><ele>255.0</ele><time>2026-05-01T12:48:47Z</time></trkpt><trkpt lat="42.257478075637856" lon="14.181282653523073"><ele>256.5</ele><time>2026-05-01T12:48:48Z</time></trkpt><trkpt lat="42.257523451050716" lon="14.181188864416399"><ele>258.0</ele><time>2026-05-01T12:48:49Z</time></trkpt><trkpt lat="42.257585780704154" lon="14.18110710223172"><ele>259.5</ele><time>2026-05-01T12:48:50Z</time></trkpt><trkpt lat="42.257641039663554" lon="14.181007724385474"><ele>261.0</ele><time>2026-05-01T12:48:51Z</time></trkpt><trkpt lat="42.25769418730134" lon="14.180901173328254"><ele>262.5</ele><time>2026-05-01T12:48:52Z</time></trkpt><trkpt lat="42.25774348243711" lon="14.180809245692453"><ele>264.0</ele><time>2026-05-01T12:48:53Z</time></trkpt><trkpt lat="42.25778669696699" lon="14.180718743266459"><ele>266.59999999999997</ele><time>2026-05-01T12:48:54Z</time></trkpt><trkpt lat="42.25782788515845" lon="14.180614678517149"><ele>269.2</ele><time>2026-05-01T12:48:55Z</time></trkpt><trkpt lat="42.25785858816836" lon="14.180481495168346"><ele>271.79999999999995</ele><time>2026-05-01T12:48:56Z</time></trkpt><trkpt lat="42.257874096730575" lon="14.180357902344516"><ele>274.4</ele><time>2026-05-01T12:48:57Z</time></trkpt><trkpt lat="42.25787693748816" lon="14.180216815602156"><ele>277.0</ele><time>2026-05-01T12:48:58Z</time></trkpt><trkpt lat="42.25788541029201" lon="14.180055614493858"><ele>277.0</ele><time>2026-05-01T12:48:59Z</time></trkpt><trkpt lat="42.257900102771735" lon="14.179904656265272"><ele>277.0</ele><time>2026-05-01T12:49:00Z</time></trkpt><trkpt lat="42.25791178100958" lon="14.179747013073191"><ele>277.0</ele><time>2026-05-01T12:49:01Z</time></trkpt><trkpt lat="42.257917399862365" lon="14.17960186731008"><ele>277.0</ele><time>2026-05-01T12:49:02Z</time></trkpt><trkpt lat="42.25790770673474" lon="14.179496706143292"><ele>277.0</ele><time>2026-05-01T12:49:03Z</time></trkpt><trkpt lat="42.2579031824274" lon="14.179391449685653"><ele>278.8333333333333</ele><time>2026-05-01T12:49:04Z</time></trkpt><trkpt lat="42.25790791202508" lon="14.179282682876387"><ele>280.66666666666663</ele><time>2026-05-01T12:49:05Z</time></trkpt><trkpt lat="42.257934719702604" lon="14.17918092576815"><ele>282.5</ele><time>2026-05-01T12:49:06Z</time></trkpt><trkpt lat="42.25796326558395" lon="14.179054487051696"><ele>284.3333333333333</ele><time>2026-05-01T12:49:07Z</time></trkpt><trkpt lat="42.25797640758274" lon="14.178929475828996"><ele>286.1666666666667</ele><time>2026-05-01T12:49:08Z</time></trkpt><trkpt lat="42.25799553698247" lon="14.178817839954576"><ele>288.0</ele><time>2026-05-01T12:49:09Z</time></trkpt><trkpt lat="42.25803568918818" lon="14.178726251341844"><ele>289.6666666666667</ele><time>2026-05-01T12:49:10Z</time></trkpt><trkpt lat="42.25806541612305" lon="14.17861810343688"><ele>291.3333333333333</ele><time>2026-05-01T12:49:11Z</time></trkpt><trkpt lat="42.25807147678261" lon="14.178495706551592"><ele>293.0</ele><time>2026-05-01T12:49:12Z</time></trkpt><trkpt lat="42.25806445063279" lon="14.178401048079461"><ele>294.66666666666663</ele><time>2026-05-01T12:49:13Z</time></trkpt><trkpt lat="42.25808782637876" lon="14.178269133908104"><ele>296.3333333333333</ele><time>2026-05-01T12:49:15Z</time></trkpt><trkpt lat="42.25810549703766" lon="14.178143675733187"><ele>298.0</ele><time>2026-05-01T12:49:17Z</time></trkpt><trkpt lat="42.25810010198072" lon="14.178004865784269"><ele>299.16666666666663</ele><time>2026-05-01T12:49:19Z</time></trkpt><trkpt lat="42.25807611442982" lon="14.177883329262528"><ele>300.3333333333333</ele><time>2026-05-01T12:49:24Z</time></trkpt><trkpt lat="42.25801208539968" lon="14.177838188930483"><ele>301.5</ele><time>2026-05-01T12:49:25Z</time></trkpt><trkpt lat="42.25794479756039" lon="14.177822126222132"><ele>302.6666666666667</ele><time>2026-05-01T12:49:26Z</time></trkpt><trkpt lat="42.25787061296249" lon="14.177740914133981"><ele>303.83333333333337</ele><time>2026-05-01T12:49:28Z</time></trkpt><trkpt lat="42.25776425058389" lon="14.17772271872431"><ele>305.0</ele><time>2026-05-01T12:49:30Z</time></trkpt><trkpt lat="42.2576561327512" lon="14.177774405561404"><ele>305.0</ele><time>2026-05-01T12:49:32Z</time></trkpt><trkpt lat="42.25759281854303" lon="14.177751679188095"><ele>305.0</ele><time>2026-05-01T12:49:33Z</time></trkpt><trkpt lat="42.25753429256059" lon="14.17770952017546"><ele>305.0</ele><time>2026-05-01T12:49:34Z</time></trkpt><trkpt lat="42.257406260236934" lon="14.17772267644887"><ele>305.0</ele><time>2026-05-01T12:49:36Z</time></trkpt><trkpt lat="42.25733898855589" lon="14.177775199710572"><ele>305.0</ele><time>2026-05-01T12:49:37Z</time></trkpt><trkpt lat="42.25727464565538" lon="14.177807748710485"><ele>305.0</ele><time>2026-05-01T12:49:38Z</time></trkpt><trkpt lat="42.2572141967261" lon="14.177843261383504"><ele>306.83333333333337</ele><time>2026-05-01T12:49:39Z</time></trkpt><trkpt lat="42.25716631525761" lon="14.177948180717463"><ele>308.6666666666667</ele><time>2026-05-01T12:49:41Z</time></trkpt><trkpt lat="42.25708197278348" lon="14.177967526073788"><ele>310.5</ele><time>2026-05-01T12:49:43Z</time></trkpt><trkpt lat="42.257046483368796" lon="14.177858749103523"><ele>312.3333333333333</ele><time>2026-05-01T12:49:45Z</time></trkpt><trkpt lat="42.257069518814696" lon="14.177757054116048"><ele>314.16666666666663</ele><time>2026-05-01T12:49:46Z</time></trkpt><trkpt lat="42.25709650906157" lon="14.177621427046848"><ele>316.0</ele><time>2026-05-01T12:49:47Z</time></trkpt><trkpt lat="42.25713329090218" lon="14.177468756964094"><ele>315.8</ele><time>2026-05-01T12:49:48Z</time></trkpt><trkpt lat="42.257174480973404" lon="14.177334344426024"><ele>315.6</ele><time>2026-05-01T12:49:49Z</time></trkpt><trkpt lat="42.25723398825523" lon="14.177230316880387"><ele>315.4</ele><time>2026-05-01T12:49:50Z</time></trkpt><trkpt lat="42.25730688860215" lon="14.17713471334032"><ele>315.2</ele><time>2026-05-01T12:49:51Z</time></trkpt><trkpt lat="42.25736609055591" lon="14.177008844410881"><ele>315.0</ele><time>2026-05-01T12:49:52Z</time></trkpt><trkpt lat="42.25740983788128" lon="14.176884589267386"><ele>315.0</ele><time>2026-05-01T12:49:53Z</time></trkpt><trkpt lat="42.25744296959834" lon="14.176761406964077"><ele>315.0</ele><time>2026-05-01T12:49:54Z</time></trkpt><trkpt lat="42.257472129725855" lon="14.176636583558196"><ele>315.0</ele><time>2026-05-01T12:49:55Z</time></trkpt><trkpt lat="42.25750157127984" lon="14.17651639701415"><ele>315.0</ele><time>2026-05-01T12:49:56Z</time></trkpt><trkpt lat="42.25753546354666" lon="14.176432148438689"><ele>315.0</ele><time>2026-05-01T12:49:57Z</time></trkpt><trkpt lat="42.25757750600522" lon="14.176355269828548"><ele>315.0</ele><time>2026-05-01T12:49:59Z</time></trkpt><trkpt lat="42.257577996469166" lon="14.176240177211454"><ele>316.8</ele><time>2026-05-01T12:50:02Z</time></trkpt><trkpt lat="42.25753366147201" lon="14.176159459428623"><ele>318.6</ele><time>2026-05-01T12:50:04Z</time></trkpt><trkpt lat="42.25743653747083" lon="14.176090933100676"><ele>320.4</ele><time>2026-05-01T12:50:06Z</time></trkpt><trkpt lat="42.257337691462396" lon="14.176003844353943"><ele>322.2</ele><time>2026-05-01T12:50:08Z</time></trkpt><trkpt lat="42.2572681247545" lon="14.175876556265521"><ele>324.0</ele><time>2026-05-01T12:50:10Z</time></trkpt><trkpt lat="42.25724617969724" lon="14.175719193053526"><ele>325.0</ele><time>2026-05-01T12:50:12Z</time></trkpt><trkpt lat="42.25720352945108" lon="14.175561962637385"><ele>326.0</ele><time>2026-05-01T12:50:14Z</time></trkpt><trkpt lat="42.257174554127786" lon="14.175453186225253"><ele>327.0</ele><time>2026-05-01T12:50:16Z</time></trkpt><trkpt lat="42.25716856275228" lon="14.175344013830996"><ele>328.0</ele><time>2026-05-01T12:50:17Z</time></trkpt><trkpt lat="42.257202442843926" lon="14.175206792883955"><ele>329.0</ele><time>2026-05-01T12:50:18Z</time></trkpt><trkpt lat="42.25725786272033" lon="14.175045827333005"><ele>332.33333333333337</ele><time>2026-05-01T12:50:19Z</time></trkpt><trkpt lat="42.25734699296088" lon="14.174817794812476"><ele>335.6666666666667</ele><time>2026-05-01T12:50:20Z</time></trkpt><trkpt lat="42.25744483004729" lon="14.174560249384426"><ele>339.0</ele><time>2026-05-01T12:50:21Z</time></trkpt><trkpt lat="42.257541096156615" lon="14.17433903031908"><ele>339.0</ele><time>2026-05-01T12:50:22Z</time></trkpt><trkpt lat="42.25762761212715" lon="14.174159468271494"><ele>339.0</ele><time>2026-05-01T12:50:23Z</time></trkpt><trkpt lat="42.2577083830624" lon="14.173976429141465"><ele>339.0</ele><time>2026-05-01T12:50:24Z</time></trkpt><trkpt lat="42.25779204847527" lon="14.173783746896001"><ele>341.3333333333333</ele><time>2026-05-01T12:50:25Z</time></trkpt><trkpt lat="42.2579025240933" lon="14.173601646483961"><ele>343.66666666666663</ele><time>2026-05-01T12:50:26Z</time></trkpt><trkpt lat="42.258005154411705" lon="14.173453679863377"><ele>346.0</ele><time>2026-05-01T12:50:27Z</time></trkpt><trkpt lat="42.258114143248996" lon="14.17333931645874"><ele>345.5</ele><time>2026-05-01T12:50:28Z</time></trkpt><trkpt lat="42.2582227912855" lon="14.173234663783909"><ele>345.0</ele><time>2026-05-01T12:50:29Z</time></trkpt><trkpt lat="42.25831273642358" lon="14.173151197579875"><ele>344.5</ele><time>2026-05-01T12:50:30Z</time></trkpt><trkpt lat="42.25838833019368" lon="14.173064862691925"><ele>344.0</ele><time>2026-05-01T12:50:31Z</time></trkpt><trkpt lat="42.25844853204781" lon="14.17294330036421"><ele>347.25</ele><time>2026-05-01T12:50:32Z</time></trkpt><trkpt lat="42.258506619898235" lon="14.17280871120637"><ele>350.5</ele><time>2026-05-01T12:50:33Z</time></trkpt><trkpt lat="42.25859442074523" lon="14.172663556823279"><ele>353.75</ele><time>2026-05-01T12:50:34Z</time></trkpt><trkpt lat="42.258698636494174" lon="14.172530879073225"><ele>357.0</ele><time>2026-05-01T12:50:35Z</time></trkpt><trkpt lat="42.258785460765914" lon="14.172409640512896"><ele>360.0</ele><time>2026-05-01T12:50:36Z</time></trkpt><trkpt lat="42.258873419126935" lon="14.172301830119197"><ele>363.0</ele><time>2026-05-01T12:50:37Z</time></trkpt><trkpt lat="42.2589538877027" lon="14.172215230435583"><ele>366.0</ele><time>2026-05-01T12:50:38Z</time></trkpt><trkpt lat="42.25903727644656" lon="14.172130777319824"><ele>369.0</ele><time>2026-05-01T12:50:39Z</time></trkpt><trkpt lat="42.25912526320819" lon="14.172036633576004"><ele>372.0</ele><time>2026-05-01T12:50:40Z</time></trkpt><trkpt lat="42.25921654483128" lon="14.171941428740928"><ele>372.20000000000005</ele><time>2026-05-01T12:50:41Z</time></trkpt><trkpt lat="42.259302624683" lon="14.171849565448566"><ele>372.4</ele><time>2026-05-01T12:50:42Z</time></trkpt><trkpt lat="42.25937797454564" lon="14.171745644154905"><ele>372.6</ele><time>2026-05-01T12:50:43Z</time></trkpt><trkpt lat="42.259457972488526" lon="14.171648449423495"><ele>372.79999999999995</ele><time>2026-05-01T12:50:44Z</time></trkpt><trkpt lat="42.25949655130369" lon="14.171528456522905"><ele>373.0</ele><time>2026-05-01T12:50:45Z</time></trkpt><trkpt lat="42.25953679944546" lon="14.17144505057772"><ele>372.4</ele><time>2026-05-01T12:50:46Z</time></trkpt><trkpt lat="42.25959165694507" lon="14.171329497437668"><ele>371.79999999999995</ele><time>2026-05-01T12:50:48Z</time></trkpt><trkpt lat="42.259656626823016" lon="14.1712098290418"><ele>371.2</ele><time>2026-05-01T12:50:50Z</time></trkpt><trkpt lat="42.2597082488807" lon="14.171144067731348"><ele>370.6</ele><time>2026-05-01T12:50:51Z</time></trkpt><trkpt lat="42.25977469607497" lon="14.171086358872722"><ele>370.0</ele><time>2026-05-01T12:50:52Z</time></trkpt><trkpt lat="42.25984864652194" lon="14.17101824683595"><ele>370.0</ele><time>2026-05-01T12:50:53Z</time></trkpt><trkpt lat="42.259927148574164" lon="14.170943210365175"><ele>370.0</ele><time>2026-05-01T12:50:54Z</time></trkpt><trkpt lat="42.26000709135023" lon="14.170863113514564"><ele>370.0</ele><time>2026-05-01T12:50:55Z</time></trkpt><trkpt lat="42.26008801480163" lon="14.170780080591182"><ele>370.0</ele><time>2026-05-01T12:50:56Z</time></trkpt><trkpt lat="42.2601680920494" lon="14.170700039978927"><ele>370.0</ele><time>2026-05-01T12:50:57Z</time></trkpt><trkpt lat="42.26025467801572" lon="14.170615199010173"><ele>369.4</ele><time>2026-05-01T12:50:58Z</time></trkpt><trkpt lat="42.26034556780582" lon="14.170525079451892"><ele>368.8</ele><time>2026-05-01T12:50:59Z</time></trkpt><trkpt lat="42.260437108883856" lon="14.170436512614248"><ele>368.20000000000005</ele><time>2026-05-01T12:51:00Z</time></trkpt><trkpt lat="42.260512696238855" lon="14.170365978678168"><ele>367.6</ele><time>2026-05-01T12:51:01Z</time></trkpt><trkpt lat="42.26058687629427" lon="14.170282252007308"><ele>367.0</ele><time>2026-05-01T12:51:02Z</time></trkpt><trkpt lat="42.26066862278472" lon="14.170183811341946"><ele>365.0</ele><time>2026-05-01T12:51:03Z</time></trkpt><trkpt lat="42.2607535674228" lon="14.170078883246736"><ele>363.0</ele><time>2026-05-01T12:51:04Z</time></trkpt><trkpt lat="42.26083673361859" lon="14.169976635713839"><ele>361.0</ele><time>2026-05-01T12:51:05Z</time></trkpt><trkpt lat="42.26089749708652" lon="14.169897302558297"><ele>359.0</ele><time>2026-05-01T12:51:06Z</time></trkpt><trkpt lat="42.26094407121452" lon="14.169827612395586"><ele>357.0</ele><time>2026-05-01T12:51:07Z</time></trkpt><trkpt lat="42.26097833525289" lon="14.169750848870455"><ele>355.0</ele><time>2026-05-01T12:51:08Z</time></trkpt><trkpt lat="42.260996169600794" lon="14.169644219720468"><ele>353.8333333333333</ele><time>2026-05-01T12:51:09Z</time></trkpt><trkpt lat="42.261000979208326" lon="14.169517047786204"><ele>352.66666666666663</ele><time>2026-05-01T12:51:10Z</time></trkpt><trkpt lat="42.26100702036025" lon="14.169392818281125"><ele>351.5</ele><time>2026-05-01T12:51:11Z</time></trkpt><trkpt lat="42.26101601093663" lon="14.169274136959643"><ele>350.3333333333333</ele><time>2026-05-01T12:51:12Z</time></trkpt><trkpt lat="42.26103095506091" lon="14.169160612053096"><ele>349.1666666666667</ele><time>2026-05-01T12:51:13Z</time></trkpt><trkpt lat="42.2610349247276" lon="14.169045344909344"><ele>348.0</ele><time>2026-05-01T12:51:14Z</time></trkpt><trkpt lat="42.261024920259274" lon="14.168939494741915"><ele>347.0</ele><time>2026-05-01T12:51:15Z</time></trkpt><trkpt lat="42.26101302100507" lon="14.168827377540298"><ele>346.0</ele><time>2026-05-01T12:51:16Z</time></trkpt><trkpt lat="42.261005422911694" lon="14.168696760482726"><ele>345.0</ele><time>2026-05-01T12:51:17Z</time></trkpt><trkpt lat="42.26100940987596" lon="14.168569619728064"><ele>344.0</ele><time>2026-05-01T12:51:18Z</time></trkpt><trkpt lat="42.26102982265109" lon="14.168442115455452"><ele>343.0</ele><time>2026-05-01T12:51:19Z</time></trkpt><trkpt lat="42.261062945406316" lon="14.168312721646664"><ele>341.2</ele><time>2026-05-01T12:51:20Z</time></trkpt><trkpt lat="42.26110336731721" lon="14.168175204818038"><ele>339.4</ele><time>2026-05-01T12:51:21Z</time></trkpt><trkpt lat="42.261140564170596" lon="14.16802551204438"><ele>337.59999999999997</ele><time>2026-05-01T12:51:22Z</time></trkpt><trkpt lat="42.26116679347754" lon="14.167897444389554"><ele>335.79999999999995</ele><time>2026-05-01T12:51:23Z</time></trkpt><trkpt lat="42.26117920002435" lon="14.167768186169857"><ele>334.0</ele><time>2026-05-01T12:51:24Z</time></trkpt><trkpt lat="42.2611774793309" lon="14.167627443761745"><ele>334.0</ele><time>2026-05-01T12:51:25Z</time></trkpt><trkpt lat="42.26116477195338" lon="14.167486205529395"><ele>334.0</ele><time>2026-05-01T12:51:26Z</time></trkpt><trkpt lat="42.261155683090124" lon="14.167369965092591"><ele>334.0</ele><time>2026-05-01T12:51:27Z</time></trkpt><trkpt lat="42.26114772091648" lon="14.167277135879553"><ele>334.0</ele><time>2026-05-01T12:51:28Z</time></trkpt><trkpt lat="42.2611420808057" lon="14.167131101179411"><ele>334.0</ele><time>2026-05-01T12:51:30Z</time></trkpt><trkpt lat="42.261094676924046" lon="14.167064590698999"><ele>334.0</ele><time>2026-05-01T12:51:32Z</time></trkpt><trkpt lat="42.26098141036321" lon="14.167025366484795"><ele>333.16666666666663</ele><time>2026-05-01T12:51:34Z</time></trkpt><trkpt lat="42.26089964575744" lon="14.167002197510278"><ele>332.3333333333333</ele><time>2026-05-01T12:51:35Z</time></trkpt><trkpt lat="42.2608137017049" lon="14.166986433989255"><ele>331.5</ele><time>2026-05-01T12:51:36Z</time></trkpt><trkpt lat="42.26072157663269" lon="14.166960835343897"><ele>330.6666666666667</ele><time>2026-05-01T12:51:37Z</time></trkpt><trkpt lat="42.26064652475119" lon="14.166921111045932"><ele>329.83333333333337</ele><time>2026-05-01T12:51:38Z</time></trkpt><trkpt lat="42.26057895377845" lon="14.166882043401092"><ele>329.0</ele><time>2026-05-01T12:51:39Z</time></trkpt><trkpt lat="42.26051380629592" lon="14.16684378947738"><ele>329.0</ele><time>2026-05-01T12:51:40Z</time></trkpt><trkpt lat="42.260440409896106" lon="14.166820984110977"><ele>329.0</ele><time>2026-05-01T12:51:41Z</time></trkpt><trkpt lat="42.260337927403505" lon="14.166769840704992"><ele>329.0</ele><time>2026-05-01T12:51:43Z</time></trkpt><trkpt lat="42.26024102864275" lon="14.166733648183584"><ele>329.0</ele><time>2026-05-01T12:51:45Z</time></trkpt><trkpt lat="42.26016645362354" lon="14.166708929566818"><ele>329.0</ele><time>2026-05-01T12:51:46Z</time></trkpt><trkpt lat="42.26009751278678" lon="14.166707610388185"><ele>329.0</ele><time>2026-05-01T12:51:47Z</time></trkpt><trkpt lat="42.25998554409286" lon="14.166733858921095"><ele>329.0</ele><time>2026-05-01T12:51:49Z</time></trkpt><trkpt lat="42.25990971729147" lon="14.166739180235702"><ele>329.0</ele><time>2026-05-01T12:51:50Z</time></trkpt><trkpt lat="42.25978958281169" lon="14.166706147341586"><ele>329.0</ele><time>2026-05-01T12:51:52Z</time></trkpt><trkpt lat="42.25972409227116" lon="14.166682519199997"><ele>329.0</ele><time>2026-05-01T12:51:53Z</time></trkpt><trkpt lat="42.259656589018654" lon="14.166654092634342"><ele>329.0</ele><time>2026-05-01T12:51:54Z</time></trkpt><trkpt lat="42.259583336965036" lon="14.166609087838925"><ele>329.0</ele><time>2026-05-01T12:51:55Z</time></trkpt><trkpt lat="42.2595125964741" lon="14.166557579628204"><ele>329.83333333333337</ele><time>2026-05-01T12:51:56Z</time></trkpt><trkpt lat="42.25943818762762" lon="14.166523114964818"><ele>330.6666666666667</ele><time>2026-05-01T12:51:57Z</time></trkpt><trkpt lat="42.25936428484689" lon="14.166499422651743"><ele>331.5</ele><time>2026-05-01T12:51:58Z</time></trkpt><trkpt lat="42.25929860340981" lon="14.166467528185834"><ele>332.3333333333333</ele><time>2026-05-01T12:51:59Z</time></trkpt><trkpt lat="42.259229709689244" lon="14.166443858829616"><ele>333.16666666666663</ele><time>2026-05-01T12:52:00Z</time></trkpt><trkpt lat="42.25914619117513" lon="14.16642102327262"><ele>334.0</ele><time>2026-05-01T12:52:01Z</time></trkpt><trkpt lat="42.25906668863174" lon="14.166394407023922"><ele>334.0</ele><time>2026-05-01T12:52:02Z</time></trkpt><trkpt lat="42.2589958152932" lon="14.166348120903326"><ele>334.0</ele><time>2026-05-01T12:52:03Z</time></trkpt><trkpt lat="42.2589309285273" lon="14.166290440464946"><ele>334.0</ele><time>2026-05-01T12:52:04Z</time></trkpt><trkpt lat="42.258842631793144" lon="14.166248407453665"><ele>334.0</ele><time>2026-05-01T12:52:05Z</time></trkpt><trkpt lat="42.25874127724367" lon="14.166209181736917"><ele>334.0</ele><time>2026-05-01T12:52:06Z</time></trkpt><trkpt lat="42.258650108692606" lon="14.166191363950343"><ele>334.0</ele><time>2026-05-01T12:52:07Z</time></trkpt><trkpt lat="42.25855643864402" lon="14.166182088679559"><ele>336.6</ele><time>2026-05-01T12:52:08Z</time></trkpt><trkpt lat="42.258451738077966" lon="14.166168157041012"><ele>339.2</ele><time>2026-05-01T12:52:09Z</time></trkpt><trkpt lat="42.258363705685476" lon="14.16615120673086"><ele>341.8</ele><time>2026-05-01T12:52:10Z</time></trkpt><trkpt lat="42.25828364538314" lon="14.16616462790595"><ele>344.40000000000003</ele><time>2026-05-01T12:52:11Z</time></trkpt><trkpt lat="42.2582018342216" lon="14.16618445901021"><ele>347.0</ele><time>2026-05-01T12:52:12Z</time></trkpt><trkpt lat="42.25810400300861" lon="14.166196428310935"><ele>347.0</ele><time>2026-05-01T12:52:13Z</time></trkpt><trkpt lat="42.25802258963927" lon="14.16620609906691"><ele>347.0</ele><time>2026-05-01T12:52:14Z</time></trkpt><trkpt lat="42.25796412527423" lon="14.166243467144348"><ele>347.0</ele><time>2026-05-01T12:52:15Z</time></trkpt><trkpt lat="42.25790508644457" lon="14.166285192638144"><ele>347.0</ele><time>2026-05-01T12:52:16Z</time></trkpt><trkpt lat="42.25785047046992" lon="14.166353546974188"><ele>347.0</ele><time>2026-05-01T12:52:17Z</time></trkpt><trkpt lat="42.25778909827384" lon="14.166477793734005"><ele>347.0</ele><time>2026-05-01T12:52:18Z</time></trkpt><trkpt lat="42.25771352487058" lon="14.166614826658925"><ele>348.6</ele><time>2026-05-01T12:52:19Z</time></trkpt><trkpt lat="42.25764868053559" lon="14.166753738767953"><ele>350.20000000000005</ele><time>2026-05-01T12:52:20Z</time></trkpt><trkpt lat="42.25759726125325" lon="14.166891537118078"><ele>351.8</ele><time>2026-05-01T12:52:21Z</time></trkpt><trkpt lat="42.25754710759573" lon="14.167023589463724"><ele>353.4</ele><time>2026-05-01T12:52:22Z</time></trkpt><trkpt lat="42.25749341052758" lon="14.167139100070347"><ele>355.0</ele><time>2026-05-01T12:52:23Z</time></trkpt><trkpt lat="42.25743296414836" lon="14.16724800445965"><ele>355.0</ele><time>2026-05-01T12:52:24Z</time></trkpt><trkpt lat="42.25737229675955" lon="14.167355748260752"><ele>355.0</ele><time>2026-05-01T12:52:25Z</time></trkpt><trkpt lat="42.2573106492795" lon="14.167444187557377"><ele>355.0</ele><time>2026-05-01T12:52:26Z</time></trkpt><trkpt lat="42.25724752466723" lon="14.167507228717339"><ele>355.0</ele><time>2026-05-01T12:52:27Z</time></trkpt><trkpt lat="42.257178439748806" lon="14.167551826032787"><ele>355.0</ele><time>2026-05-01T12:52:28Z</time></trkpt><trkpt lat="42.25710973497447" lon="14.167585320583136"><ele>355.0</ele><time>2026-05-01T12:52:29Z</time></trkpt><trkpt lat="42.25702513552115" lon="14.16760745828584"><ele>354.6</ele><time>2026-05-01T12:52:30Z</time></trkpt><trkpt lat="42.25692503856412" lon="14.167607530769"><ele>354.2</ele><time>2026-05-01T12:52:31Z</time></trkpt><trkpt lat="42.25683025366277" lon="14.16759777661375"><ele>353.79999999999995</ele><time>2026-05-01T12:52:32Z</time></trkpt><trkpt lat="42.25673758449426" lon="14.167600727924121"><ele>353.4</ele><time>2026-05-01T12:52:33Z</time></trkpt><trkpt lat="42.25665453874651" lon="14.16763407496718"><ele>353.0</ele><time>2026-05-01T12:52:34Z</time></trkpt><trkpt lat="42.25657122983943" lon="14.167688452680979"><ele>353.0</ele><time>2026-05-01T12:52:35Z</time></trkpt><trkpt lat="42.25647926267022" lon="14.167765331703889"><ele>353.0</ele><time>2026-05-01T12:52:36Z</time></trkpt><trkpt lat="42.25640019417469" lon="14.167844193355682"><ele>353.0</ele><time>2026-05-01T12:52:37Z</time></trkpt><trkpt lat="42.25631141336706" lon="14.167919026980304"><ele>353.0</ele><time>2026-05-01T12:52:38Z</time></trkpt><trkpt lat="42.25623390435761" lon="14.167999559741881"><ele>353.0</ele><time>2026-05-01T12:52:39Z</time></trkpt><trkpt lat="42.25615337767824" lon="14.168083554954256"><ele>351.6666666666667</ele><time>2026-05-01T12:52:40Z</time></trkpt><trkpt lat="42.25608071827627" lon="14.168170054209455"><ele>350.33333333333337</ele><time>2026-05-01T12:52:41Z</time></trkpt><trkpt lat="42.25601462644969" lon="14.168245819554448"><ele>349.0</ele><time>2026-05-01T12:52:42Z</time></trkpt><trkpt lat="42.25596149000241" lon="14.16832083508882"><ele>347.6666666666667</ele><time>2026-05-01T12:52:43Z</time></trkpt><trkpt lat="42.25592494415468" lon="14.16839256518052"><ele>346.3333333333333</ele><time>2026-05-01T12:52:44Z</time></trkpt><trkpt lat="42.255897421765255" lon="14.168477691119797"><ele>345.0</ele><time>2026-05-01T12:52:45Z</time></trkpt><trkpt lat="42.25587269301005" lon="14.168561379692871"><ele>345.0</ele><time>2026-05-01T12:52:46Z</time></trkpt><trkpt lat="42.25583954545173" lon="14.168637078832631"><ele>345.0</ele><time>2026-05-01T12:52:47Z</time></trkpt><trkpt lat="42.25579595069708" lon="14.168709300632196"><ele>345.0</ele><time>2026-05-01T12:52:48Z</time></trkpt><trkpt lat="42.255744694575164" lon="14.168789697809736"><ele>345.0</ele><time>2026-05-01T12:52:49Z</time></trkpt><trkpt lat="42.25570728253176" lon="14.168879674598818"><ele>345.0</ele><time>2026-05-01T12:52:50Z</time></trkpt><trkpt lat="42.25567777747602" lon="14.168961637852814"><ele>345.0</ele><time>2026-05-01T12:52:51Z</time></trkpt><trkpt lat="42.25564622846705" lon="14.169041510482138"><ele>345.0</ele><time>2026-05-01T12:52:52Z</time></trkpt><trkpt lat="42.25560049218833" lon="14.169172726201888"><ele>342.6</ele><time>2026-05-01T12:52:54Z</time></trkpt><trkpt lat="42.255537468478316" lon="14.169229610385559"><ele>340.2</ele><time>2026-05-01T12:52:57Z</time></trkpt><trkpt lat="42.255480344149404" lon="14.169122323178517"><ele>337.79999999999995</ele><time>2026-05-01T12:52:59Z</time></trkpt><trkpt lat="42.2554609290727" lon="14.168971125759493"><ele>335.4</ele><time>2026-05-01T12:53:00Z</time></trkpt><trkpt lat="42.25544346604424" lon="14.16879608094453"><ele>333.0</ele><time>2026-05-01T12:53:01Z</time></trkpt><trkpt lat="42.255434917518905" lon="14.16861281062658"><ele>333.0</ele><time>2026-05-01T12:53:02Z</time></trkpt><trkpt lat="42.25543037917258" lon="14.168436175611653"><ele>333.0</ele><time>2026-05-01T12:53:03Z</time></trkpt><trkpt lat="42.255427792519164" lon="14.168283630174484"><ele>333.0</ele><time>2026-05-01T12:53:04Z</time></trkpt><trkpt lat="42.25540310594872" lon="14.168116642926622"><ele>333.0</ele><time>2026-05-01T12:53:05Z</time></trkpt><trkpt lat="42.255370027030125" lon="14.167946167019885"><ele>332.75</ele><time>2026-05-01T12:53:06Z</time></trkpt><trkpt lat="42.25534583514128" lon="14.167775645320381"><ele>332.5</ele><time>2026-05-01T12:53:07Z</time></trkpt><trkpt lat="42.255315434560444" lon="14.167608972003103"><ele>332.25</ele><time>2026-05-01T12:53:08Z</time></trkpt><trkpt lat="42.25528168075776" lon="14.16744175106609"><ele>332.0</ele><time>2026-05-01T12:53:09Z</time></trkpt><trkpt lat="42.25523467097864" lon="14.167276948697557"><ele>329.6666666666667</ele><time>2026-05-01T12:53:10Z</time></trkpt><trkpt lat="42.25516289868781" lon="14.167113377307842"><ele>327.3333333333333</ele><time>2026-05-01T12:53:11Z</time></trkpt><trkpt lat="42.25507066500542" lon="14.166948442405205"><ele>325.0</ele><time>2026-05-01T12:53:12Z</time></trkpt><trkpt lat="42.254982432283214" lon="14.166766986209534"><ele>325.0</ele><time>2026-05-01T12:53:13Z</time></trkpt><trkpt lat="42.25489940106438" lon="14.166590382332107"><ele>325.0</ele><time>2026-05-01T12:53:14Z</time></trkpt><trkpt lat="42.254812171631556" lon="14.16641880085665"><ele>325.0</ele><time>2026-05-01T12:53:15Z</time></trkpt><trkpt lat="42.25473491147293" lon="14.166262165920463"><ele>325.0</ele><time>2026-05-01T12:53:16Z</time></trkpt><trkpt lat="42.25465743765751" lon="14.16610748131988"><ele>324.0</ele><time>2026-05-01T12:53:17Z</time></trkpt><trkpt lat="42.25458100290728" lon="14.16597019680618"><ele>323.0</ele><time>2026-05-01T12:53:18Z</time></trkpt><trkpt lat="42.25450060295751" lon="14.165816778810287"><ele>322.0</ele><time>2026-05-01T12:53:19Z</time></trkpt><trkpt lat="42.254410636916596" lon="14.165653791747728"><ele>321.0</ele><time>2026-05-01T12:53:20Z</time></trkpt><trkpt lat="42.25432094657575" lon="14.165486770942474"><ele>319.5</ele><time>2026-05-01T12:53:21Z</time></trkpt><trkpt lat="42.25423943397912" lon="14.1653186528392"><ele>318.0</ele><time>2026-05-01T12:53:22Z</time></trkpt><trkpt lat="42.25416144815032" lon="14.16516194125662"><ele>316.5</ele><time>2026-05-01T12:53:23Z</time></trkpt><trkpt lat="42.25409578932594" lon="14.165023327415696"><ele>315.0</ele><time>2026-05-01T12:53:24Z</time></trkpt><trkpt lat="42.25403508487871" lon="14.164915512329658"><ele>313.5</ele><time>2026-05-01T12:53:25Z</time></trkpt><trkpt lat="42.25397626944382" lon="14.164803537655624"><ele>312.0</ele><time>2026-05-01T12:53:26Z</time></trkpt><trkpt lat="42.25390941797377" lon="14.164667982088103"><ele>310.5</ele><time>2026-05-01T12:53:27Z</time></trkpt><trkpt lat="42.25382076550704" lon="14.164524013190148"><ele>309.0</ele><time>2026-05-01T12:53:28Z</time></trkpt><trkpt lat="42.253740189950285" lon="14.164375968726654"><ele>309.0</ele><time>2026-05-01T12:53:29Z</time></trkpt><trkpt lat="42.253659037168845" lon="14.164233206389728"><ele>309.0</ele><time>2026-05-01T12:53:30Z</time></trkpt><trkpt lat="42.25357484768546" lon="14.164087873211292"><ele>309.0</ele><time>2026-05-01T12:53:31Z</time></trkpt><trkpt lat="42.2534887776715" lon="14.16394337960561"><ele>309.0</ele><time>2026-05-01T12:53:32Z</time></trkpt><trkpt lat="42.25340587175655" lon="14.163803373639178"><ele>309.0</ele><time>2026-05-01T12:53:33Z</time></trkpt><trkpt lat="42.253327022733785" lon="14.163672213309997"><ele>309.0</ele><time>2026-05-01T12:53:34Z</time></trkpt><trkpt lat="42.25325715904221" lon="14.16353134800952"><ele>309.0</ele><time>2026-05-01T12:53:35Z</time></trkpt><trkpt lat="42.25319472495797" lon="14.163391748049014"><ele>309.0</ele><time>2026-05-01T12:53:36Z</time></trkpt><trkpt lat="42.25314510065495" lon="14.163252623455902"><ele>306.5</ele><time>2026-05-01T12:53:37Z</time></trkpt><trkpt lat="42.25310512872825" lon="14.163094244088196"><ele>304.0</ele><time>2026-05-01T12:53:38Z</time></trkpt><trkpt lat="42.253080415625966" lon="14.162917251865872"><ele>301.5</ele><time>2026-05-01T12:53:39Z</time></trkpt><trkpt lat="42.25305544547263" lon="14.162730403201733"><ele>299.0</ele><time>2026-05-01T12:53:40Z</time></trkpt><trkpt lat="42.25302561100682" lon="14.1625605532953"><ele>299.0</ele><time>2026-05-01T12:53:41Z</time></trkpt><trkpt lat="42.25298904654949" lon="14.162382076523537"><ele>299.0</ele><time>2026-05-01T12:53:42Z</time></trkpt><trkpt lat="42.25294609170944" lon="14.162211649467059"><ele>299.0</ele><time>2026-05-01T12:53:43Z</time></trkpt><trkpt lat="42.25289951035396" lon="14.162035957158539"><ele>299.0</ele><time>2026-05-01T12:53:44Z</time></trkpt><trkpt lat="42.25285385589663" lon="14.161853839350547"><ele>298.75</ele><time>2026-05-01T12:53:45Z</time></trkpt><trkpt lat="42.25280028265943" lon="14.16167909481859"><ele>298.5</ele><time>2026-05-01T12:53:46Z</time></trkpt><trkpt lat="42.252752043555105" lon="14.161509496304603"><ele>298.25</ele><time>2026-05-01T12:53:47Z</time></trkpt><trkpt lat="42.25270165152184" lon="14.161327873496118"><ele>298.0</ele><time>2026-05-01T12:53:48Z</time></trkpt><trkpt lat="42.25264631479298" lon="14.16114088386063"><ele>298.0</ele><time>2026-05-01T12:53:49Z</time></trkpt><trkpt lat="42.25258616345757" lon="14.160965666521147"><ele>298.0</ele><time>2026-05-01T12:53:50Z</time></trkpt><trkpt lat="42.25253198052266" lon="14.160808368071233"><ele>298.0</ele><time>2026-05-01T12:53:51Z</time></trkpt><trkpt lat="42.25247760799866" lon="14.160667553452843"><ele>298.0</ele><time>2026-05-01T12:53:51.999Z</time></trkpt><trkpt lat="42.252422201293726" lon="14.160513721557624"><ele>295.5</ele><time>2026-05-01T12:53:52.999Z</time></trkpt><trkpt lat="42.25237849801871" lon="14.160319097019869"><ele>293.0</ele><time>2026-05-01T12:53:53.999Z</time></trkpt><trkpt lat="42.25234559006608" lon="14.160108428082076"><ele>290.5</ele><time>2026-05-01T12:53:54.999Z</time></trkpt><trkpt lat="42.2523256166446" lon="14.15992783895006"><ele>288.0</ele><time>2026-05-01T12:53:55.999Z</time></trkpt><trkpt lat="42.25230460647969" lon="14.159775219033802"><ele>288.25</ele><time>2026-05-01T12:53:56.999Z</time></trkpt><trkpt lat="42.25226318900905" lon="14.15963018995799"><ele>288.5</ele><time>2026-05-01T12:53:58Z</time></trkpt><trkpt lat="42.25219578127667" lon="14.159474911532541"><ele>288.75</ele><time>2026-05-01T12:53:58.999Z</time></trkpt><trkpt lat="42.25212266980384" lon="14.159326174896965"><ele>289.0</ele><time>2026-05-01T12:53:59.999Z</time></trkpt><trkpt lat="42.252059528846786" lon="14.159185266834147"><ele>289.0</ele><time>2026-05-01T12:54:00.999Z</time></trkpt><trkpt lat="42.251996146453074" lon="14.159059115326667"><ele>289.0</ele><time>2026-05-01T12:54:01.999Z</time></trkpt><trkpt lat="42.25192493347888" lon="14.15895280825629"><ele>289.0</ele><time>2026-05-01T12:54:02.999Z</time></trkpt><trkpt lat="42.251848404214236" lon="14.158850997718677"><ele>289.0</ele><time>2026-05-01T12:54:03.999Z</time></trkpt><trkpt lat="42.25176844709173" lon="14.15876500483681"><ele>289.0</ele><time>2026-05-01T12:54:04.999Z</time></trkpt><trkpt lat="42.25169140109371" lon="14.15870729129269"><ele>286.5</ele><time>2026-05-01T12:54:05.999Z</time></trkpt><trkpt lat="42.251589084204504" lon="14.1586414636187"><ele>284.0</ele><time>2026-05-01T12:54:06.999Z</time></trkpt><trkpt lat="42.25146016881233" lon="14.158570983856938"><ele>281.5</ele><time>2026-05-01T12:54:07.999Z</time></trkpt><trkpt lat="42.251330030702846" lon="14.158499104396341"><ele>279.0</ele><time>2026-05-01T12:54:08.999Z</time></trkpt><trkpt lat="42.251212267735646" lon="14.158428726350602"><ele>279.0</ele><time>2026-05-01T12:54:09.999Z</time></trkpt><trkpt lat="42.251100828792836" lon="14.158367988091701"><ele>279.0</ele><time>2026-05-01T12:54:10.999Z</time></trkpt><trkpt lat="42.25099145547582" lon="14.158312146771344"><ele>279.0</ele><time>2026-05-01T12:54:11.999Z</time></trkpt><trkpt lat="42.250894402786635" lon="14.158273467261793"><ele>279.0</ele><time>2026-05-01T12:54:12.999Z</time></trkpt><trkpt lat="42.25080522186274" lon="14.158247670601803"><ele>279.0</ele><time>2026-05-01T12:54:13.999Z</time></trkpt><trkpt lat="42.250723295970474" lon="14.158224562009714"><ele>279.0</ele><time>2026-05-01T12:54:14.999Z</time></trkpt><trkpt lat="42.250639492055484" lon="14.158206199187035"><ele>279.0</ele><time>2026-05-01T12:54:15.999Z</time></trkpt><trkpt lat="42.2505525191424" lon="14.158195178002526"><ele>279.0</ele><time>2026-05-01T12:54:16.999Z</time></trkpt><trkpt lat="42.25047603672294" lon="14.158169070140321"><ele>279.0</ele><time>2026-05-01T12:54:18Z</time></trkpt><trkpt lat="42.25040204065345" lon="14.158116579408542"><ele>279.0</ele><time>2026-05-01T12:54:19Z</time></trkpt><trkpt lat="42.25031806222759" lon="14.158025799023683"><ele>279.0</ele><time>2026-05-01T12:54:20Z</time></trkpt><trkpt lat="42.25024334080518" lon="14.157920525130143"><ele>278.0</ele><time>2026-05-01T12:54:21Z</time></trkpt><trkpt lat="42.250183259251806" lon="14.157842298350367"><ele>277.0</ele><time>2026-05-01T12:54:22Z</time></trkpt><trkpt lat="42.25011346723605" lon="14.15781217522843"><ele>276.0</ele><time>2026-05-01T12:54:23Z</time></trkpt><trkpt lat="42.25003374657254" lon="14.157818974171194"><ele>275.0</ele><time>2026-05-01T12:54:24Z</time></trkpt><trkpt lat="42.2499560108613" lon="14.15785241068696"><ele>274.0</ele><time>2026-05-01T12:54:25Z</time></trkpt><trkpt lat="42.249846317467636" lon="14.157871215033905"><ele>273.0</ele><time>2026-05-01T12:54:26Z</time></trkpt><trkpt lat="42.24973145243584" lon="14.157877018008731"><ele>276.75</ele><time>2026-05-01T12:54:27Z</time></trkpt><trkpt lat="42.249606145596964" lon="14.15785074381866"><ele>280.5</ele><time>2026-05-01T12:54:28Z</time></trkpt><trkpt lat="42.24948749071044" lon="14.15778594090716"><ele>284.25</ele><time>2026-05-01T12:54:29Z</time></trkpt><trkpt lat="42.24936111494644" lon="14.15770179420192"><ele>288.0</ele><time>2026-05-01T12:54:30Z</time></trkpt><trkpt lat="42.249228742657635" lon="14.157637790280454"><ele>288.0</ele><time>2026-05-01T12:54:31Z</time></trkpt><trkpt lat="42.24910663726847" lon="14.157598247881452"><ele>288.0</ele><time>2026-05-01T12:54:32Z</time></trkpt><trkpt lat="42.248950186045036" lon="14.15754924652619"><ele>288.0</ele><time>2026-05-01T12:54:33Z</time></trkpt><trkpt lat="42.24880069704214" lon="14.157502371373816"><ele>288.0</ele><time>2026-05-01T12:54:34Z</time></trkpt><trkpt lat="42.24865997730216" lon="14.157455603844364"><ele>290.0</ele><time>2026-05-01T12:54:35Z</time></trkpt><trkpt lat="42.24855200807514" lon="14.157405300665596"><ele>292.0</ele><time>2026-05-01T12:54:36Z</time></trkpt><trkpt lat="42.24844925995353" lon="14.157351555923325"><ele>294.0</ele><time>2026-05-01T12:54:37Z</time></trkpt><trkpt lat="42.248346640602634" lon="14.157265469946593"><ele>296.0</ele><time>2026-05-01T12:54:38Z</time></trkpt><trkpt lat="42.24823183182042" lon="14.157178966538172"><ele>301.25</ele><time>2026-05-01T12:54:39Z</time></trkpt><trkpt lat="42.24812317095397" lon="14.157103997219942"><ele>306.5</ele><time>2026-05-01T12:54:40Z</time></trkpt><trkpt lat="42.24802765299873" lon="14.156985167185587"><ele>311.75</ele><time>2026-05-01T12:54:41Z</time></trkpt><trkpt lat="42.247966530696736" lon="14.156850701724595"><ele>317.0</ele><time>2026-05-01T12:54:42Z</time></trkpt><trkpt lat="42.24789798709103" lon="14.156699349228287"><ele>314.5</ele><time>2026-05-01T12:54:43Z</time></trkpt><trkpt lat="42.247815996834504" lon="14.15653516130205"><ele>312.0</ele><time>2026-05-01T12:54:44Z</time></trkpt><trkpt lat="42.24773958474795" lon="14.156404353673816"><ele>309.5</ele><time>2026-05-01T12:54:45Z</time></trkpt><trkpt lat="42.24767172495328" lon="14.15627401557028"><ele>307.0</ele><time>2026-05-01T12:54:46Z</time></trkpt><trkpt lat="42.24761769109564" lon="14.156139987178557"><ele>307.0</ele><time>2026-05-01T12:54:47Z</time></trkpt><trkpt lat="42.247577120103664" lon="14.155994976963989"><ele>307.0</ele><time>2026-05-01T12:54:48Z</time></trkpt><trkpt lat="42.247537234589075" lon="14.155868265910373"><ele>307.0</ele><time>2026-05-01T12:54:49Z</time></trkpt><trkpt lat="42.247489851832455" lon="14.155751064803182"><ele>307.0</ele><time>2026-05-01T12:54:50Z</time></trkpt><trkpt lat="42.24745261766643" lon="14.155637046411597"><ele>307.0</ele><time>2026-05-01T12:54:51Z</time></trkpt><trkpt lat="42.24742556979701" lon="14.155553202917499"><ele>305.16666666666663</ele><time>2026-05-01T12:54:52Z</time></trkpt><trkpt lat="42.24742309186968" lon="14.155394391043725"><ele>303.3333333333333</ele><time>2026-05-01T12:54:54Z</time></trkpt><trkpt lat="42.24746740438904" lon="14.155288567348952"><ele>301.5</ele><time>2026-05-01T12:54:55Z</time></trkpt><trkpt lat="42.24750133652491" lon="14.155170891440662"><ele>299.6666666666667</ele><time>2026-05-01T12:54:56Z</time></trkpt><trkpt lat="42.247484595811656" lon="14.15507691242443"><ele>297.83333333333337</ele><time>2026-05-01T12:54:57Z</time></trkpt><trkpt lat="42.247433234216395" lon="14.155001105776751"><ele>296.0</ele><time>2026-05-01T12:54:58Z</time></trkpt><trkpt lat="42.247350498000316" lon="14.154932772786253"><ele>298.8</ele><time>2026-05-01T12:54:59Z</time></trkpt><trkpt lat="42.2472397927636" lon="14.154867250256004"><ele>301.6</ele><time>2026-05-01T12:55:00Z</time></trkpt><trkpt lat="42.24713252917824" lon="14.154812655431671"><ele>304.4</ele><time>2026-05-01T12:55:01Z</time></trkpt><trkpt lat="42.24704424470774" lon="14.154768971765478"><ele>307.2</ele><time>2026-05-01T12:55:02Z</time></trkpt><trkpt lat="42.246989342273835" lon="14.154725589613125"><ele>310.0</ele><time>2026-05-01T12:55:03Z</time></trkpt><trkpt lat="42.24696177903392" lon="14.154591966252331"><ele>310.0</ele><time>2026-05-01T12:55:06Z</time></trkpt><trkpt lat="42.24697601500038" lon="14.154468520550827"><ele>310.0</ele><time>2026-05-01T12:55:08Z</time></trkpt><trkpt lat="42.24690135549624" lon="14.154399711975717"><ele>310.0</ele><time>2026-05-01T12:55:10Z</time></trkpt><trkpt lat="42.24679530638094" lon="14.15438601177096"><ele>310.0</ele><time>2026-05-01T12:55:12Z</time></trkpt><trkpt lat="42.24673046526457" lon="14.154397898680598"><ele>310.0</ele><time>2026-05-01T12:55:13Z</time></trkpt><trkpt lat="42.24664346106488" lon="14.154390765966356"><ele>310.0</ele><time>2026-05-01T12:55:14Z</time></trkpt><trkpt lat="42.246556097494" lon="14.154384098775248"><ele>310.0</ele><time>2026-05-01T12:55:15Z</time></trkpt><trkpt lat="42.24647622315816" lon="14.154370444975159"><ele>310.0</ele><time>2026-05-01T12:55:16Z</time></trkpt><trkpt lat="42.24639448680986" lon="14.15437193923358"><ele>310.0</ele><time>2026-05-01T12:55:17Z</time></trkpt><trkpt lat="42.246320715284575" lon="14.154413822551366"><ele>310.0</ele><time>2026-05-01T12:55:18Z</time></trkpt><trkpt lat="42.24624259614919" lon="14.154474188112756"><ele>310.0</ele><time>2026-05-01T12:55:19Z</time></trkpt><trkpt lat="42.246173157567625" lon="14.154529741044628"><ele>310.0</ele><time>2026-05-01T12:55:20Z</time></trkpt><trkpt lat="42.24610981850029" lon="14.1545519849222"><ele>313.0</ele><time>2026-05-01T12:55:21Z</time></trkpt><trkpt lat="42.24596491128209" lon="14.154566251065464"><ele>316.0</ele><time>2026-05-01T12:55:23Z</time></trkpt><trkpt lat="42.24589422294174" lon="14.15460278264063"><ele>319.0</ele><time>2026-05-01T12:55:24Z</time></trkpt><trkpt lat="42.24583920394153" lon="14.154665783264237"><ele>322.0</ele><time>2026-05-01T12:55:25Z</time></trkpt><trkpt lat="42.245768625883095" lon="14.15474186938908"><ele>325.0</ele><time>2026-05-01T12:55:26Z</time></trkpt><trkpt lat="42.245671870759274" lon="14.154780951642099"><ele>328.6</ele><time>2026-05-01T12:55:27Z</time></trkpt><trkpt lat="42.24557062250309" lon="14.154820960006427"><ele>332.2</ele><time>2026-05-01T12:55:28Z</time></trkpt><trkpt lat="42.245499922117475" lon="14.154860463422878"><ele>335.79999999999995</ele><time>2026-05-01T12:55:29Z</time></trkpt><trkpt lat="42.245398561866004" lon="14.154964328329322"><ele>339.4</ele><time>2026-05-01T12:55:31Z</time></trkpt><trkpt lat="42.245330812447754" lon="14.155044777131621"><ele>343.0</ele><time>2026-05-01T12:55:32Z</time></trkpt><trkpt lat="42.24526162509981" lon="14.155126779258666"><ele>343.16666666666663</ele><time>2026-05-01T12:55:33Z</time></trkpt><trkpt lat="42.24519184692081" lon="14.155203530006832"><ele>343.3333333333333</ele><time>2026-05-01T12:55:34Z</time></trkpt><trkpt lat="42.24512255972979" lon="14.155274143727114"><ele>343.5</ele><time>2026-05-01T12:55:35Z</time></trkpt><trkpt lat="42.24506027111305" lon="14.155327946324226"><ele>343.6666666666667</ele><time>2026-05-01T12:55:36Z</time></trkpt><trkpt lat="42.24498757939125" lon="14.155366227866727"><ele>343.83333333333337</ele><time>2026-05-01T12:55:37Z</time></trkpt><trkpt lat="42.24491593467724" lon="14.155397588201055"><ele>344.0</ele><time>2026-05-01T12:55:38Z</time></trkpt><trkpt lat="42.24484397752267" lon="14.155418106585566"><ele>347.79999999999995</ele><time>2026-05-01T12:55:39Z</time></trkpt><trkpt lat="42.244760665767465" lon="14.155451339423129"><ele>351.59999999999997</ele><time>2026-05-01T12:55:40Z</time></trkpt><trkpt lat="42.24467876435528" lon="14.15549676308154"><ele>355.4</ele><time>2026-05-01T12:55:41Z</time></trkpt><trkpt lat="42.24460442942147" lon="14.155566427508514"><ele>359.2</ele><time>2026-05-01T12:55:42Z</time></trkpt><trkpt lat="42.244539676696334" lon="14.155650027723485"><ele>363.0</ele><time>2026-05-01T12:55:43Z</time></trkpt><trkpt lat="42.24447430756815" lon="14.15574735599204"><ele>363.0</ele><time>2026-05-01T12:55:44Z</time></trkpt><trkpt lat="42.24440186250777" lon="14.155838120225791"><ele>363.0</ele><time>2026-05-01T12:55:45Z</time></trkpt><trkpt lat="42.24434034087454" lon="14.15590018049632"><ele>363.0</ele><time>2026-05-01T12:55:46Z</time></trkpt><trkpt lat="42.244253153429696" lon="14.155906516967852"><ele>363.0</ele><time>2026-05-01T12:55:48Z</time></trkpt><trkpt lat="42.24416788444911" lon="14.155772359785328"><ele>363.0</ele><time>2026-05-01T12:55:50Z</time></trkpt><trkpt lat="42.24410023054155" lon="14.155670332601243"><ele>363.0</ele><time>2026-05-01T12:55:51Z</time></trkpt><trkpt lat="42.24403094556121" lon="14.15555947746339"><ele>363.0</ele><time>2026-05-01T12:55:52Z</time></trkpt><trkpt lat="42.24397039988234" lon="14.15547356526486"><ele>363.0</ele><time>2026-05-01T12:55:53Z</time></trkpt><trkpt lat="42.243920108954434" lon="14.15539160343"><ele>363.0</ele><time>2026-05-01T12:55:54Z</time></trkpt><trkpt lat="42.24387295218866" lon="14.155263710747171"><ele>363.0</ele><time>2026-05-01T12:55:55Z</time></trkpt><trkpt lat="42.24385058860653" lon="14.155090874522669"><ele>366.0</ele><time>2026-05-01T12:55:56Z</time></trkpt><trkpt lat="42.24382897794039" lon="14.154900883522064"><ele>369.0</ele><time>2026-05-01T12:55:57Z</time></trkpt><trkpt lat="42.243783338391026" lon="14.154712706502643"><ele>372.0</ele><time>2026-05-01T12:55:58Z</time></trkpt><trkpt lat="42.243711082248645" lon="14.154548463969352"><ele>375.0</ele><time>2026-05-01T12:55:59Z</time></trkpt><trkpt lat="42.24364157464146" lon="14.154389801209144"><ele>375.5</ele><time>2026-05-01T12:56:00Z</time></trkpt><trkpt lat="42.24356128030004" lon="14.154225004817924"><ele>376.0</ele><time>2026-05-01T12:56:01Z</time></trkpt><trkpt lat="42.24351203031379" lon="14.154059849544963"><ele>376.5</ele><time>2026-05-01T12:56:01.999Z</time></trkpt><trkpt lat="42.243494345665894" lon="14.153881065088896"><ele>377.0</ele><time>2026-05-01T12:56:02.999Z</time></trkpt><trkpt lat="42.24349313395175" lon="14.15367748338112"><ele>377.0</ele><time>2026-05-01T12:56:03.999Z</time></trkpt><trkpt lat="42.24348712733648" lon="14.153459440471117"><ele>377.0</ele><time>2026-05-01T12:56:04.999Z</time></trkpt><trkpt lat="42.24346518686565" lon="14.153253708960158"><ele>377.0</ele><time>2026-05-01T12:56:05.999Z</time></trkpt><trkpt lat="42.24340476598022" lon="14.15304426159429"><ele>377.75</ele><time>2026-05-01T12:56:06.999Z</time></trkpt><trkpt lat="42.24331150219412" lon="14.152857077135277"><ele>378.5</ele><time>2026-05-01T12:56:07.999Z</time></trkpt><trkpt lat="42.243233061421186" lon="14.152697211902256"><ele>379.25</ele><time>2026-05-01T12:56:08.999Z</time></trkpt><trkpt lat="42.24319022853558" lon="14.15252508003274"><ele>380.0</ele><time>2026-05-01T12:56:09.999Z</time></trkpt><trkpt lat="42.24318653824027" lon="14.152326399983403"><ele>380.6666666666667</ele><time>2026-05-01T12:56:10.999Z</time></trkpt><trkpt lat="42.24323399938873" lon="14.152113051276597"><ele>381.3333333333333</ele><time>2026-05-01T12:56:11.999Z</time></trkpt><trkpt lat="42.24328929392001" lon="14.151876553099465"><ele>382.0</ele><time>2026-05-01T12:56:12.999Z</time></trkpt><trkpt lat="42.24330822954717" lon="14.151618842708107"><ele>382.66666666666663</ele><time>2026-05-01T12:56:13.999Z</time></trkpt><trkpt lat="42.24328454098417" lon="14.151370022044476"><ele>383.3333333333333</ele><time>2026-05-01T12:56:14.999Z</time></trkpt><trkpt lat="42.243268581513725" lon="14.151158391305499"><ele>384.0</ele><time>2026-05-01T12:56:15.999Z</time></trkpt><trkpt lat="42.2432432016312" lon="14.150943369336478"><ele>384.0</ele><time>2026-05-01T12:56:16.999Z</time></trkpt><trkpt lat="42.24317569558881" lon="14.150745218897361"><ele>384.0</ele><time>2026-05-01T12:56:17.999Z</time></trkpt><trkpt lat="42.24308858728232" lon="14.150556029427873"><ele>384.0</ele><time>2026-05-01T12:56:18.999Z</time></trkpt><trkpt lat="42.24301394461837" lon="14.150356401705725"><ele>383.6666666666667</ele><time>2026-05-01T12:56:19.999Z</time></trkpt><trkpt lat="42.24296289919389" lon="14.150127223522052"><ele>383.33333333333337</ele><time>2026-05-01T12:56:20.999Z</time></trkpt><trkpt lat="42.242923074954156" lon="14.149884562732321"><ele>383.0</ele><time>2026-05-01T12:56:21.999Z</time></trkpt><trkpt lat="42.24289547391046" lon="14.149661473596105"><ele>385.33333333333337</ele><time>2026-05-01T12:56:22.999Z</time></trkpt><trkpt lat="42.24285427538695" lon="14.149442435856406"><ele>387.6666666666667</ele><time>2026-05-01T12:56:24Z</time></trkpt><trkpt lat="42.242812018885786" lon="14.149207168751996"><ele>390.0</ele><time>2026-05-01T12:56:25Z</time></trkpt><trkpt lat="42.24278441119022" lon="14.148968158962491"><ele>391.66666666666663</ele><time>2026-05-01T12:56:26Z</time></trkpt><trkpt lat="42.24277675918326" lon="14.148712699930183"><ele>393.3333333333333</ele><time>2026-05-01T12:56:27Z</time></trkpt><trkpt lat="42.242776165481395" lon="14.148452927795717"><ele>395.0</ele><time>2026-05-01T12:56:28Z</time></trkpt><trkpt lat="42.24277306230673" lon="14.148195394521359"><ele>396.3333333333333</ele><time>2026-05-01T12:56:29Z</time></trkpt><trkpt lat="42.242773182070344" lon="14.147954860940922"><ele>397.66666666666663</ele><time>2026-05-01T12:56:30Z</time></trkpt><trkpt lat="42.24277034922741" lon="14.147726839661459"><ele>399.0</ele><time>2026-05-01T12:56:31Z</time></trkpt><trkpt lat="42.242756672424846" lon="14.147490995477236"><ele>399.66666666666663</ele><time>2026-05-01T12:56:32Z</time></trkpt><trkpt lat="42.242741212731815" lon="14.147250088247393"><ele>400.3333333333333</ele><time>2026-05-01T12:56:33Z</time></trkpt><trkpt lat="42.24274093055937" lon="14.14700457901399"><ele>401.0</ele><time>2026-05-01T12:56:34Z</time></trkpt><trkpt lat="42.242762818663934" lon="14.14676866495065"><ele>401.0</ele><time>2026-05-01T12:56:35Z</time></trkpt><trkpt lat="42.24279383146479" lon="14.146541289852552"><ele>401.0</ele><time>2026-05-01T12:56:36Z</time></trkpt><trkpt lat="42.24282204890798" lon="14.146340146338602"><ele>401.0</ele><time>2026-05-01T12:56:37Z</time></trkpt><trkpt lat="42.242851115683905" lon="14.146147058852458"><ele>401.0</ele><time>2026-05-01T12:56:38Z</time></trkpt><trkpt lat="42.2428859242459" lon="14.145934453508797"><ele>401.0</ele><time>2026-05-01T12:56:39Z</time></trkpt><trkpt lat="42.24290203970372" lon="14.145722556365152"><ele>401.0</ele><time>2026-05-01T12:56:40Z</time></trkpt><trkpt lat="42.24290366394875" lon="14.145522385668658"><ele>402.66666666666663</ele><time>2026-05-01T12:56:41Z</time></trkpt><trkpt lat="42.24290241861714" lon="14.145313891794727"><ele>404.33333333333337</ele><time>2026-05-01T12:56:42Z</time></trkpt><trkpt lat="42.2428980261111" lon="14.14509445506535"><ele>406.0</ele><time>2026-05-01T12:56:43Z</time></trkpt><trkpt lat="42.24287591880521" lon="14.14487141889496"><ele>409.6666666666667</ele><time>2026-05-01T12:56:44Z</time></trkpt><trkpt lat="42.24284131497523" lon="14.144658581855307"><ele>413.33333333333337</ele><time>2026-05-01T12:56:45Z</time></trkpt><trkpt lat="42.24281009528958" lon="14.144461330789232"><ele>417.0</ele><time>2026-05-01T12:56:46Z</time></trkpt><trkpt lat="42.24278320760216" lon="14.14424915517495"><ele>414.5</ele><time>2026-05-01T12:56:47Z</time></trkpt><trkpt lat="42.242756406735" lon="14.144038796775414"><ele>412.0</ele><time>2026-05-01T12:56:48Z</time></trkpt><trkpt lat="42.24273716974096" lon="14.143842680103587"><ele>409.5</ele><time>2026-05-01T12:56:49Z</time></trkpt><trkpt lat="42.242729406870865" lon="14.143658817270932"><ele>407.0</ele><time>2026-05-01T12:56:50Z</time></trkpt><trkpt lat="42.24274707472529" lon="14.143494671234478"><ele>407.0</ele><time>2026-05-01T12:56:51Z</time></trkpt><trkpt lat="42.24280132422249" lon="14.14334786613113"><ele>407.0</ele><time>2026-05-01T12:56:52Z</time></trkpt><trkpt lat="42.2428783893307" lon="14.143199654749939"><ele>407.0</ele><time>2026-05-01T12:56:53Z</time></trkpt><trkpt lat="42.24298027172766" lon="14.14306536257686"><ele>407.0</ele><time>2026-05-01T12:56:54Z</time></trkpt><trkpt lat="42.243070159802734" lon="14.14293291229054"><ele>405.66666666666663</ele><time>2026-05-01T12:56:55Z</time></trkpt><trkpt lat="42.24313700344704" lon="14.142756296488386"><ele>404.33333333333337</ele><time>2026-05-01T12:56:56Z</time></trkpt><trkpt lat="42.24316339676509" lon="14.142522117023553"><ele>403.0</ele><time>2026-05-01T12:56:57Z</time></trkpt><trkpt lat="42.243167198749504" lon="14.14225847712636"><ele>402.6666666666667</ele><time>2026-05-01T12:56:58Z</time></trkpt><trkpt lat="42.243158582728334" lon="14.142005476586194"><ele>402.33333333333337</ele><time>2026-05-01T12:56:59Z</time></trkpt><trkpt lat="42.24313289602959" lon="14.141745573681323"><ele>402.0</ele><time>2026-05-01T12:57:00Z</time></trkpt><trkpt lat="42.24309550965309" lon="14.141477197237382"><ele>402.0</ele><time>2026-05-01T12:57:01Z</time></trkpt><trkpt lat="42.24305607980717" lon="14.14121044593444"><ele>402.0</ele><time>2026-05-01T12:57:02Z</time></trkpt><trkpt lat="42.2430293151618" lon="14.140934746463747"><ele>402.0</ele><time>2026-05-01T12:57:03Z</time></trkpt><trkpt lat="42.243013978377775" lon="14.140699184544673"><ele>405.0</ele><time>2026-05-01T12:57:04Z</time></trkpt><trkpt lat="42.243001372432396" lon="14.140487962982824"><ele>408.0</ele><time>2026-05-01T12:57:05Z</time></trkpt><trkpt lat="42.242969174496274" lon="14.1402783365588"><ele>411.0</ele><time>2026-05-01T12:57:06Z</time></trkpt><trkpt lat="42.24290456161501" lon="14.14005703781812"><ele>413.0</ele><time>2026-05-01T12:57:07Z</time></trkpt><trkpt lat="42.242818448702735" lon="14.139818094332234"><ele>415.0</ele><time>2026-05-01T12:57:08Z</time></trkpt><trkpt lat="42.242736458551036" lon="14.139570251900878"><ele>417.0</ele><time>2026-05-01T12:57:09Z</time></trkpt><trkpt lat="42.242654744423795" lon="14.139307682571213"><ele>417.0</ele><time>2026-05-01T12:57:10Z</time></trkpt><trkpt lat="42.242587226531285" lon="14.139068460506811"><ele>417.0</ele><time>2026-05-01T12:57:11Z</time></trkpt><trkpt lat="42.24253846218406" lon="14.138839622159205"><ele>417.0</ele><time>2026-05-01T12:57:12Z</time></trkpt><trkpt lat="42.24250547481307" lon="14.138612734239288"><ele>417.66666666666663</ele><time>2026-05-01T12:57:13Z</time></trkpt><trkpt lat="42.24248011734912" lon="14.138367130605598"><ele>418.3333333333333</ele><time>2026-05-01T12:57:14Z</time></trkpt><trkpt lat="42.24246587924114" lon="14.138102864250875"><ele>419.0</ele><time>2026-05-01T12:57:15Z</time></trkpt><trkpt lat="42.24246319493277" lon="14.137834635874977"><ele>420.3333333333333</ele><time>2026-05-01T12:57:16Z</time></trkpt><trkpt lat="42.24246455674365" lon="14.13756011818612"><ele>421.66666666666663</ele><time>2026-05-01T12:57:17Z</time></trkpt><trkpt lat="42.24246068340149" lon="14.137305696659174"><ele>423.0</ele><time>2026-05-01T12:57:18Z</time></trkpt><trkpt lat="42.24244349609127" lon="14.137084651938041"><ele>423.66666666666663</ele><time>2026-05-01T12:57:19Z</time></trkpt><trkpt lat="42.242411758345064" lon="14.136884674722454"><ele>424.3333333333333</ele><time>2026-05-01T12:57:20Z</time></trkpt><trkpt lat="42.24237674253614" lon="14.136672781316518"><ele>425.0</ele><time>2026-05-01T12:57:21Z</time></trkpt><trkpt lat="42.24236727803623" lon="14.136450623282496"><ele>426.0</ele><time>2026-05-01T12:57:22Z</time></trkpt><trkpt lat="42.24238709757949" lon="14.136218090266986"><ele>427.0</ele><time>2026-05-01T12:57:23Z</time></trkpt><trkpt lat="42.24240715580878" lon="14.136005555120878"><ele>428.0</ele><time>2026-05-01T12:57:24Z</time></trkpt><trkpt lat="42.24241584288531" lon="14.135918675194372"><ele>429.0</ele><time>2026-05-01T12:57:25Z</time></trkpt><trkpt lat="42.242422504329745" lon="14.135826274110192"><ele>429.0</ele><time>2026-05-01T12:57:27Z</time></trkpt><trkpt lat="42.242392802367284" lon="14.136043994802126"><ele>429.0</ele><time>2026-05-01T12:57:43Z</time></trkpt><trkpt lat="42.24237233770033" lon="14.136197438978055"><ele>429.0</ele><time>2026-05-01T12:57:44Z</time></trkpt><trkpt lat="42.24241697429987" lon="14.136269889005355"><ele>429.0</ele><time>2026-05-01T12:57:46Z</time></trkpt><trkpt lat="42.242496897360446" lon="14.136172049107605"><ele>429.0</ele><time>2026-05-01T12:57:48Z</time></trkpt><trkpt lat="42.24251852381165" lon="14.136069325864163"><ele>429.0</ele><time>2026-05-01T12:57:49Z</time></trkpt><trkpt lat="42.24253026434754" lon="14.135962546944391"><ele>429.0</ele><time>2026-05-01T12:57:50Z</time></trkpt><trkpt lat="42.24256874313695" lon="14.135841820075505"><ele>429.0</ele><time>2026-05-01T12:57:51Z</time></trkpt><trkpt lat="42.242615511671886" lon="14.135742459974184"><ele>429.0</ele><time>2026-05-01T12:57:52Z</time></trkpt><trkpt lat="42.24265628437429" lon="14.135660156117352"><ele>429.0</ele><time>2026-05-01T12:57:53Z</time></trkpt><trkpt lat="42.24270801784334" lon="14.135556889418064"><ele>429.0</ele><time>2026-05-01T12:57:55Z</time></trkpt><trkpt lat="42.24277195744964" lon="14.135439555395017"><ele>429.0</ele><time>2026-05-01T12:57:57Z</time></trkpt><trkpt lat="42.24283834970857" lon="14.13532523119678"><ele>429.0</ele><time>2026-05-01T12:57:59Z</time></trkpt><trkpt lat="42.242893301190435" lon="14.135269601436317"><ele>429.0</ele><time>2026-05-01T12:58:00.999Z</time></trkpt><trkpt lat="42.24298966585046" lon="14.135252691702803"><ele>429.0</ele><time>2026-05-01T12:58:02.999Z</time></trkpt><trkpt lat="42.243084262334364" lon="14.135276614636327"><ele>429.0</ele><time>2026-05-01T12:58:04.999Z</time></trkpt><trkpt lat="42.2431262072111" lon="14.135341279787417"><ele>429.0</ele><time>2026-05-01T12:58:06.999Z</time></trkpt><trkpt lat="42.24315694240245" lon="14.135463722834537"><ele>429.0</ele><time>2026-05-01T12:58:15.999Z</time></trkpt><trkpt lat="42.24316592716745" lon="14.135575584484982"><ele>429.0</ele><time>2026-05-01T12:58:17.999Z</time></trkpt><trkpt lat="42.243183753751204" lon="14.135704260660964"><ele>429.0</ele><time>2026-05-01T12:58:19.999Z</time></trkpt><trkpt lat="42.24319032895716" lon="14.135800540650946"><ele>429.0</ele><time>2026-05-01T12:58:21.999Z</time></trkpt><trkpt lat="42.243175279420974" lon="14.1357019278154"><ele>429.0</ele><time>2026-05-01T12:58:59Z</time></trkpt><trkpt lat="42.24316369975591" lon="14.135562279749063"><ele>429.0</ele><time>2026-05-01T12:59:01Z</time></trkpt><trkpt lat="42.24316383076197" lon="14.13547685677863"><ele>429.0</ele><time>2026-05-01T12:59:02Z</time></trkpt><trkpt lat="42.24315575237396" lon="14.13538915071768"><ele>429.0</ele><time>2026-05-01T12:59:03Z</time></trkpt><trkpt lat="42.24309829126483" lon="14.135332134844651"><ele>429.0</ele><time>2026-05-01T13:00:29.999Z</time></trkpt><trkpt lat="42.24302723949429" lon="14.135286117902153"><ele>429.0</ele><time>2026-05-01T13:00:31.999Z</time></trkpt><trkpt lat="42.24295722319123" lon="14.135285563821222"><ele>429.0</ele><time>2026-05-01T13:00:34.999Z</time></trkpt><trkpt lat="42.24296025069731" lon="14.13516412667843"><ele>429.0</ele><time>2026-05-01T13:00:49Z</time></trkpt><trkpt lat="42.24300700092718" lon="14.135091933581139"><ele>429.0</ele><time>2026-05-01T13:00:50Z</time></trkpt><trkpt lat="42.243083394434024" lon="14.135035800894176"><ele>429.0</ele><time>2026-05-01T13:00:52Z</time></trkpt><trkpt lat="42.24316809616552" lon="14.135020156859444"><ele>429.0</ele><time>2026-05-01T13:00:54Z</time></trkpt><trkpt lat="42.243273460891544" lon="14.135042207220367"><ele>429.0</ele><time>2026-05-01T13:00:56Z</time></trkpt><trkpt lat="42.24337839434309" lon="14.135017977778839"><ele>427.0</ele><time>2026-05-01T13:00:58Z</time></trkpt><trkpt lat="42.24344408575609" lon="14.134958653233628"><ele>425.0</ele><time>2026-05-01T13:01:00Z</time></trkpt><trkpt lat="42.24354378966214" lon="14.134894888729436"><ele>423.0</ele><time>2026-05-01T13:01:02.001Z</time></trkpt><trkpt lat="42.24362235145979" lon="14.134812552278511"><ele>421.0</ele><time>2026-05-01T13:01:04.001Z</time></trkpt><trkpt lat="42.24367837457497" lon="14.134725491998712"><ele>419.0</ele><time>2026-05-01T13:01:06.001Z</time></trkpt><trkpt lat="42.243727588905024" lon="14.134635723274602"><ele>418.99999999999994</ele><time>2026-05-01T13:01:08.001Z</time></trkpt><trkpt lat="42.24377662593413" lon="14.134568420380852"><ele>419.0</ele><time>2026-05-01T13:01:10.001Z</time></trkpt><trkpt lat="42.24381772600666" lon="14.134503277142038"><ele>419.0</ele><time>2026-05-01T13:02:04Z</time></trkpt><trkpt lat="42.243878468334024" lon="14.134415491797885"><ele>419.0</ele><time>2026-05-01T13:02:08Z</time></trkpt><trkpt lat="42.243921287451556" lon="14.134349049514883"><ele>418.99999999999994</ele><time>2026-05-01T13:02:11Z</time></trkpt><trkpt lat="42.24396417116206" lon="14.13427655880786"><ele>419.0</ele><time>2026-05-01T13:02:14Z</time></trkpt><trkpt lat="42.243991059871696" lon="14.134148805718835"><ele>418.57142857142856</ele><time>2026-05-01T13:02:17Z</time></trkpt><trkpt lat="42.24399466133844" lon="14.134063193934415"><ele>418.1428571428571</ele><time>2026-05-01T13:02:28Z</time></trkpt><trkpt lat="42.243999276584375" lon="14.133954731922405"><ele>417.71428571428567</ele><time>2026-05-01T13:02:31Z</time></trkpt><trkpt lat="42.244071993275064" lon="14.133948650187348"><ele>417.2857142857143</ele><time>2026-05-01T13:04:04Z</time></trkpt><trkpt lat="42.244016311150844" lon="14.13401702300177"><ele>416.8571428571429</ele><time>2026-05-01T13:04:07Z</time></trkpt><trkpt lat="42.24406589225922" lon="14.133956593371874"><ele>416.4285714285714</ele><time>2026-05-01T13:04:55.001Z</time></trkpt><trkpt lat="42.24406860154902" lon="14.133868128123686"><ele>416.0</ele><time>2026-05-01T13:13:19.001Z</time></trkpt><trkpt lat="42.24405455455799" lon="14.133745519771429"><ele>415.99999999999994</ele><time>2026-05-01T13:13:20.001Z</time></trkpt><trkpt lat="42.24407541544632" lon="14.133916272036561"><ele>416.0</ele><time>2026-05-01T13:13:21.001Z</time></trkpt><trkpt lat="42.244092915793935" lon="14.133818644412477"><ele>416.0</ele><time>2026-05-01T13:14:14Z</time></trkpt><trkpt lat="42.24408505773395" lon="14.133723604226155"><ele>416.0</ele><time>2026-05-01T13:14:17Z</time></trkpt><trkpt lat="42.244050539957456" lon="14.133651789484603"><ele>415.99999999999994</ele><time>2026-05-01T13:14:19Z</time></trkpt><trkpt lat="42.24399309741723" lon="14.133584157270542"><ele>416.0</ele><time>2026-05-01T13:14:34Z</time></trkpt><trkpt lat="42.24396864621462" lon="14.133494709725717"><ele>415.99999999999994</ele><time>2026-05-01T13:14:45Z</time></trkpt><trkpt lat="42.24398210519008" lon="14.133386709614769"><ele>416.0</ele><time>2026-05-01T13:14:48Z</time></trkpt><trkpt lat="42.24399753776409" lon="14.133297207456204"><ele>416.0</ele><time>2026-05-01T13:14:50Z</time></trkpt><trkpt lat="42.24402773766435" lon="14.13317345659005"><ele>416.0</ele><time>2026-05-01T13:14:51.999Z</time></trkpt><trkpt lat="42.244047413039766" lon="14.133047677918107"><ele>415.99999999999994</ele><time>2026-05-01T13:14:53.999Z</time></trkpt><trkpt lat="42.24409520343399" lon="14.132918949763907"><ele>416.0</ele><time>2026-05-01T13:14:55.999Z</time></trkpt><trkpt lat="42.244136095686684" lon="14.132846726028143"><ele>418.8</ele><time>2026-05-01T13:14:56.999Z</time></trkpt><trkpt lat="42.24419231383392" lon="14.132706328116868"><ele>421.6</ele><time>2026-05-01T13:14:58.999Z</time></trkpt><trkpt lat="42.24422624435662" lon="14.132587728103074"><ele>424.4</ele><time>2026-05-01T13:15:00.999Z</time></trkpt><trkpt lat="42.2443291537355" lon="14.132628115231556"><ele>427.2</ele><time>2026-05-01T13:15:03.999Z</time></trkpt><trkpt lat="42.24438666959238" lon="14.132662907605443"><ele>430.0</ele><time>2026-05-01T13:15:04.999Z</time></trkpt><trkpt lat="42.24446901986179" lon="14.132607149779219"><ele>430.00000000000006</ele><time>2026-05-01T13:15:06.999Z</time></trkpt><trkpt lat="42.24455041054694" lon="14.132532279319353"><ele>430.0</ele><time>2026-05-01T13:15:09.999Z</time></trkpt><trkpt lat="42.24461273135776" lon="14.132544651003293"><ele>430.0</ele><time>2026-05-01T13:15:10.999Z</time></trkpt><trkpt lat="42.24467537175072" lon="14.132567439617018"><ele>430.0</ele><time>2026-05-01T13:15:11.999Z</time></trkpt><trkpt lat="42.244789092790704" lon="14.132549574896917"><ele>430.00000000000006</ele><time>2026-05-01T13:15:13.999Z</time></trkpt><trkpt lat="42.24488880407412" lon="14.132578794417796"><ele>430.0</ele><time>2026-05-01T13:15:16Z</time></trkpt><trkpt lat="42.24499514354102" lon="14.13260868910033"><ele>428.50000000000006</ele><time>2026-05-01T13:15:18Z</time></trkpt><trkpt lat="42.24507187448459" lon="14.13258128474805"><ele>427.0</ele><time>2026-05-01T13:15:19Z</time></trkpt><trkpt lat="42.24514336884797" lon="14.132541226814071"><ele>425.5</ele><time>2026-05-01T13:15:20Z</time></trkpt><trkpt lat="42.24520498775356" lon="14.132501846109191"><ele>424.0</ele><time>2026-05-01T13:15:21Z</time></trkpt><trkpt lat="42.245275705198225" lon="14.1325303589554"><ele>422.50000000000006</ele><time>2026-05-01T13:15:23Z</time></trkpt><trkpt lat="42.245347369084946" lon="14.132661681493813"><ele>421.0</ele><time>2026-05-01T13:15:25Z</time></trkpt><trkpt lat="42.24533709046794" lon="14.132812335328762"><ele>421.0</ele><time>2026-05-01T13:15:26Z</time></trkpt><trkpt lat="42.24541407257962" lon="14.132892773506141"><ele>421.0</ele><time>2026-05-01T13:15:28Z</time></trkpt><trkpt lat="42.24547674197388" lon="14.132967107024994"><ele>421.0</ele><time>2026-05-01T13:15:30Z</time></trkpt><trkpt lat="42.24556409328682" lon="14.133040451871018"><ele>421.0</ele><time>2026-05-01T13:15:32Z</time></trkpt><trkpt lat="42.24568690122573" lon="14.133063304414906"><ele>421.0</ele><time>2026-05-01T13:15:34Z</time></trkpt><trkpt lat="42.24575625595839" lon="14.133085735887596"><ele>418.0</ele><time>2026-05-01T13:15:35Z</time></trkpt><trkpt lat="42.24581956655685" lon="14.133096859419926"><ele>415.0</ele><time>2026-05-01T13:15:36Z</time></trkpt><trkpt lat="42.24593722549052" lon="14.133118212048243"><ele>412.0</ele><time>2026-05-01T13:15:38Z</time></trkpt><trkpt lat="42.24605863836469" lon="14.133137517339305"><ele>409.0</ele><time>2026-05-01T13:15:40Z</time></trkpt><trkpt lat="42.24616343535313" lon="14.133138241696955"><ele>406.0</ele><time>2026-05-01T13:15:42Z</time></trkpt><trkpt lat="42.24623103308609" lon="14.133126703008102"><ele>406.00000000000006</ele><time>2026-05-01T13:15:44Z</time></trkpt><trkpt lat="42.24629957540378" lon="14.133068762707799"><ele>406.0</ele><time>2026-05-01T13:16:01Z</time></trkpt><trkpt lat="42.24636586191907" lon="14.13307066227429"><ele>406.0</ele><time>2026-05-01T13:16:02Z</time></trkpt><trkpt lat="42.246429956518696" lon="14.133052818150949"><ele>406.0</ele><time>2026-05-01T13:16:03Z</time></trkpt><trkpt lat="42.246477986743386" lon="14.132989127539712"><ele>406.00000000000006</ele><time>2026-05-01T13:16:04Z</time></trkpt><trkpt lat="42.24653296176157" lon="14.132907898727108"><ele>406.0</ele><time>2026-05-01T13:16:05Z</time></trkpt><trkpt lat="42.24657194698638" lon="14.132782201746219"><ele>405.00000000000006</ele><time>2026-05-01T13:16:06Z</time></trkpt><trkpt lat="42.24660793190837" lon="14.132651066189378"><ele>404.0</ele><time>2026-05-01T13:16:07Z</time></trkpt><trkpt lat="42.246628062931464" lon="14.132529567796427"><ele>403.0</ele><time>2026-05-01T13:16:08Z</time></trkpt><trkpt lat="42.2466706913424" lon="14.132438985922661"><ele>402.0</ele><time>2026-05-01T13:16:09Z</time></trkpt><trkpt lat="42.246725860283" lon="14.132376783686986"><ele>401.00000000000006</ele><time>2026-05-01T13:16:10Z</time></trkpt><trkpt lat="42.24679606553008" lon="14.132354525418696"><ele>400.0</ele><time>2026-05-01T13:16:11Z</time></trkpt><trkpt lat="42.24686574855007" lon="14.13237860386961"><ele>399.50000000000006</ele><time>2026-05-01T13:16:12Z</time></trkpt><trkpt lat="42.24691979165399" lon="14.132440711891626"><ele>399.0</ele><time>2026-05-01T13:16:13Z</time></trkpt><trkpt lat="42.246951486574716" lon="14.132532986321632"><ele>398.5</ele><time>2026-05-01T13:16:14Z</time></trkpt><trkpt lat="42.24695917599267" lon="14.132647554212571"><ele>398.0</ele><time>2026-05-01T13:16:15Z</time></trkpt><trkpt lat="42.24694416389997" lon="14.132765944179926"><ele>397.50000000000006</ele><time>2026-05-01T13:16:16Z</time></trkpt><trkpt lat="42.24692186456921" lon="14.132894298903748"><ele>397.0</ele><time>2026-05-01T13:16:17Z</time></trkpt><trkpt lat="42.246905571926895" lon="14.13300881475271"><ele>397.00000000000006</ele><time>2026-05-01T13:16:18Z</time></trkpt><trkpt lat="42.24689638641449" lon="14.133095788282501"><ele>397.0</ele><time>2026-05-01T13:16:19Z</time></trkpt><trkpt lat="42.246895853791735" lon="14.133188478066977"><ele>397.0</ele><time>2026-05-01T13:16:21Z</time></trkpt><trkpt lat="42.24699169919727" lon="14.13321347093244"><ele>397.0</ele><time>2026-05-01T13:16:44.999Z</time></trkpt><trkpt lat="42.247059764393576" lon="14.13322099650663"><ele>397.00000000000006</ele><time>2026-05-01T13:16:45.999Z</time></trkpt><trkpt lat="42.24713215253971" lon="14.133263742639043"><ele>397.0</ele><time>2026-05-01T13:16:46.999Z</time></trkpt><trkpt lat="42.2472204496003" lon="14.133296515293928"><ele>394.85714285714283</ele><time>2026-05-01T13:16:47.999Z</time></trkpt><trkpt lat="42.24729791971202" lon="14.13332931294683"><ele>392.71428571428567</ele><time>2026-05-01T13:16:48.999Z</time></trkpt><trkpt lat="42.24737142085456" lon="14.133367328884665"><ele>390.57142857142856</ele><time>2026-05-01T13:16:49.999Z</time></trkpt><trkpt lat="42.247434607447346" lon="14.133405429459842"><ele>388.42857142857144</ele><time>2026-05-01T13:16:50.999Z</time></trkpt><trkpt lat="42.2474945791421" lon="14.13344503537515"><ele>386.2857142857143</ele><time>2026-05-01T13:16:51.999Z</time></trkpt><trkpt lat="42.24755520098294" lon="14.133489415621337"><ele>384.14285714285717</ele><time>2026-05-01T13:16:52.999Z</time></trkpt><trkpt lat="42.24760865472701" lon="14.13353744114301"><ele>382.0</ele><time>2026-05-01T13:16:53.999Z</time></trkpt><trkpt lat="42.247700717938606" lon="14.133614364270878"><ele>382.0</ele><time>2026-05-01T13:16:55.999Z</time></trkpt><trkpt lat="42.2478079465746" lon="14.133684294617565"><ele>382.0</ele><time>2026-05-01T13:16:57.999Z</time></trkpt><trkpt lat="42.24790850586427" lon="14.133745256025145"><ele>382.0</ele><time>2026-05-01T13:16:59.999Z</time></trkpt><trkpt lat="42.24801296784211" lon="14.1338293109571"><ele>382.0</ele><time>2026-05-01T13:17:01.999Z</time></trkpt><trkpt lat="42.248128471288034" lon="14.133920347770722"><ele>380.3333333333333</ele><time>2026-05-01T13:17:03.999Z</time></trkpt><trkpt lat="42.24818588408561" lon="14.1339703991994"><ele>378.66666666666663</ele><time>2026-05-01T13:17:04.999Z</time></trkpt><trkpt lat="42.248242965032524" lon="14.134020161924873"><ele>377.0</ele><time>2026-05-01T13:17:05.999Z</time></trkpt><trkpt lat="42.24830298714435" lon="14.134063570549136"><ele>375.3333333333333</ele><time>2026-05-01T13:17:06.999Z</time></trkpt><trkpt lat="42.24836730030901" lon="14.13409223733394"><ele>373.6666666666667</ele><time>2026-05-01T13:17:07.999Z</time></trkpt><trkpt lat="42.248438917649196" lon="14.134110259622913"><ele>372.0</ele><time>2026-05-01T13:17:08.999Z</time></trkpt><trkpt lat="42.248547431188875" lon="14.134174102236686"><ele>371.6</ele><time>2026-05-01T13:17:10.999Z</time></trkpt><trkpt lat="42.2486238392758" lon="14.134329776746869"><ele>371.20000000000005</ele><time>2026-05-01T13:17:12.999Z</time></trkpt><trkpt lat="42.2486770136948" lon="14.134418837619958"><ele>370.8</ele><time>2026-05-01T13:17:13.999Z</time></trkpt><trkpt lat="42.24873082544454" lon="14.134515191389996"><ele>370.4</ele><time>2026-05-01T13:17:14.999Z</time></trkpt><trkpt lat="42.24878558565721" lon="14.134633813570074"><ele>370.0</ele><time>2026-05-01T13:17:15.999Z</time></trkpt><trkpt lat="42.24884632972144" lon="14.134758283541654"><ele>370.0</ele><time>2026-05-01T13:17:16.999Z</time></trkpt><trkpt lat="42.248880114518656" lon="14.13488520507485"><ele>370.0</ele><time>2026-05-01T13:17:17.999Z</time></trkpt><trkpt lat="42.24890364692143" lon="14.134988695880805"><ele>370.0</ele><time>2026-05-01T13:17:18.999Z</time></trkpt><trkpt lat="42.2488860362667" lon="14.135070448645498"><ele>370.0</ele><time>2026-05-01T13:17:19.999Z</time></trkpt><trkpt lat="42.24890642739129" lon="14.135162562474042"><ele>370.0</ele><time>2026-05-01T13:17:22Z</time></trkpt><trkpt lat="42.24892960099302" lon="14.135246658343688"><ele>370.0</ele><time>2026-05-01T13:17:24Z</time></trkpt><trkpt lat="42.24892647070667" lon="14.13538395981778"><ele>367.2</ele><time>2026-05-01T13:17:26Z</time></trkpt><trkpt lat="42.24892980036777" lon="14.13552491182984"><ele>364.4</ele><time>2026-05-01T13:17:28Z</time></trkpt><trkpt lat="42.2489331798366" lon="14.13562294260514"><ele>361.6</ele><time>2026-05-01T13:17:30Z</time></trkpt><trkpt lat="42.24892842069432" lon="14.135484890425992"><ele>358.8</ele><time>2026-05-01T13:17:56Z</time></trkpt><trkpt lat="42.2489258133217" lon="14.13534381351925"><ele>356.0</ele><time>2026-05-01T13:17:58Z</time></trkpt><trkpt lat="42.24900762919705" lon="14.135238768672503"><ele>356.0</ele><time>2026-05-01T13:18:00Z</time></trkpt><trkpt lat="42.2489441269385" lon="14.135264646942087"><ele>356.0</ele><time>2026-05-01T13:18:04Z</time></trkpt><trkpt lat="42.24891426045797" lon="14.13538891037343"><ele>356.0</ele><time>2026-05-01T13:18:06Z</time></trkpt><trkpt lat="42.248929509618044" lon="14.135561487263088"><ele>356.0</ele><time>2026-05-01T13:18:08Z</time></trkpt><trkpt lat="42.24893548467412" lon="14.135682005217788"><ele>356.0</ele><time>2026-05-01T13:18:09Z</time></trkpt><trkpt lat="42.248938827081076" lon="14.135789284671059"><ele>355.0</ele><time>2026-05-01T13:18:10Z</time></trkpt><trkpt lat="42.24894551848247" lon="14.135921490561111"><ele>354.0</ele><time>2026-05-01T13:18:11Z</time></trkpt><trkpt lat="42.24896002199596" lon="14.136067489230106"><ele>353.0</ele><time>2026-05-01T13:18:12Z</time></trkpt><trkpt lat="42.2489926538658" lon="14.136194618528222"><ele>352.0</ele><time>2026-05-01T13:18:13Z</time></trkpt><trkpt lat="42.24905279321431" lon="14.136299215997596"><ele>351.0</ele><time>2026-05-01T13:18:14Z</time></trkpt><trkpt lat="42.24911151992632" lon="14.136359900317121"><ele>351.0</ele><time>2026-05-01T13:18:15Z</time></trkpt><trkpt lat="42.24919511426501" lon="14.136413959564226"><ele>351.0</ele><time>2026-05-01T13:18:17Z</time></trkpt><trkpt lat="42.24925653142778" lon="14.136453748846614"><ele>351.0</ele><time>2026-05-01T13:18:20.999Z</time></trkpt><trkpt lat="42.24931060568648" lon="14.136510738871522"><ele>351.0</ele><time>2026-05-01T13:18:29.999Z</time></trkpt><trkpt lat="42.24935960645714" lon="14.136573232239254"><ele>351.0</ele><time>2026-05-01T13:18:31.999Z</time></trkpt><trkpt lat="42.24940375305398" lon="14.136645920016518"><ele>351.0</ele><time>2026-05-01T13:18:33.999Z</time></trkpt><trkpt lat="42.24947983915334" lon="14.13670473183901"><ele>348.8</ele><time>2026-05-01T13:18:35.999Z</time></trkpt><trkpt lat="42.24953780348343" lon="14.136754868896789"><ele>346.6</ele><time>2026-05-01T13:18:36.999Z</time></trkpt><trkpt lat="42.24966048803889" lon="14.13682802183406"><ele>344.4</ele><time>2026-05-01T13:18:38.999Z</time></trkpt><trkpt lat="42.249731496589355" lon="14.136879029761168"><ele>342.2</ele><time>2026-05-01T13:18:39.999Z</time></trkpt><trkpt lat="42.24980259674698" lon="14.13692476160632"><ele>340.0</ele><time>2026-05-01T13:18:40.999Z</time></trkpt><trkpt lat="42.249884893135544" lon="14.136974432347568"><ele>338.5</ele><time>2026-05-01T13:18:41.999Z</time></trkpt><trkpt lat="42.24997872358964" lon="14.13702377183176"><ele>337.0</ele><time>2026-05-01T13:18:42.999Z</time></trkpt><trkpt lat="42.25006391279985" lon="14.137063153745588"><ele>335.5</ele><time>2026-05-01T13:18:43.999Z</time></trkpt><trkpt lat="42.250139593157876" lon="14.137104915252939"><ele>334.0</ele><time>2026-05-01T13:18:44.999Z</time></trkpt><trkpt lat="42.250212241699174" lon="14.137144780956278"><ele>332.5</ele><time>2026-05-01T13:18:45.999Z</time></trkpt><trkpt lat="42.25029903631911" lon="14.137191661044751"><ele>331.0</ele><time>2026-05-01T13:18:46.999Z</time></trkpt><trkpt lat="42.250391927165204" lon="14.137235913539097"><ele>331.0</ele><time>2026-05-01T13:18:47.999Z</time></trkpt><trkpt lat="42.250477527370826" lon="14.137273378826102"><ele>331.0</ele><time>2026-05-01T13:18:48.999Z</time></trkpt><trkpt lat="42.25056136421291" lon="14.137314064612694"><ele>331.0</ele><time>2026-05-01T13:18:49.999Z</time></trkpt><trkpt lat="42.2506426415923" lon="14.137358801687615"><ele>331.0</ele><time>2026-05-01T13:18:50.999Z</time></trkpt><trkpt lat="42.25073044484146" lon="14.137407433603947"><ele>331.0</ele><time>2026-05-01T13:18:51.999Z</time></trkpt><trkpt lat="42.250813296449316" lon="14.137464055325042"><ele>329.66666666666663</ele><time>2026-05-01T13:18:52.999Z</time></trkpt><trkpt lat="42.25088514424662" lon="14.137519502048221"><ele>328.3333333333333</ele><time>2026-05-01T13:18:53.999Z</time></trkpt><trkpt lat="42.25094891618738" lon="14.137573226505243"><ele>327.0</ele><time>2026-05-01T13:18:54.999Z</time></trkpt><trkpt lat="42.2510150244302" lon="14.137630148285028"><ele>325.6666666666667</ele><time>2026-05-01T13:18:55.999Z</time></trkpt><trkpt lat="42.251096295252985" lon="14.137679955858248"><ele>324.33333333333337</ele><time>2026-05-01T13:18:56.999Z</time></trkpt><trkpt lat="42.251177916677804" lon="14.137722368019809"><ele>323.0</ele><time>2026-05-01T13:18:57.999Z</time></trkpt><trkpt lat="42.251247431991466" lon="14.137767184797507"><ele>323.0</ele><time>2026-05-01T13:18:58.999Z</time></trkpt><trkpt lat="42.25134208701841" lon="14.13784480251819"><ele>323.0</ele><time>2026-05-01T13:19:00.999Z</time></trkpt><trkpt lat="42.251427762936636" lon="14.137864459880927"><ele>323.0</ele><time>2026-05-01T13:19:05.999Z</time></trkpt><trkpt lat="42.251525193702406" lon="14.13778107544315"><ele>323.0</ele><time>2026-05-01T13:19:07.999Z</time></trkpt><trkpt lat="42.25161783058723" lon="14.137781793322798"><ele>323.0</ele><time>2026-05-01T13:19:09.999Z</time></trkpt><trkpt lat="42.25172068195334" lon="14.137755248156159"><ele>321.6666666666667</ele><time>2026-05-01T13:19:11.999Z</time></trkpt><trkpt lat="42.25178637019898" lon="14.137740927338752"><ele>320.33333333333337</ele><time>2026-05-01T13:19:12.999Z</time></trkpt><trkpt lat="42.25188949485757" lon="14.137725258857882"><ele>319.0</ele><time>2026-05-01T13:19:14.999Z</time></trkpt><trkpt lat="42.2519666875482" lon="14.137704696046429"><ele>317.6666666666667</ele><time>2026-05-01T13:19:16.999Z</time></trkpt><trkpt lat="42.25202474500086" lon="14.137658421079903"><ele>316.3333333333333</ele><time>2026-05-01T13:19:20.999Z</time></trkpt><trkpt lat="42.25198475627156" lon="14.137519359002432"><ele>315.0</ele><time>2026-05-01T13:19:23.999Z</time></trkpt><trkpt lat="42.251882229211276" lon="14.137442809726503"><ele>313.75</ele><time>2026-05-01T13:19:24.999Z</time></trkpt><trkpt lat="42.25178623457018" lon="14.13736329585428"><ele>312.5</ele><time>2026-05-01T13:19:25.999Z</time></trkpt><trkpt lat="42.25170331955588" lon="14.137245870937805"><ele>311.25</ele><time>2026-05-01T13:19:26.999Z</time></trkpt><trkpt lat="42.25164324670341" lon="14.137090473446747"><ele>310.0</ele><time>2026-05-01T13:19:27.999Z</time></trkpt><trkpt lat="42.251600585183546" lon="14.136924003845664"><ele>310.0</ele><time>2026-05-01T13:19:28.999Z</time></trkpt><trkpt lat="42.251573356844375" lon="14.136786316466484"><ele>310.0</ele><time>2026-05-01T13:19:29.999Z</time></trkpt><trkpt lat="42.251575386512904" lon="14.136671564641938"><ele>310.0</ele><time>2026-05-01T13:19:30.999Z</time></trkpt><trkpt lat="42.25162201019751" lon="14.136562348776932"><ele>310.0</ele><time>2026-05-01T13:19:31.999Z</time></trkpt><trkpt lat="42.25170812061818" lon="14.136483430281935"><ele>310.0</ele><time>2026-05-01T13:19:32.999Z</time></trkpt><trkpt lat="42.25182200353297" lon="14.136439928483842"><ele>309.0</ele><time>2026-05-01T13:19:33.999Z</time></trkpt><trkpt lat="42.25195404964861" lon="14.136436762339358"><ele>308.0</ele><time>2026-05-01T13:19:34.999Z</time></trkpt><trkpt lat="42.25210008159992" lon="14.136440608882182"><ele>307.0</ele><time>2026-05-01T13:19:35.999Z</time></trkpt><trkpt lat="42.25224451343303" lon="14.136404720091793"><ele>306.0</ele><time>2026-05-01T13:19:36.999Z</time></trkpt><trkpt lat="42.252376672355204" lon="14.13630880924042"><ele>306.0</ele><time>2026-05-01T13:19:37.999Z</time></trkpt><trkpt lat="42.25249619851266" lon="14.136162857361587"><ele>306.0</ele><time>2026-05-01T13:19:38.999Z</time></trkpt><trkpt lat="42.252591789093565" lon="14.135982115865529"><ele>306.0</ele><time>2026-05-01T13:19:39.999Z</time></trkpt><trkpt lat="42.25269349293897" lon="14.135777337136021"><ele>306.3333333333333</ele><time>2026-05-01T13:19:40.999Z</time></trkpt><trkpt lat="42.25280868656892" lon="14.135566346705485"><ele>306.66666666666663</ele><time>2026-05-01T13:19:41.999Z</time></trkpt><trkpt lat="42.25293161795926" lon="14.135377882944058"><ele>307.0</ele><time>2026-05-01T13:19:42.999Z</time></trkpt><trkpt lat="42.25304166891618" lon="14.135207917620011"><ele>304.5</ele><time>2026-05-01T13:19:43.999Z</time></trkpt><trkpt lat="42.25315024487875" lon="14.135068349753748"><ele>302.0</ele><time>2026-05-01T13:19:44.999Z</time></trkpt><trkpt lat="42.25324502936996" lon="14.134958719230042"><ele>299.5</ele><time>2026-05-01T13:19:45.999Z</time></trkpt><trkpt lat="42.25334758050184" lon="14.134896102806604"><ele>297.0</ele><time>2026-05-01T13:19:46.999Z</time></trkpt><trkpt lat="42.25346154247496" lon="14.13490869309717"><ele>297.0</ele><time>2026-05-01T13:19:47.999Z</time></trkpt><trkpt lat="42.253589781921725" lon="14.13497001416082"><ele>297.0</ele><time>2026-05-01T13:19:48.999Z</time></trkpt><trkpt lat="42.25371923326126" lon="14.135083208802289"><ele>297.0</ele><time>2026-05-01T13:19:49.999Z</time></trkpt><trkpt lat="42.25385419547032" lon="14.135229466174279"><ele>295.0</ele><time>2026-05-01T13:19:50.999Z</time></trkpt><trkpt lat="42.25397787397185" lon="14.135365467905793"><ele>293.0</ele><time>2026-05-01T13:19:51.999Z</time></trkpt><trkpt lat="42.25407479203173" lon="14.13549958794691"><ele>291.0</ele><time>2026-05-01T13:19:52.999Z</time></trkpt><trkpt lat="42.25416622848093" lon="14.135627381006719"><ele>289.0</ele><time>2026-05-01T13:19:53.999Z</time></trkpt><trkpt lat="42.254241098626494" lon="14.135755592123664"><ele>289.0</ele><time>2026-05-01T13:19:54.999Z</time></trkpt><trkpt lat="42.254283598607365" lon="14.13591023034876"><ele>289.0</ele><time>2026-05-01T13:19:55.999Z</time></trkpt><trkpt lat="42.25428089191964" lon="14.136089252314306"><ele>289.0</ele><time>2026-05-01T13:19:56.999Z</time></trkpt><trkpt lat="42.254301286732414" lon="14.136244963399186"><ele>289.0</ele><time>2026-05-01T13:19:57.999Z</time></trkpt><trkpt lat="42.25434580877412" lon="14.136373722277751"><ele>289.0</ele><time>2026-05-01T13:19:58.999Z</time></trkpt><trkpt lat="42.2544143990018" lon="14.136471371777281"><ele>289.0</ele><time>2026-05-01T13:19:59.999Z</time></trkpt><trkpt lat="42.25449529286601" lon="14.13653142082007"><ele>289.0</ele><time>2026-05-01T13:20:00.999Z</time></trkpt><trkpt lat="42.254595520956805" lon="14.136565438810205"><ele>289.0</ele><time>2026-05-01T13:20:01.999Z</time></trkpt><trkpt lat="42.25472066304469" lon="14.136571715274997"><ele>289.0</ele><time>2026-05-01T13:20:02.999Z</time></trkpt><trkpt lat="42.25485747205567" lon="14.136582459174626"><ele>288.0</ele><time>2026-05-01T13:20:03.999Z</time></trkpt><trkpt lat="42.254995673325425" lon="14.136587986437066"><ele>287.0</ele><time>2026-05-01T13:20:04.999Z</time></trkpt><trkpt lat="42.25512565280673" lon="14.136594439332566"><ele>286.0</ele><time>2026-05-01T13:20:05.999Z</time></trkpt><trkpt lat="42.25526053994022" lon="14.136603481220751"><ele>285.0</ele><time>2026-05-01T13:20:06.999Z</time></trkpt><trkpt lat="42.255398025904576" lon="14.136606864401653"><ele>285.0</ele><time>2026-05-01T13:20:07.999Z</time></trkpt><trkpt lat="42.25554412781579" lon="14.136608170396583"><ele>285.0</ele><time>2026-05-01T13:20:08.999Z</time></trkpt><trkpt lat="42.255692347919826" lon="14.136614879573292"><ele>285.0</ele><time>2026-05-01T13:20:09.999Z</time></trkpt><trkpt lat="42.255831524999174" lon="14.1366233157406"><ele>285.0</ele><time>2026-05-01T13:20:10.999Z</time></trkpt><trkpt lat="42.25596586926537" lon="14.136652840972065"><ele>284.0</ele><time>2026-05-01T13:20:11.999Z</time></trkpt><trkpt lat="42.256088039712054" lon="14.136714078050124"><ele>283.0</ele><time>2026-05-01T13:20:12.999Z</time></trkpt><trkpt lat="42.25620120641216" lon="14.13680333426092"><ele>282.0</ele><time>2026-05-01T13:20:13.999Z</time></trkpt><trkpt lat="42.256306312801975" lon="14.136872494259803"><ele>281.0</ele><time>2026-05-01T13:20:14.999Z</time></trkpt><trkpt lat="42.25641425289915" lon="14.136871687304755"><ele>279.0</ele><time>2026-05-01T13:20:15.999Z</time></trkpt><trkpt lat="42.256526512630955" lon="14.136817907198665"><ele>277.0</ele><time>2026-05-01T13:20:16.999Z</time></trkpt><trkpt lat="42.256618334792336" lon="14.136707360180848"><ele>275.0</ele><time>2026-05-01T13:20:17.999Z</time></trkpt><trkpt lat="42.25666337573702" lon="14.136559182821358"><ele>273.0</ele><time>2026-05-01T13:20:18.999Z</time></trkpt><trkpt lat="42.25666685320081" lon="14.136389144698025"><ele>272.5</ele><time>2026-05-01T13:20:19.999Z</time></trkpt><trkpt lat="42.2566969488641" lon="14.13621385772164"><ele>272.0</ele><time>2026-05-01T13:20:20.999Z</time></trkpt><trkpt lat="42.25671367389671" lon="14.136008446004697"><ele>271.5</ele><time>2026-05-01T13:20:21.999Z</time></trkpt><trkpt lat="42.25672889770828" lon="14.135806219802603"><ele>271.0</ele><time>2026-05-01T13:20:22.999Z</time></trkpt><trkpt lat="42.25675204601721" lon="14.135608412391068"><ele>271.0</ele><time>2026-05-01T13:20:23.999Z</time></trkpt><trkpt lat="42.256772724830675" lon="14.135413677850673"><ele>271.0</ele><time>2026-05-01T13:20:24.999Z</time></trkpt><trkpt lat="42.25678890766059" lon="14.13523859512154"><ele>271.0</ele><time>2026-05-01T13:20:25.999Z</time></trkpt><trkpt lat="42.25680264174807" lon="14.135116159837981"><ele>271.0</ele><time>2026-05-01T13:20:26.999Z</time></trkpt><trkpt lat="42.25680915673472" lon="14.135025935728862"><ele>271.0</ele><time>2026-05-01T13:20:27.999Z</time></trkpt><trkpt lat="42.25683172408221" lon="14.134879912034032"><ele>271.0</ele><time>2026-05-01T13:20:29.999Z</time></trkpt><trkpt lat="42.25690645390854" lon="14.1348424689946"><ele>271.0</ele><time>2026-05-01T13:20:31.999Z</time></trkpt><trkpt lat="42.25703124260567" lon="14.13489195423865"><ele>271.0</ele><time>2026-05-01T13:20:33.999Z</time></trkpt><trkpt lat="42.25710915754965" lon="14.134894986643353"><ele>271.0</ele><time>2026-05-01T13:20:34.999Z</time></trkpt><trkpt lat="42.25719489267574" lon="14.134876609568767"><ele>271.0</ele><time>2026-05-01T13:20:35.999Z</time></trkpt><trkpt lat="42.25728717656081" lon="14.134841081244474"><ele>271.16666666666663</ele><time>2026-05-01T13:20:36.999Z</time></trkpt><trkpt lat="42.25736743772885" lon="14.13481918763967"><ele>271.3333333333333</ele><time>2026-05-01T13:20:37.999Z</time></trkpt><trkpt lat="42.257452033873506" lon="14.134834998481102"><ele>271.5</ele><time>2026-05-01T13:20:38.999Z</time></trkpt><trkpt lat="42.257528703975375" lon="14.134874531904483"><ele>271.6666666666667</ele><time>2026-05-01T13:20:39.999Z</time></trkpt><trkpt lat="42.257610617302404" lon="14.134905558585528"><ele>271.83333333333337</ele><time>2026-05-01T13:20:40.999Z</time></trkpt><trkpt lat="42.25770429539758" lon="14.134934219394411"><ele>272.0</ele><time>2026-05-01T13:20:41.999Z</time></trkpt><trkpt lat="42.25779585897478" lon="14.134949989562436"><ele>272.0</ele><time>2026-05-01T13:20:42.999Z</time></trkpt><trkpt lat="42.25789854549676" lon="14.134972934040558"><ele>272.0</ele><time>2026-05-01T13:20:43.999Z</time></trkpt><trkpt lat="42.257998415646156" lon="14.134985772528836"><ele>272.0</ele><time>2026-05-01T13:20:44.999Z</time></trkpt><trkpt lat="42.25807654105154" lon="14.134993313600912"><ele>272.0</ele><time>2026-05-01T13:20:45.999Z</time></trkpt><trkpt lat="42.25814197504824" lon="14.134991172640639"><ele>272.0</ele><time>2026-05-01T13:20:46.999Z</time></trkpt><trkpt lat="42.25822241875161" lon="14.134983215148626"><ele>272.0</ele><time>2026-05-01T13:20:47.999Z</time></trkpt><trkpt lat="42.25831108093014" lon="14.13497844317993"><ele>272.6666666666667</ele><time>2026-05-01T13:20:48.999Z</time></trkpt><trkpt lat="42.258442680105155" lon="14.135000087400496"><ele>273.33333333333337</ele><time>2026-05-01T13:20:50.999Z</time></trkpt><trkpt lat="42.258510911809076" lon="14.135028666120203"><ele>274.0</ele><time>2026-05-01T13:20:51.999Z</time></trkpt><trkpt lat="42.25857505000259" lon="14.135067704924131"><ele>274.6666666666667</ele><time>2026-05-01T13:20:52.999Z</time></trkpt><trkpt lat="42.258637609662806" lon="14.135117660266586"><ele>275.3333333333333</ele><time>2026-05-01T13:20:53.999Z</time></trkpt><trkpt lat="42.25871190021428" lon="14.135168776750037"><ele>276.0</ele><time>2026-05-01T13:20:54.999Z</time></trkpt><trkpt lat="42.25877624414436" lon="14.135203849832106"><ele>276.0</ele><time>2026-05-01T13:20:55.999Z</time></trkpt><trkpt lat="42.25889548171184" lon="14.135225730866381"><ele>276.0</ele><time>2026-05-01T13:20:57.999Z</time></trkpt><trkpt lat="42.258961126520624" lon="14.135231371675092"><ele>276.0</ele><time>2026-05-01T13:20:58.999Z</time></trkpt><trkpt lat="42.25903175071811" lon="14.135239246240179"><ele>276.0</ele><time>2026-05-01T13:20:59.999Z</time></trkpt><trkpt lat="42.259111350039646" lon="14.135249241449998"><ele>276.0</ele><time>2026-05-01T13:21:00.999Z</time></trkpt><trkpt lat="42.259181012850064" lon="14.135258441605675"><ele>276.0</ele><time>2026-05-01T13:21:01.999Z</time></trkpt><trkpt lat="42.25924591490267" lon="14.135258668799304"><ele>277.1666666666667</ele><time>2026-05-01T13:21:02.999Z</time></trkpt><trkpt lat="42.259309056965705" lon="14.135259419960244"><ele>278.3333333333333</ele><time>2026-05-01T13:21:03.999Z</time></trkpt><trkpt lat="42.25942719027177" lon="14.135265728870033"><ele>279.5</ele><time>2026-05-01T13:21:05.999Z</time></trkpt><trkpt lat="42.25952936701684" lon="14.135319021547538"><ele>280.66666666666663</ele><time>2026-05-01T13:21:07.999Z</time></trkpt><trkpt lat="42.25959195798949" lon="14.135335668930072"><ele>281.8333333333333</ele><time>2026-05-01T13:21:09.999Z</time></trkpt><trkpt lat="42.25962129979488" lon="14.135221599352134"><ele>283.0</ele><time>2026-05-01T13:21:11.999Z</time></trkpt><trkpt lat="42.25970301059194" lon="14.135180706379902"><ele>282.75</ele><time>2026-05-01T13:21:13.999Z</time></trkpt><trkpt lat="42.259797555514346" lon="14.13524611747436"><ele>282.5</ele><time>2026-05-01T13:21:15.999Z</time></trkpt><trkpt lat="42.259913318993476" lon="14.135306746350357"><ele>282.25</ele><time>2026-05-01T13:21:17.999Z</time></trkpt><trkpt lat="42.26003055246825" lon="14.135318331450513"><ele>282.0</ele><time>2026-05-01T13:21:19.999Z</time></trkpt><trkpt lat="42.26014049084182" lon="14.135347909178055"><ele>282.0</ele><time>2026-05-01T13:21:21.999Z</time></trkpt><trkpt lat="42.26023256786861" lon="14.135380723771506"><ele>282.0</ele><time>2026-05-01T13:21:23.999Z</time></trkpt><trkpt lat="42.26031449508487" lon="14.135397183659451"><ele>282.0</ele><time>2026-05-01T13:21:25.999Z</time></trkpt><trkpt lat="42.260404816220415" lon="14.135413279652347"><ele>282.0</ele><time>2026-05-01T13:21:27.999Z</time></trkpt><trkpt lat="42.26048205829989" lon="14.135440783186263"><ele>282.0</ele><time>2026-05-01T13:21:29.999Z</time></trkpt><trkpt lat="42.2605877064876" lon="14.135474406742546"><ele>279.6666666666667</ele><time>2026-05-01T13:21:31.999Z</time></trkpt><trkpt lat="42.260658052443496" lon="14.135505033072342"><ele>277.3333333333333</ele><time>2026-05-01T13:21:32.999Z</time></trkpt><trkpt lat="42.260717245020395" lon="14.13556463664931"><ele>275.0</ele><time>2026-05-01T13:21:33.999Z</time></trkpt><trkpt lat="42.26079045772432" lon="14.1356387698033"><ele>272.66666666666663</ele><time>2026-05-01T13:21:34.999Z</time></trkpt><trkpt lat="42.260867811811664" lon="14.135715619747959"><ele>270.3333333333333</ele><time>2026-05-01T13:21:35.999Z</time></trkpt><trkpt lat="42.2609371228706" lon="14.135784901171023"><ele>268.0</ele><time>2026-05-01T13:21:36.999Z</time></trkpt><trkpt lat="42.260987171165624" lon="14.13585180197951"><ele>268.0</ele><time>2026-05-01T13:21:37.999Z</time></trkpt><trkpt lat="42.261035792723966" lon="14.135919104335992"><ele>268.0</ele><time>2026-05-01T13:21:38.999Z</time></trkpt><trkpt lat="42.26109995440198" lon="14.135999405611939"><ele>268.0</ele><time>2026-05-01T13:21:39.999Z</time></trkpt><trkpt lat="42.26115912659428" lon="14.136098800913905"><ele>268.0</ele><time>2026-05-01T13:21:40.999Z</time></trkpt><trkpt lat="42.261206069280725" lon="14.13617801158975"><ele>268.0</ele><time>2026-05-01T13:21:41.999Z</time></trkpt><trkpt lat="42.26125757717662" lon="14.13625491475609"><ele>268.0</ele><time>2026-05-01T13:21:42.999Z</time></trkpt><trkpt lat="42.261303781583656" lon="14.136329962671025"><ele>268.0</ele><time>2026-05-01T13:21:43.999Z</time></trkpt><trkpt lat="42.26135792776722" lon="14.13640114091901"><ele>268.0</ele><time>2026-05-01T13:21:44.999Z</time></trkpt><trkpt lat="42.26141178183091" lon="14.136455509799532"><ele>268.0</ele><time>2026-05-01T13:21:45.999Z</time></trkpt><trkpt lat="42.26147299411471" lon="14.136513646289732"><ele>268.0</ele><time>2026-05-01T13:21:46.999Z</time></trkpt><trkpt lat="42.26154301917147" lon="14.136556258349096"><ele>268.0</ele><time>2026-05-01T13:21:47.999Z</time></trkpt><trkpt lat="42.26159877265092" lon="14.136600039624682"><ele>268.0</ele><time>2026-05-01T13:21:48.999Z</time></trkpt><trkpt lat="42.261669037532386" lon="14.136674093780197"><ele>268.0</ele><time>2026-05-01T13:21:50.999Z</time></trkpt><trkpt lat="42.26172211818591" lon="14.136786751182978"><ele>266.8</ele><time>2026-05-01T13:21:52.999Z</time></trkpt><trkpt lat="42.26178147156613" lon="14.136908003486601"><ele>265.6</ele><time>2026-05-01T13:21:54.999Z</time></trkpt><trkpt lat="42.26180846939608" lon="14.137049638385426"><ele>264.4</ele><time>2026-05-01T13:21:56.999Z</time></trkpt><trkpt lat="42.2618237591893" lon="14.137184758648106"><ele>263.2</ele><time>2026-05-01T13:21:58.999Z</time></trkpt><trkpt lat="42.26180074175897" lon="14.137335090004948"><ele>262.0</ele><time>2026-05-01T13:22:00.999Z</time></trkpt><trkpt lat="42.26177278062564" lon="14.137418343864047"><ele>262.0</ele><time>2026-05-01T13:22:02.999Z</time></trkpt><trkpt lat="42.261750198105766" lon="14.13751413697524"><ele>262.0</ele><time>2026-05-01T13:24:34.999Z</time></trkpt><trkpt lat="42.261757205002674" lon="14.137654239784869"><ele>262.0</ele><time>2026-05-01T13:24:36.999Z</time></trkpt><trkpt lat="42.26180011853232" lon="14.137763341560563"><ele>262.0</ele><time>2026-05-01T13:24:39.999Z</time></trkpt><trkpt lat="42.261753533738634" lon="14.137864189404953"><ele>262.0</ele><time>2026-05-01T13:24:41.999Z</time></trkpt><trkpt lat="42.2617022770198" lon="14.137975423174012"><ele>262.0</ele><time>2026-05-01T13:24:43.999Z</time></trkpt><trkpt lat="42.261663904428495" lon="14.13805700662103"><ele>262.0</ele><time>2026-05-01T13:24:45.999Z</time></trkpt><trkpt lat="42.26162383341855" lon="14.13813505102237"><ele>262.0</ele><time>2026-05-01T13:24:47.999Z</time></trkpt><trkpt lat="42.26158782635586" lon="14.138231659556578"><ele>262.0</ele><time>2026-05-01T13:24:49.999Z</time></trkpt><trkpt lat="42.261523996467815" lon="14.13834351051697"><ele>262.0</ele><time>2026-05-01T13:24:51.999Z</time></trkpt><trkpt lat="42.26144478850321" lon="14.13845725255658"><ele>262.0</ele><time>2026-05-01T13:24:53.999Z</time></trkpt><trkpt lat="42.261355965221654" lon="14.138553888348024"><ele>265.6</ele><time>2026-05-01T13:24:55.999Z</time></trkpt><trkpt lat="42.26127587644082" lon="14.138668487123343"><ele>269.2</ele><time>2026-05-01T13:24:57.999Z</time></trkpt><trkpt lat="42.261202138515834" lon="14.138827912331468"><ele>272.8</ele><time>2026-05-01T13:24:59.999Z</time></trkpt><trkpt lat="42.26116774668668" lon="14.138920766003194"><ele>276.4</ele><time>2026-05-01T13:25:00.999Z</time></trkpt><trkpt lat="42.261154080681536" lon="14.13902806877339"><ele>280.0</ele><time>2026-05-01T13:25:02.999Z</time></trkpt><trkpt lat="42.26118455924896" lon="14.139116130684684"><ele>280.4</ele><time>2026-05-01T13:25:04.999Z</time></trkpt><trkpt lat="42.26122890482468" lon="14.139238816033837"><ele>280.8</ele><time>2026-05-01T13:25:06.999Z</time></trkpt><trkpt lat="42.26125730821735" lon="14.139338656087778"><ele>281.2</ele><time>2026-05-01T13:25:07.999Z</time></trkpt><trkpt lat="42.261286080516214" lon="14.139417465510853"><ele>281.6</ele><time>2026-05-01T13:25:08.999Z</time></trkpt><trkpt lat="42.26135604634841" lon="14.139550687766858"><ele>282.0</ele><time>2026-05-01T13:25:10.999Z</time></trkpt><trkpt lat="42.261456248609946" lon="14.139631834436605"><ele>277.0</ele><time>2026-05-01T13:25:14.999Z</time></trkpt><trkpt lat="42.26155400419665" lon="14.139624463002372"><ele>272.0</ele><time>2026-05-01T13:25:16.999Z</time></trkpt><trkpt lat="42.26166217625741" lon="14.139606171281756"><ele>267.0</ele><time>2026-05-01T13:25:18.999Z</time></trkpt><trkpt lat="42.261782714023816" lon="14.139670594776117"><ele>262.0</ele><time>2026-05-01T13:25:20.999Z</time></trkpt><trkpt lat="42.261844538696046" lon="14.139708442120657"><ele>257.0</ele><time>2026-05-01T13:25:21.999Z</time></trkpt><trkpt lat="42.26194976960814" lon="14.13978694630701"><ele>257.8</ele><time>2026-05-01T13:25:23.999Z</time></trkpt><trkpt lat="42.262050473963484" lon="14.139887727405325"><ele>258.6</ele><time>2026-05-01T13:25:25.999Z</time></trkpt><trkpt lat="42.262100422664055" lon="14.14000116789824"><ele>259.40000000000003</ele><time>2026-05-01T13:25:27.999Z</time></trkpt><trkpt lat="42.26213215856016" lon="14.14014190020569"><ele>260.2</ele><time>2026-05-01T13:25:29.999Z</time></trkpt><trkpt lat="42.26218744336275" lon="14.140265341728618"><ele>261.0</ele><time>2026-05-01T13:25:31.999Z</time></trkpt><trkpt lat="42.26222479013416" lon="14.140399324581013"><ele>261.0</ele><time>2026-05-01T13:25:33.999Z</time></trkpt><trkpt lat="42.26225415030664" lon="14.140510631689676"><ele>261.0</ele><time>2026-05-01T13:25:35.999Z</time></trkpt><trkpt lat="42.2622940921779" lon="14.140629092239884"><ele>261.0</ele><time>2026-05-01T13:25:37.999Z</time></trkpt><trkpt lat="42.262326781220246" lon="14.140773707464858"><ele>261.0</ele><time>2026-05-01T13:25:39.999Z</time></trkpt><trkpt lat="42.262358337917114" lon="14.14093484094375"><ele>261.0</ele><time>2026-05-01T13:25:41.999Z</time></trkpt><trkpt lat="42.26237607568567" lon="14.141088941766169"><ele>257.2</ele><time>2026-05-01T13:25:43.999Z</time></trkpt><trkpt lat="42.262403838467016" lon="14.141181257568936"><ele>253.40000000000003</ele><time>2026-05-01T13:25:44.999Z</time></trkpt><trkpt lat="42.26246736908959" lon="14.141300902480829"><ele>249.6</ele><time>2026-05-01T13:25:46.999Z</time></trkpt><trkpt lat="42.262562908246814" lon="14.141334702309877"><ele>245.8</ele><time>2026-05-01T13:25:48.999Z</time></trkpt><trkpt lat="42.26267618454839" lon="14.14135793307465"><ele>242.0</ele><time>2026-05-01T13:25:50.999Z</time></trkpt><trkpt lat="42.26278676153945" lon="14.14136890821774"><ele>242.00000000000003</ele><time>2026-05-01T13:25:52.999Z</time></trkpt><trkpt lat="42.262884317911514" lon="14.141358169973584"><ele>242.0</ele><time>2026-05-01T13:25:54.999Z</time></trkpt><trkpt lat="42.26297116715397" lon="14.141257855841888"><ele>242.0</ele><time>2026-05-01T13:25:56.999Z</time></trkpt><trkpt lat="42.263033041428294" lon="14.141216688746743"><ele>242.0</ele><time>2026-05-01T13:25:57.999Z</time></trkpt><trkpt lat="42.26310421778652" lon="14.14118660124124"><ele>242.00000000000003</ele><time>2026-05-01T13:25:58.999Z</time></trkpt><trkpt lat="42.26316636401993" lon="14.141155568584216"><ele>242.0</ele><time>2026-05-01T13:25:59.999Z</time></trkpt><trkpt lat="42.263228111722874" lon="14.141133561158133"><ele>239.14285714285714</ele><time>2026-05-01T13:26:00.999Z</time></trkpt><trkpt lat="42.2632951173077" lon="14.141136545671056"><ele>236.28571428571428</ele><time>2026-05-01T13:26:01.999Z</time></trkpt><trkpt lat="42.263365168214754" lon="14.14116264271795"><ele>233.42857142857142</ele><time>2026-05-01T13:26:02.999Z</time></trkpt><trkpt lat="42.263447533155365" lon="14.141184683610618"><ele>230.57142857142856</ele><time>2026-05-01T13:26:03.999Z</time></trkpt><trkpt lat="42.26353437278779" lon="14.141179583774964"><ele>227.71428571428572</ele><time>2026-05-01T13:26:04.999Z</time></trkpt><trkpt lat="42.26360340902472" lon="14.141184891035323"><ele>224.85714285714283</ele><time>2026-05-01T13:26:05.999Z</time></trkpt><trkpt lat="42.263669525163955" lon="14.141182320398912"><ele>222.0</ele><time>2026-05-01T13:26:06.999Z</time></trkpt><trkpt lat="42.26374461272526" lon="14.141192173738549"><ele>222.0</ele><time>2026-05-01T13:26:07.999Z</time></trkpt><trkpt lat="42.26381626331024" lon="14.141205475100428"><ele>222.0</ele><time>2026-05-01T13:26:08.999Z</time></trkpt><trkpt lat="42.2638801810113" lon="14.141215416092187"><ele>222.0</ele><time>2026-05-01T13:26:09.999Z</time></trkpt><trkpt lat="42.26394915274637" lon="14.14122557907028"><ele>222.0</ele><time>2026-05-01T13:26:10.999Z</time></trkpt><trkpt lat="42.26407007212085" lon="14.141221417678945"><ele>222.0</ele><time>2026-05-01T13:26:12.999Z</time></trkpt><trkpt lat="42.264138885478204" lon="14.14123824746592"><ele>222.0</ele><time>2026-05-01T13:26:13.999Z</time></trkpt><trkpt lat="42.264240572128955" lon="14.141248562251409"><ele>218.2</ele><time>2026-05-01T13:26:15.999Z</time></trkpt><trkpt lat="42.264281226222764" lon="14.14114902395077"><ele>214.39999999999998</ele><time>2026-05-01T13:26:17.999Z</time></trkpt><trkpt lat="42.26426997791265" lon="14.140983616835841"><ele>210.60000000000002</ele><time>2026-05-01T13:26:19.999Z</time></trkpt><trkpt lat="42.26431195243084" lon="14.140859905602149"><ele>206.8</ele><time>2026-05-01T13:26:21.999Z</time></trkpt><trkpt lat="42.26436503206499" lon="14.140747742431799"><ele>203.0</ele><time>2026-05-01T13:26:23.999Z</time></trkpt><trkpt lat="42.26445354255565" lon="14.140727649153634"><ele>202.33333333333334</ele><time>2026-05-01T13:26:25.999Z</time></trkpt><trkpt lat="42.26458423457278" lon="14.140712544380134"><ele>201.66666666666669</ele><time>2026-05-01T13:26:27.999Z</time></trkpt><trkpt lat="42.264667538990004" lon="14.1406934983383"><ele>201.0</ele><time>2026-05-01T13:26:28.999Z</time></trkpt><trkpt lat="42.2647398596724" lon="14.140679132830533"><ele>200.33333333333331</ele><time>2026-05-01T13:26:29.999Z</time></trkpt><trkpt lat="42.26481354642988" lon="14.140664489170389"><ele>199.66666666666666</ele><time>2026-05-01T13:26:30.999Z</time></trkpt><trkpt lat="42.264891838424454" lon="14.140649478956945"><ele>199.0</ele><time>2026-05-01T13:26:31.999Z</time></trkpt><trkpt lat="42.26496278976822" lon="14.140648662189806"><ele>196.7142857142857</ele><time>2026-05-01T13:26:32.999Z</time></trkpt><trkpt lat="42.26502873799185" lon="14.140640983893704"><ele>194.42857142857142</ele><time>2026-05-01T13:26:33.999Z</time></trkpt><trkpt lat="42.26509252238228" lon="14.140640445966234"><ele>192.14285714285714</ele><time>2026-05-01T13:26:34.999Z</time></trkpt><trkpt lat="42.26516245418897" lon="14.14063862978499"><ele>189.85714285714283</ele><time>2026-05-01T13:26:35.999Z</time></trkpt><trkpt lat="42.26523733293684" lon="14.140638257578727"><ele>187.57142857142858</ele><time>2026-05-01T13:26:36.999Z</time></trkpt><trkpt lat="42.265308369508844" lon="14.140644459783088"><ele>185.28571428571428</ele><time>2026-05-01T13:26:37.999Z</time></trkpt><trkpt lat="42.265387077642345" lon="14.140626284661357"><ele>183.0</ele><time>2026-05-01T13:26:38.999Z</time></trkpt><trkpt lat="42.265466506461806" lon="14.140615816504056"><ele>183.0</ele><time>2026-05-01T13:26:39.999Z</time></trkpt><trkpt lat="42.26555144089666" lon="14.140600801595776"><ele>183.0</ele><time>2026-05-01T13:26:40.999Z</time></trkpt><trkpt lat="42.265634535728765" lon="14.140584153118256"><ele>183.0</ele><time>2026-05-01T13:26:41.999Z</time></trkpt><trkpt lat="42.26570538563467" lon="14.140583278865298"><ele>183.0</ele><time>2026-05-01T13:26:42.999Z</time></trkpt><trkpt lat="42.265803190128516" lon="14.14070789749702"><ele>183.0</ele><time>2026-05-01T13:26:44.999Z</time></trkpt><trkpt lat="42.26585470785189" lon="14.140823328239534"><ele>181.8</ele><time>2026-05-01T13:26:45.999Z</time></trkpt><trkpt lat="42.26590854489907" lon="14.140966805886599"><ele>180.60000000000002</ele><time>2026-05-01T13:26:46.999Z</time></trkpt><trkpt lat="42.265956355934684" lon="14.141088872652189"><ele>179.39999999999998</ele><time>2026-05-01T13:26:47.999Z</time></trkpt><trkpt lat="42.26600180943928" lon="14.141197097239383"><ele>178.2</ele><time>2026-05-01T13:26:48.999Z</time></trkpt><trkpt lat="42.2660323888844" lon="14.141279117668725"><ele>177.0</ele><time>2026-05-01T13:26:49.999Z</time></trkpt><trkpt lat="42.26605656142168" lon="14.141383214151952"><ele>177.0</ele><time>2026-05-01T13:26:51.999Z</time></trkpt><trkpt lat="42.26608845192736" lon="14.141458814198543"><ele>177.0</ele><time>2026-05-01T13:26:52.999Z</time></trkpt><trkpt lat="42.266125613730914" lon="14.141532422178924"><ele>177.0</ele><time>2026-05-01T13:26:53.999Z</time></trkpt><trkpt lat="42.26616938937287" lon="14.141612890133011"><ele>177.0</ele><time>2026-05-01T13:26:54.999Z</time></trkpt><trkpt lat="42.266174801833486" lon="14.141706997251987"><ele>177.0</ele><time>2026-05-01T13:26:55.999Z</time></trkpt><trkpt lat="42.26619357441576" lon="14.141836511680037"><ele>177.0</ele><time>2026-05-01T13:26:57.999Z</time></trkpt><trkpt lat="42.266294291333715" lon="14.141797788349656"><ele>176.83333333333334</ele><time>2026-05-01T13:27:00.999Z</time></trkpt><trkpt lat="42.26634468506324" lon="14.141738267420074"><ele>176.66666666666666</ele><time>2026-05-01T13:27:01.999Z</time></trkpt><trkpt lat="42.26638457753221" lon="14.141657435262141"><ele>176.5</ele><time>2026-05-01T13:27:02.999Z</time></trkpt><trkpt lat="42.26641638236038" lon="14.14156532847024"><ele>176.33333333333331</ele><time>2026-05-01T13:27:03.999Z</time></trkpt><trkpt lat="42.26644800704355" lon="14.141472876527276"><ele>176.16666666666666</ele><time>2026-05-01T13:27:04.999Z</time></trkpt><trkpt lat="42.26650618610269" lon="14.141510659568631"><ele>176.0</ele><time>2026-05-01T13:27:09.999Z</time></trkpt><trkpt lat="42.266489065746995" lon="14.141648601564004"><ele>176.0</ele><time>2026-05-01T13:27:11.999Z</time></trkpt><trkpt lat="42.2664741575281" lon="14.141832521880113"><ele>176.0</ele><time>2026-05-01T13:27:13.999Z</time></trkpt><trkpt lat="42.266460668861036" lon="14.141940461131549"><ele>176.0</ele><time>2026-05-01T13:27:14.999Z</time></trkpt><trkpt lat="42.26643306156622" lon="14.142045953479617"><ele>176.0</ele><time>2026-05-01T13:27:15.999Z</time></trkpt><trkpt lat="42.26639232289518" lon="14.142155133421028"><ele>176.0</ele><time>2026-05-01T13:27:16.999Z</time></trkpt><trkpt lat="42.26634283888838" lon="14.142266854042711"><ele>176.0</ele><time>2026-05-01T13:27:17.999Z</time></trkpt><trkpt lat="42.26630899998537" lon="14.142350942913005"><ele>176.0</ele><time>2026-05-01T13:27:18.999Z</time></trkpt><trkpt lat="42.26627640542859" lon="14.14242445408161"><ele>176.0</ele><time>2026-05-01T13:27:19.999Z</time></trkpt><trkpt lat="42.26624439921408" lon="14.142520262916923"><ele>176.0</ele><time>2026-05-01T13:27:20.999Z</time></trkpt><trkpt lat="42.2662461231502" lon="14.142611530021473"><ele>176.0</ele><time>2026-05-01T13:27:21.999Z</time></trkpt><trkpt lat="42.26626547570431" lon="14.14271180261323"><ele>176.0</ele><time>2026-05-01T13:27:22.999Z</time></trkpt><trkpt lat="42.26628583542657" lon="14.142804728976975"><ele>176.0</ele><time>2026-05-01T13:27:23.999Z</time></trkpt><trkpt lat="42.2663167835553" lon="14.142922702172243"><ele>176.66666666666666</ele><time>2026-05-01T13:27:24.999Z</time></trkpt><trkpt lat="42.26634822236552" lon="14.143039441121559"><ele>177.33333333333331</ele><time>2026-05-01T13:27:25.999Z</time></trkpt><trkpt lat="42.266381268045016" lon="14.143143133522194"><ele>178.0</ele><time>2026-05-01T13:27:26.999Z</time></trkpt><trkpt lat="42.26641005446865" lon="14.14324435357743"><ele>178.66666666666666</ele><time>2026-05-01T13:27:27.999Z</time></trkpt><trkpt lat="42.266415794766495" lon="14.143360758230703"><ele>179.33333333333334</ele><time>2026-05-01T13:27:28.999Z</time></trkpt><trkpt lat="42.26639820270079" lon="14.143475487894987"><ele>180.0</ele><time>2026-05-01T13:27:29.999Z</time></trkpt><trkpt lat="42.26636568944996" lon="14.143599975068753"><ele>182.2</ele><time>2026-05-01T13:27:30.999Z</time></trkpt><trkpt lat="42.26634331830141" lon="14.143715241508426"><ele>184.4</ele><time>2026-05-01T13:27:31.999Z</time></trkpt><trkpt lat="42.26633455343976" lon="14.143826296402844"><ele>186.60000000000002</ele><time>2026-05-01T13:27:32.999Z</time></trkpt><trkpt lat="42.266348661053286" lon="14.143959536069925"><ele>188.8</ele><time>2026-05-01T13:27:33.999Z</time></trkpt><trkpt lat="42.266367518798475" lon="14.144093028642056"><ele>191.0</ele><time>2026-05-01T13:27:34.999Z</time></trkpt><trkpt lat="42.26638838539764" lon="14.144205854995647"><ele>192.66666666666666</ele><time>2026-05-01T13:27:35.999Z</time></trkpt><trkpt lat="42.26641466657926" lon="14.144321044362071"><ele>194.33333333333331</ele><time>2026-05-01T13:27:36.999Z</time></trkpt><trkpt lat="42.26643132827428" lon="14.144429722685507"><ele>196.0</ele><time>2026-05-01T13:27:37.999Z</time></trkpt><trkpt lat="42.26643696207626" lon="14.144553260960883"><ele>197.66666666666666</ele><time>2026-05-01T13:27:38.999Z</time></trkpt><trkpt lat="42.2664256807181" lon="14.14467039525704"><ele>199.33333333333334</ele><time>2026-05-01T13:27:39.999Z</time></trkpt><trkpt lat="42.266410596060126" lon="14.144780672958557"><ele>201.0</ele><time>2026-05-01T13:27:40.999Z</time></trkpt><trkpt lat="42.26641796173777" lon="14.144900695040233"><ele>203.4</ele><time>2026-05-01T13:27:41.999Z</time></trkpt><trkpt lat="42.26644969843127" lon="14.145024726519514"><ele>205.8</ele><time>2026-05-01T13:27:42.999Z</time></trkpt><trkpt lat="42.26648455056132" lon="14.145124797191574"><ele>208.20000000000002</ele><time>2026-05-01T13:27:43.999Z</time></trkpt><trkpt lat="42.26647814183946" lon="14.145228937824704"><ele>210.60000000000002</ele><time>2026-05-01T13:27:44.999Z</time></trkpt><trkpt lat="42.266458588031426" lon="14.145359080206697"><ele>213.0</ele><time>2026-05-01T13:27:45.999Z</time></trkpt><trkpt lat="42.26643170425892" lon="14.145487134216262"><ele>213.0</ele><time>2026-05-01T13:27:46.999Z</time></trkpt><trkpt lat="42.266402242861425" lon="14.145635684784022"><ele>213.0</ele><time>2026-05-01T13:27:47.999Z</time></trkpt><trkpt lat="42.266388603626964" lon="14.145752226241463"><ele>213.0</ele><time>2026-05-01T13:27:48.999Z</time></trkpt><trkpt lat="42.26640109395913" lon="14.145879593364782"><ele>213.0</ele><time>2026-05-01T13:27:49.999Z</time></trkpt><trkpt lat="42.26640354533547" lon="14.146015314807666"><ele>213.0</ele><time>2026-05-01T13:27:50.999Z</time></trkpt><trkpt lat="42.26639759366612" lon="14.146136924195359"><ele>216.85714285714283</ele><time>2026-05-01T13:27:51.998Z</time></trkpt><trkpt lat="42.26639927127667" lon="14.146246169638422"><ele>220.71428571428572</ele><time>2026-05-01T13:27:52.998Z</time></trkpt><trkpt lat="42.26639157067976" lon="14.146355117046049"><ele>224.57142857142856</ele><time>2026-05-01T13:27:53.998Z</time></trkpt><trkpt lat="42.26636360343438" lon="14.14643990435931"><ele>228.42857142857142</ele><time>2026-05-01T13:27:54.998Z</time></trkpt><trkpt lat="42.266320670562386" lon="14.146533427393214"><ele>232.28571428571428</ele><time>2026-05-01T13:27:55.998Z</time></trkpt><trkpt lat="42.26627661978664" lon="14.146605985951492"><ele>236.14285714285714</ele><time>2026-05-01T13:27:56.998Z</time></trkpt><trkpt lat="42.26623224378358" lon="14.146671675466123"><ele>240.0</ele><time>2026-05-01T13:27:57.998Z</time></trkpt><trkpt lat="42.266189311799664" lon="14.14675246571485"><ele>242.8</ele><time>2026-05-01T13:27:58.998Z</time></trkpt><trkpt lat="42.26615971942787" lon="14.146835245598462"><ele>245.6</ele><time>2026-05-01T13:27:59.998Z</time></trkpt><trkpt lat="42.26616350456574" lon="14.146939073052687"><ele>248.39999999999998</ele><time>2026-05-01T13:28:00.998Z</time></trkpt><trkpt lat="42.26619666569906" lon="14.147068912770964"><ele>251.2</ele><time>2026-05-01T13:28:01.998Z</time></trkpt><trkpt lat="42.266241461525695" lon="14.147218735027337"><ele>254.0</ele><time>2026-05-01T13:28:02.998Z</time></trkpt><trkpt lat="42.266268840553714" lon="14.147365323304124"><ele>254.0</ele><time>2026-05-01T13:28:03.998Z</time></trkpt><trkpt lat="42.266277928190064" lon="14.14747644814582"><ele>253.99999999999997</ele><time>2026-05-01T13:28:04.998Z</time></trkpt><trkpt lat="42.26629212061023" lon="14.147616811201278"><ele>253.99999999999997</ele><time>2026-05-01T13:28:05.998Z</time></trkpt><trkpt lat="42.266318796465974" lon="14.147762815952985"><ele>254.0</ele><time>2026-05-01T13:28:06.998Z</time></trkpt><trkpt lat="42.26633901821191" lon="14.147905035281063"><ele>254.0</ele><time>2026-05-01T13:28:07.998Z</time></trkpt><trkpt lat="42.26635454035551" lon="14.148059346666898"><ele>254.39999999999998</ele><time>2026-05-01T13:28:08.998Z</time></trkpt><trkpt lat="42.26637202085874" lon="14.148211491689885"><ele>254.79999999999998</ele><time>2026-05-01T13:28:09.999Z</time></trkpt><trkpt lat="42.26638697175776" lon="14.148361023247446"><ele>255.20000000000002</ele><time>2026-05-01T13:28:10.999Z</time></trkpt><trkpt lat="42.26640197699787" lon="14.148526366827983"><ele>255.60000000000002</ele><time>2026-05-01T13:28:11.999Z</time></trkpt><trkpt lat="42.266408853473905" lon="14.148657361703115"><ele>256.0</ele><time>2026-05-01T13:28:12.999Z</time></trkpt><trkpt lat="42.266417950758225" lon="14.14878248131799"><ele>255.99999999999997</ele><time>2026-05-01T13:28:13.999Z</time></trkpt><trkpt lat="42.26642977587283" lon="14.148922196865474"><ele>256.0</ele><time>2026-05-01T13:28:14.999Z</time></trkpt><trkpt lat="42.266435140325484" lon="14.149049819991228"><ele>256.0</ele><time>2026-05-01T13:28:15.999Z</time></trkpt><trkpt lat="42.266433946619266" lon="14.14915568556094"><ele>256.0</ele><time>2026-05-01T13:28:16.999Z</time></trkpt><trkpt lat="42.26643412771856" lon="14.14924892700246"><ele>255.99999999999997</ele><time>2026-05-01T13:28:17.999Z</time></trkpt><trkpt lat="42.26646495044319" lon="14.149323263762911"><ele>256.0</ele><time>2026-05-01T13:28:21.999Z</time></trkpt><trkpt lat="42.26654923130919" lon="14.1492875864052"><ele>262.8</ele><time>2026-05-01T13:28:24.999Z</time></trkpt><trkpt lat="42.26662957670393" lon="14.149265568975775"><ele>269.6</ele><time>2026-05-01T13:28:28.999Z</time></trkpt><trkpt lat="42.26675869352986" lon="14.14928352037819"><ele>276.4</ele><time>2026-05-01T13:28:30.999Z</time></trkpt><trkpt lat="42.266862438719066" lon="14.149314683188319"><ele>283.2</ele><time>2026-05-01T13:28:32.999Z</time></trkpt><trkpt lat="42.26695382773112" lon="14.149334969686544"><ele>290.0</ele><time>2026-05-01T13:28:34.999Z</time></trkpt><trkpt lat="42.26702792132945" lon="14.149347662308259"><ele>290.0</ele><time>2026-05-01T13:28:36.999Z</time></trkpt><trkpt lat="42.267143745898466" lon="14.149387386141516"><ele>290.0</ele><time>2026-05-01T13:28:38.999Z</time></trkpt><trkpt lat="42.26723321433965" lon="14.149417341994123"><ele>290.0</ele><time>2026-05-01T13:28:41.999Z</time></trkpt><trkpt lat="42.26733225219683" lon="14.149448185858425"><ele>290.0</ele><time>2026-05-01T13:28:44.999Z</time></trkpt><trkpt lat="42.267401685579344" lon="14.149469146941625"><ele>290.0</ele><time>2026-05-01T13:28:45.999Z</time></trkpt><trkpt lat="42.267478466244434" lon="14.149492745633582"><ele>288.1666666666667</ele><time>2026-05-01T13:28:46.999Z</time></trkpt><trkpt lat="42.26754470463766" lon="14.14952330103234"><ele>286.33333333333337</ele><time>2026-05-01T13:28:47.999Z</time></trkpt><trkpt lat="42.267627139019915" lon="14.149546419035483"><ele>284.5</ele><time>2026-05-01T13:28:48.999Z</time></trkpt><trkpt lat="42.26771453627938" lon="14.149574953787226"><ele>282.6666666666667</ele><time>2026-05-01T13:28:49.999Z</time></trkpt><trkpt lat="42.267791129091385" lon="14.149601401859085"><ele>280.8333333333333</ele><time>2026-05-01T13:28:50.999Z</time></trkpt><trkpt lat="42.26785325334998" lon="14.149634678780759"><ele>279.0</ele><time>2026-05-01T13:28:51.999Z</time></trkpt><trkpt lat="42.2679215750913" lon="14.149675377176571"><ele>278.99999999999994</ele><time>2026-05-01T13:28:52.999Z</time></trkpt><trkpt lat="42.267992074205154" lon="14.14971032254358"><ele>279.0</ele><time>2026-05-01T13:28:53.999Z</time></trkpt><trkpt lat="42.268062753192474" lon="14.149733766754725"><ele>279.0</ele><time>2026-05-01T13:28:54.999Z</time></trkpt><trkpt lat="42.26812920923116" lon="14.14975222209531"><ele>279.0</ele><time>2026-05-01T13:28:55.999Z</time></trkpt><trkpt lat="42.268194115460524" lon="14.149769928601062"><ele>279.0</ele><time>2026-05-01T13:28:56.999Z</time></trkpt><trkpt lat="42.26825999004906" lon="14.149780540362022"><ele>278.99999999999994</ele><time>2026-05-01T13:28:57.999Z</time></trkpt><trkpt lat="42.268329634321596" lon="14.149796700387022"><ele>279.0</ele><time>2026-05-01T13:28:58.999Z</time></trkpt><trkpt lat="42.26840556424849" lon="14.149816425075548"><ele>278.8</ele><time>2026-05-01T13:28:59.999Z</time></trkpt><trkpt lat="42.268528511511995" lon="14.149846628062692"><ele>278.59999999999997</ele><time>2026-05-01T13:29:01.999Z</time></trkpt><trkpt lat="42.268655011585224" lon="14.14990154363523"><ele>278.4</ele><time>2026-05-01T13:29:03.999Z</time></trkpt><trkpt lat="42.26876888723834" lon="14.149947895573522"><ele>278.2</ele><time>2026-05-01T13:29:05.999Z</time></trkpt><trkpt lat="42.26883587729922" lon="14.149936532445215"><ele>278.0</ele><time>2026-05-01T13:29:06.999Z</time></trkpt><trkpt lat="42.268933886487055" lon="14.149920930199977"><ele>277.2</ele><time>2026-05-01T13:29:08.999Z</time></trkpt><trkpt lat="42.26904241387468" lon="14.149987796288928"><ele>276.4</ele><time>2026-05-01T13:29:10.999Z</time></trkpt><trkpt lat="42.26911025048522" lon="14.150022528300589"><ele>275.59999999999997</ele><time>2026-05-01T13:29:11.999Z</time></trkpt><trkpt lat="42.269178789078175" lon="14.150047305808155"><ele>274.8</ele><time>2026-05-01T13:29:12.999Z</time></trkpt><trkpt lat="42.269281432848" lon="14.150101425532123"><ele>274.0</ele><time>2026-05-01T13:29:14.999Z</time></trkpt><trkpt lat="42.269349716014624" lon="14.150159014779167"><ele>274.0</ele><time>2026-05-01T13:29:16.999Z</time></trkpt><trkpt lat="42.26944452344915" lon="14.150132881429004"><ele>274.0</ele><time>2026-05-01T13:29:19.999Z</time></trkpt><trkpt lat="42.26954099535138" lon="14.150051309509776"><ele>274.0</ele><time>2026-05-01T13:29:21.999Z</time></trkpt><trkpt lat="42.269596977123136" lon="14.149995712521429"><ele>274.0</ele><time>2026-05-01T13:29:22.999Z</time></trkpt><trkpt lat="42.269667472151326" lon="14.149942915145925"><ele>274.0</ele><time>2026-05-01T13:29:23.999Z</time></trkpt><trkpt lat="42.26974886579323" lon="14.149900524678513"><ele>274.0</ele><time>2026-05-01T13:29:24.999Z</time></trkpt><trkpt lat="42.26982220106557" lon="14.149875406402124"><ele>274.66666666666663</ele><time>2026-05-01T13:29:25.999Z</time></trkpt><trkpt lat="42.26988415502913" lon="14.14984536189473"><ele>275.3333333333333</ele><time>2026-05-01T13:29:26.999Z</time></trkpt><trkpt lat="42.26999917328171" lon="14.149802132257038"><ele>276.0</ele><time>2026-05-01T13:29:28.999Z</time></trkpt><trkpt lat="42.270061806022206" lon="14.149790433578675"><ele>276.6666666666667</ele><time>2026-05-01T13:29:29.999Z</time></trkpt><trkpt lat="42.270134074152715" lon="14.149798917571216"><ele>277.33333333333337</ele><time>2026-05-01T13:29:31.999Z</time></trkpt><trkpt lat="42.270226569782125" lon="14.149886166846805"><ele>278.0</ele><time>2026-05-01T13:29:33.999Z</time></trkpt><trkpt lat="42.27025456057709" lon="14.149969712396098"><ele>278.6</ele><time>2026-05-01T13:29:34.999Z</time></trkpt><trkpt lat="42.27027954465379" lon="14.15008432034041"><ele>279.20000000000005</ele><time>2026-05-01T13:29:35.999Z</time></trkpt><trkpt lat="42.270299095993785" lon="14.150215841100076"><ele>279.8</ele><time>2026-05-01T13:29:36.999Z</time></trkpt><trkpt lat="42.27030981095864" lon="14.150351231485022"><ele>280.40000000000003</ele><time>2026-05-01T13:29:37.999Z</time></trkpt><trkpt lat="42.27031793100062" lon="14.150479412925186"><ele>281.0</ele><time>2026-05-01T13:29:38.999Z</time></trkpt><trkpt lat="42.27033416667015" lon="14.150600101074803"><ele>281.2</ele><time>2026-05-01T13:29:39.999Z</time></trkpt><trkpt lat="42.270368944964524" lon="14.150749818199015"><ele>281.40000000000003</ele><time>2026-05-01T13:29:40.999Z</time></trkpt><trkpt lat="42.27039811323517" lon="14.15088413691518"><ele>281.6</ele><time>2026-05-01T13:29:41.999Z</time></trkpt><trkpt lat="42.27042842564681" lon="14.150997889710576"><ele>281.8</ele><time>2026-05-01T13:29:42.999Z</time></trkpt><trkpt lat="42.270453593057496" lon="14.15112004812886"><ele>282.0</ele><time>2026-05-01T13:29:43.999Z</time></trkpt><trkpt lat="42.27048170642128" lon="14.151270588139292"><ele>282.0</ele><time>2026-05-01T13:29:44.999Z</time></trkpt><trkpt lat="42.27049200602198" lon="14.151413078930682"><ele>282.0</ele><time>2026-05-01T13:29:45.999Z</time></trkpt><trkpt lat="42.27047876709118" lon="14.151526382078604"><ele>282.0</ele><time>2026-05-01T13:29:46.999Z</time></trkpt><trkpt lat="42.27045394397995" lon="14.15166480923954"><ele>282.0</ele><time>2026-05-01T13:29:47.999Z</time></trkpt><trkpt lat="42.2704260354844" lon="14.151833102923382"><ele>282.0</ele><time>2026-05-01T13:29:48.999Z</time></trkpt><trkpt lat="42.27040895984789" lon="14.152005100803958"><ele>282.2</ele><time>2026-05-01T13:29:49.999Z</time></trkpt><trkpt lat="42.270395959593166" lon="14.152165035909057"><ele>282.4</ele><time>2026-05-01T13:29:50.999Z</time></trkpt><trkpt lat="42.27039599513721" lon="14.152296696528301"><ele>282.6</ele><time>2026-05-01T13:29:51.999Z</time></trkpt><trkpt lat="42.2704069321353" lon="14.152408574461731"><ele>282.8</ele><time>2026-05-01T13:29:52.999Z</time></trkpt><trkpt lat="42.270426331568" lon="14.15251141242356"><ele>283.0</ele><time>2026-05-01T13:29:53.999Z</time></trkpt><trkpt lat="42.2704362387764" lon="14.15260746145543"><ele>283.0</ele><time>2026-05-01T13:29:54.999Z</time></trkpt><trkpt lat="42.27040085356622" lon="14.152761565025656"><ele>283.0</ele><time>2026-05-01T13:29:56.999Z</time></trkpt><trkpt lat="42.27035034306487" lon="14.15282192912942"><ele>283.0</ele><time>2026-05-01T13:29:57.999Z</time></trkpt><trkpt lat="42.27028293153134" lon="14.152859096149458"><ele>283.0</ele><time>2026-05-01T13:29:58.999Z</time></trkpt><trkpt lat="42.270197201462516" lon="14.152865138613354"><ele>283.0</ele><time>2026-05-01T13:30:00.999Z</time></trkpt><trkpt lat="42.27012977276498" lon="14.152899316794752"><ele>283.0</ele><time>2026-05-01T13:30:02.999Z</time></trkpt><trkpt lat="42.270184032943725" lon="14.15300087735256"><ele>283.0</ele><time>2026-05-01T13:30:05.999Z</time></trkpt><trkpt lat="42.27027389530915" lon="14.153005761584149"><ele>283.0</ele><time>2026-05-01T13:30:07.999Z</time></trkpt><trkpt lat="42.270338904426715" lon="14.153019480622623"><ele>283.0</ele><time>2026-05-01T13:30:09.999Z</time></trkpt><trkpt lat="42.270413469729405" lon="14.153010907518084"><ele>283.0</ele><time>2026-05-01T13:36:13Z</time></trkpt><trkpt lat="42.27050641549345" lon="14.152967867971753"><ele>283.0</ele><time>2026-05-01T13:36:15Z</time></trkpt><trkpt lat="42.27057328608652" lon="14.152939845657631"><ele>283.0</ele><time>2026-05-01T13:36:16.001Z</time></trkpt><trkpt lat="42.2706460679974" lon="14.152898403612898"><ele>282.3333333333333</ele><time>2026-05-01T13:36:17.001Z</time></trkpt><trkpt lat="42.270713178530656" lon="14.152862041956674"><ele>281.66666666666663</ele><time>2026-05-01T13:36:18.001Z</time></trkpt><trkpt lat="42.2707806794191" lon="14.15282521181014"><ele>281.0</ele><time>2026-05-01T13:36:19.001Z</time></trkpt><trkpt lat="42.27084803646962" lon="14.152793150221347"><ele>280.3333333333333</ele><time>2026-05-01T13:36:20.001Z</time></trkpt><trkpt lat="42.27090781997198" lon="14.152757425163225"><ele>279.6666666666667</ele><time>2026-05-01T13:36:21.001Z</time></trkpt><trkpt lat="42.27101141952091" lon="14.152722989510776"><ele>279.0</ele><time>2026-05-01T13:36:23.001Z</time></trkpt><trkpt lat="42.27109003459498" lon="14.15274082705009"><ele>279.0</ele><time>2026-05-01T13:36:25Z</time></trkpt><trkpt lat="42.271168580460035" lon="14.152753097661382"><ele>279.0</ele><time>2026-05-01T13:36:27Z</time></trkpt><trkpt lat="42.27125587473547" lon="14.152716547943182"><ele>279.0</ele><time>2026-05-01T13:36:29Z</time></trkpt><trkpt lat="42.27135514727378" lon="14.152701700295784"><ele>279.0</ele><time>2026-05-01T13:36:31Z</time></trkpt><trkpt lat="42.27142559114924" lon="14.152708101689583"><ele>279.0</ele><time>2026-05-01T13:36:32Z</time></trkpt><trkpt lat="42.27150093935879" lon="14.152701438601932"><ele>279.0</ele><time>2026-05-01T13:36:33Z</time></trkpt><trkpt lat="42.27157740439006" lon="14.152701998558966"><ele>276.6666666666667</ele><time>2026-05-01T13:36:34Z</time></trkpt><trkpt lat="42.27164117933668" lon="14.15269303520481"><ele>274.3333333333333</ele><time>2026-05-01T13:36:35Z</time></trkpt><trkpt lat="42.271748518137635" lon="14.152666660652907"><ele>272.0</ele><time>2026-05-01T13:36:37Z</time></trkpt><trkpt lat="42.27181023312496" lon="14.152688313653229"><ele>269.66666666666663</ele><time>2026-05-01T13:36:38Z</time></trkpt><trkpt lat="42.271869555814824" lon="14.152733191398157"><ele>267.3333333333333</ele><time>2026-05-01T13:36:39Z</time></trkpt><trkpt lat="42.271931761340895" lon="14.152790492489578"><ele>265.0</ele><time>2026-05-01T13:36:40Z</time></trkpt><trkpt lat="42.27198470010125" lon="14.152861358150615"><ele>265.0</ele><time>2026-05-01T13:36:41Z</time></trkpt><trkpt lat="42.272024728005476" lon="14.152929486436442"><ele>265.0</ele><time>2026-05-01T13:36:42Z</time></trkpt><trkpt lat="42.27207343768166" lon="14.152995626570965"><ele>265.0</ele><time>2026-05-01T13:36:43Z</time></trkpt><trkpt lat="42.27214904040037" lon="14.153124539587274"><ele>265.0</ele><time>2026-05-01T13:36:45Z</time></trkpt><trkpt lat="42.272186208422646" lon="14.153205789068815"><ele>265.0</ele><time>2026-05-01T13:36:46Z</time></trkpt><trkpt lat="42.272219377645996" lon="14.153281306954549"><ele>265.0</ele><time>2026-05-01T13:36:47Z</time></trkpt><trkpt lat="42.272268131061466" lon="14.15335428328143"><ele>261.16666666666663</ele><time>2026-05-01T13:36:48Z</time></trkpt><trkpt lat="42.272321674719635" lon="14.15341468894675"><ele>257.3333333333333</ele><time>2026-05-01T13:36:49Z</time></trkpt><trkpt lat="42.272372617681235" lon="14.15347116293062"><ele>253.5</ele><time>2026-05-01T13:36:50Z</time></trkpt><trkpt lat="42.272420678031494" lon="14.153531570188527"><ele>249.66666666666669</ele><time>2026-05-01T13:36:51Z</time></trkpt><trkpt lat="42.27245942272972" lon="14.153599047520471"><ele>245.83333333333334</ele><time>2026-05-01T13:36:52Z</time></trkpt><trkpt lat="42.272531811726324" lon="14.153737642130592"><ele>242.0</ele><time>2026-05-01T13:36:54Z</time></trkpt><trkpt lat="42.27259740504292" lon="14.153869127798984"><ele>242.00000000000003</ele><time>2026-05-01T13:36:56Z</time></trkpt><trkpt lat="42.27267461363204" lon="14.153954327837555"><ele>242.0</ele><time>2026-05-01T13:36:58Z</time></trkpt><trkpt lat="42.27277775462799" lon="14.154033079039374"><ele>242.0</ele><time>2026-05-01T13:37:00Z</time></trkpt><trkpt lat="42.27282565817817" lon="14.1540899372181"><ele>242.0</ele><time>2026-05-01T13:37:01Z</time></trkpt><trkpt lat="42.27288167333453" lon="14.154147775473259"><ele>242.00000000000003</ele><time>2026-05-01T13:37:02Z</time></trkpt><trkpt lat="42.27295404003271" lon="14.154186916997013"><ele>242.0</ele><time>2026-05-01T13:37:03Z</time></trkpt><trkpt lat="42.273033793147285" lon="14.154228213349478"><ele>238.0</ele><time>2026-05-01T13:37:04Z</time></trkpt><trkpt lat="42.2731087871627" lon="14.154265238534734"><ele>233.99999999999997</ele><time>2026-05-01T13:37:05Z</time></trkpt><trkpt lat="42.273166913911055" lon="14.15430205404337"><ele>230.0</ele><time>2026-05-01T13:37:06Z</time></trkpt><trkpt lat="42.27322481915124" lon="14.154340652502096"><ele>226.0</ele><time>2026-05-01T13:37:07Z</time></trkpt><trkpt lat="42.2732850404897" lon="14.154386926913725"><ele>222.0</ele><time>2026-05-01T13:37:08Z</time></trkpt><trkpt lat="42.27333812823456" lon="14.154441575795001"><ele>218.0</ele><time>2026-05-01T13:37:09Z</time></trkpt><trkpt lat="42.27336720512317" lon="14.154532775636163"><ele>214.0</ele><time>2026-05-01T13:37:10Z</time></trkpt><trkpt lat="42.273408335150215" lon="14.154694394021014"><ele>214.0</ele><time>2026-05-01T13:37:12Z</time></trkpt><trkpt lat="42.27344236835638" lon="14.154847869262351"><ele>213.99999999999997</ele><time>2026-05-01T13:37:14Z</time></trkpt><trkpt lat="42.273462320579796" lon="14.15498110455035"><ele>213.99999999999997</ele><time>2026-05-01T13:37:16Z</time></trkpt><trkpt lat="42.273534027561354" lon="14.155086279293036"><ele>214.0</ele><time>2026-05-01T13:37:18Z</time></trkpt><trkpt lat="42.27359692033126" lon="14.155143075473376"><ele>214.0</ele><time>2026-05-01T13:37:19Z</time></trkpt><trkpt lat="42.27366555598872" lon="14.155188200811702"><ele>211.0</ele><time>2026-05-01T13:37:20Z</time></trkpt><trkpt lat="42.273732957790855" lon="14.155229116427034"><ele>207.99999999999997</ele><time>2026-05-01T13:37:21Z</time></trkpt><trkpt lat="42.27379500501604" lon="14.15525754261689"><ele>205.0</ele><time>2026-05-01T13:37:22Z</time></trkpt><trkpt lat="42.27387667553585" lon="14.155363518249017"><ele>202.0</ele><time>2026-05-01T13:37:24Z</time></trkpt><trkpt lat="42.27394414023476" lon="14.155513895141656"><ele>199.0</ele><time>2026-05-01T13:37:26Z</time></trkpt><trkpt lat="42.273976365691944" lon="14.155598102262347"><ele>197.6</ele><time>2026-05-01T13:37:27Z</time></trkpt><trkpt lat="42.27408668901056" lon="14.155652398444971"><ele>196.2</ele><time>2026-05-01T13:37:29Z</time></trkpt><trkpt lat="42.2741935742917" lon="14.155706641581023"><ele>194.79999999999998</ele><time>2026-05-01T13:37:31Z</time></trkpt><trkpt lat="42.2742295650983" lon="14.15584790573108"><ele>193.39999999999998</ele><time>2026-05-01T13:37:33Z</time></trkpt><trkpt lat="42.274246306691005" lon="14.155932317683346"><ele>192.0</ele><time>2026-05-01T13:37:34Z</time></trkpt><trkpt lat="42.274266399997664" lon="14.156031067828929"><ele>191.0</ele><time>2026-05-01T13:37:35Z</time></trkpt><trkpt lat="42.27429575890219" lon="14.156117433125775"><ele>190.0</ele><time>2026-05-01T13:37:36Z</time></trkpt><trkpt lat="42.27432653916609" lon="14.156196979253563"><ele>189.0</ele><time>2026-05-01T13:37:37Z</time></trkpt><trkpt lat="42.27438406989821" lon="14.15632812522805"><ele>188.0</ele><time>2026-05-01T13:37:39Z</time></trkpt><trkpt lat="42.27442302497333" lon="14.15646588985406"><ele>187.0</ele><time>2026-05-01T13:37:41Z</time></trkpt><trkpt lat="42.27447157190851" lon="14.156558352745156"><ele>186.0</ele><time>2026-05-01T13:37:43Z</time></trkpt><trkpt lat="42.274559943524395" lon="14.15662375913626"><ele>183.16666666666666</ele><time>2026-05-01T13:37:45Z</time></trkpt><trkpt lat="42.27463496827906" lon="14.15668220341363"><ele>180.33333333333334</ele><time>2026-05-01T13:37:47Z</time></trkpt><trkpt lat="42.274728749720886" lon="14.156678036702973"><ele>177.5</ele><time>2026-05-01T13:37:49Z</time></trkpt><trkpt lat="42.274805597586216" lon="14.156629172230504"><ele>174.66666666666669</ele><time>2026-05-01T13:37:51Z</time></trkpt><trkpt lat="42.27487612558085" lon="14.156596252652447"><ele>171.83333333333334</ele><time>2026-05-01T13:37:53Z</time></trkpt><trkpt lat="42.27496251580795" lon="14.156613504792531"><ele>169.0</ele><time>2026-05-01T13:37:55Z</time></trkpt><trkpt lat="42.27503525209865" lon="14.156610940319087"><ele>169.83333333333334</ele><time>2026-05-01T13:37:58Z</time></trkpt><trkpt lat="42.27510087607413" lon="14.156597934691037"><ele>170.66666666666669</ele><time>2026-05-01T13:38:00Z</time></trkpt><trkpt lat="42.275197259996304" lon="14.156539367676903"><ele>171.5</ele><time>2026-05-01T13:38:03Z</time></trkpt><trkpt lat="42.275270279291014" lon="14.15648928002003"><ele>172.33333333333334</ele><time>2026-05-01T13:38:05Z</time></trkpt><trkpt lat="42.27532723350368" lon="14.156452379391762"><ele>173.16666666666666</ele><time>2026-05-01T13:38:08Z</time></trkpt><trkpt lat="42.27540338081848" lon="14.156424889859808"><ele>174.0</ele><time>2026-05-01T13:38:10Z</time></trkpt><trkpt lat="42.275481063489025" lon="14.156477663045223"><ele>171.6</ele><time>2026-05-01T13:38:12Z</time></trkpt><trkpt lat="42.27552765683312" lon="14.15660094841983"><ele>169.2</ele><time>2026-05-01T13:38:14Z</time></trkpt><trkpt lat="42.27558961908132" lon="14.156716936847488"><ele>166.79999999999998</ele><time>2026-05-01T13:38:16Z</time></trkpt><trkpt lat="42.27561498967482" lon="14.156805726772559"><ele>164.39999999999998</ele><time>2026-05-01T13:38:17Z</time></trkpt><trkpt lat="42.2756828173479" lon="14.156813772452354"><ele>162.0</ele><time>2026-05-01T13:38:19Z</time></trkpt><trkpt lat="42.275805893571146" lon="14.156727127139478"><ele>162.8</ele><time>2026-05-01T13:38:21Z</time></trkpt><trkpt lat="42.27586853128575" lon="14.156644724872006"><ele>163.6</ele><time>2026-05-01T13:38:22Z</time></trkpt><trkpt lat="42.27593194058842" lon="14.156571273186902"><ele>164.4</ele><time>2026-05-01T13:38:23Z</time></trkpt><trkpt lat="42.27600120334709" lon="14.156500947541781"><ele>165.20000000000002</ele><time>2026-05-01T13:38:24Z</time></trkpt><trkpt lat="42.2760874233638" lon="14.156440290116441"><ele>166.0</ele><time>2026-05-01T13:38:25Z</time></trkpt><trkpt lat="42.27618937163227" lon="14.15638178722375"><ele>166.0</ele><time>2026-05-01T13:38:26Z</time></trkpt><trkpt lat="42.27629862845135" lon="14.156303086258234"><ele>166.0</ele><time>2026-05-01T13:38:27Z</time></trkpt><trkpt lat="42.276404869750046" lon="14.156225998898645"><ele>166.0</ele><time>2026-05-01T13:38:28Z</time></trkpt><trkpt lat="42.27650506091024" lon="14.156156632185994"><ele>166.0</ele><time>2026-05-01T13:38:29Z</time></trkpt><trkpt lat="42.27661620566088" lon="14.15608350003674"><ele>163.5</ele><time>2026-05-01T13:38:30Z</time></trkpt><trkpt lat="42.27672816376019" lon="14.156030669961282"><ele>161.0</ele><time>2026-05-01T13:38:31Z</time></trkpt><trkpt lat="42.27685081115635" lon="14.155971464165864"><ele>158.5</ele><time>2026-05-01T13:38:32Z</time></trkpt><trkpt lat="42.27695577397745" lon="14.155923621778763"><ele>156.0</ele><time>2026-05-01T13:38:33Z</time></trkpt><trkpt lat="42.277050212374384" lon="14.15587476199878"><ele>156.0</ele><time>2026-05-01T13:38:34Z</time></trkpt><trkpt lat="42.27712849140989" lon="14.15582498054792"><ele>156.0</ele><time>2026-05-01T13:38:35Z</time></trkpt><trkpt lat="42.277205218396475" lon="14.155775992585363"><ele>156.0</ele><time>2026-05-01T13:38:36Z</time></trkpt><trkpt lat="42.27727684942044" lon="14.155732752151572"><ele>156.0</ele><time>2026-05-01T13:38:37Z</time></trkpt><trkpt lat="42.27734041029164" lon="14.155686663772167"><ele>156.0</ele><time>2026-05-01T13:38:38Z</time></trkpt><trkpt lat="42.27740272530736" lon="14.155664874513114"><ele>156.0</ele><time>2026-05-01T13:38:39Z</time></trkpt><trkpt lat="42.27747749965" lon="14.155615077380222"><ele>156.0</ele><time>2026-05-01T13:38:40Z</time></trkpt><trkpt lat="42.27757586256501" lon="14.155555927843"><ele>156.0</ele><time>2026-05-01T13:38:41Z</time></trkpt><trkpt lat="42.27767018761214" lon="14.155498634425694"><ele>156.0</ele><time>2026-05-01T13:38:42Z</time></trkpt><trkpt lat="42.27774956475367" lon="14.155442803850779"><ele>156.0</ele><time>2026-05-01T13:38:43Z</time></trkpt><trkpt lat="42.27783207460656" lon="14.155389591202688"><ele>156.0</ele><time>2026-05-01T13:38:44Z</time></trkpt><trkpt lat="42.277919355097495" lon="14.155334978380926"><ele>156.0</ele><time>2026-05-01T13:38:45Z</time></trkpt><trkpt lat="42.27800538077223" lon="14.155280855622484"><ele>156.0</ele><time>2026-05-01T13:38:46Z</time></trkpt><trkpt lat="42.27809222205492" lon="14.155229401842023"><ele>156.0</ele><time>2026-05-01T13:38:47Z</time></trkpt><trkpt lat="42.27818458538713" lon="14.155190020709798"><ele>156.0</ele><time>2026-05-01T13:38:48Z</time></trkpt><trkpt lat="42.278277089870265" lon="14.155146866342506"><ele>156.0</ele><time>2026-05-01T13:38:49Z</time></trkpt><trkpt lat="42.278369454366555" lon="14.155107619217576"><ele>155.0</ele><time>2026-05-01T13:38:50Z</time></trkpt><trkpt lat="42.278461613730414" lon="14.155070028855244"><ele>154.0</ele><time>2026-05-01T13:38:51Z</time></trkpt><trkpt lat="42.27854563248063" lon="14.15502715427786"><ele>153.0</ele><time>2026-05-01T13:38:52Z</time></trkpt><trkpt lat="42.27862190652816" lon="14.154972622712497"><ele>152.0</ele><time>2026-05-01T13:38:53Z</time></trkpt><trkpt lat="42.27870514888583" lon="14.154913424904512"><ele>151.0</ele><time>2026-05-01T13:38:54Z</time></trkpt><trkpt lat="42.27877621263688" lon="14.15485803828326"><ele>150.0</ele><time>2026-05-01T13:38:55Z</time></trkpt><trkpt lat="42.2788503532157" lon="14.154798844126748"><ele>147.75</ele><time>2026-05-01T13:38:56Z</time></trkpt><trkpt lat="42.278944501179744" lon="14.154725149483601"><ele>145.5</ele><time>2026-05-01T13:38:57Z</time></trkpt><trkpt lat="42.27905381661722" lon="14.15465372024415"><ele>143.25</ele><time>2026-05-01T13:38:58Z</time></trkpt><trkpt lat="42.27916723419363" lon="14.154585534755075"><ele>141.0</ele><time>2026-05-01T13:38:59Z</time></trkpt><trkpt lat="42.27927697263982" lon="14.154518029605825"><ele>141.0</ele><time>2026-05-01T13:39:00Z</time></trkpt><trkpt lat="42.27938500575159" lon="14.154451565324337"><ele>141.0</ele><time>2026-05-01T13:39:01Z</time></trkpt><trkpt lat="42.279489565840706" lon="14.154388930383401"><ele>141.0</ele><time>2026-05-01T13:39:02Z</time></trkpt><trkpt lat="42.27956119873432" lon="14.154345435946645"><ele>141.0</ele><time>2026-05-01T13:39:03Z</time></trkpt><trkpt lat="42.279631511026004" lon="14.154299335251212"><ele>141.0</ele><time>2026-05-01T13:39:04Z</time></trkpt><trkpt lat="42.2797216546805" lon="14.154255730241411"><ele>141.5</ele><time>2026-05-01T13:39:05Z</time></trkpt><trkpt lat="42.27982918247758" lon="14.154197417480965"><ele>142.0</ele><time>2026-05-01T13:39:06Z</time></trkpt><trkpt lat="42.27994941307165" lon="14.154130634061191"><ele>142.5</ele><time>2026-05-01T13:39:07Z</time></trkpt><trkpt lat="42.28005403322335" lon="14.154073356760904"><ele>143.0</ele><time>2026-05-01T13:39:08Z</time></trkpt><trkpt lat="42.280155189966514" lon="14.154011624785566"><ele>143.0</ele><time>2026-05-01T13:39:09Z</time></trkpt><trkpt lat="42.280251869729774" lon="14.153954977216"><ele>143.0</ele><time>2026-05-01T13:39:10Z</time></trkpt><trkpt lat="42.28035019522076" lon="14.153892417559634"><ele>143.0</ele><time>2026-05-01T13:39:11Z</time></trkpt><trkpt lat="42.28042893891212" lon="14.153835562899808"><ele>143.0</ele><time>2026-05-01T13:39:12Z</time></trkpt><trkpt lat="42.28050032088714" lon="14.153782873007213"><ele>143.0</ele><time>2026-05-01T13:39:13Z</time></trkpt><trkpt lat="42.280590882583084" lon="14.153743835607566"><ele>141.0</ele><time>2026-05-01T13:39:14Z</time></trkpt><trkpt lat="42.28068834654555" lon="14.153708916435635"><ele>139.0</ele><time>2026-05-01T13:39:15Z</time></trkpt><trkpt lat="42.28079196896464" lon="14.15367294976522"><ele>137.0</ele><time>2026-05-01T13:39:16Z</time></trkpt><trkpt lat="42.280886810007516" lon="14.153636234731268"><ele>135.0</ele><time>2026-05-01T13:39:17Z</time></trkpt><trkpt lat="42.28096512244403" lon="14.153603472653264"><ele>133.0</ele><time>2026-05-01T13:39:18Z</time></trkpt><trkpt lat="42.281039978385024" lon="14.153572456290538"><ele>133.0</ele><time>2026-05-01T13:39:19Z</time></trkpt><trkpt lat="42.281111400653494" lon="14.153551039692605"><ele>133.0</ele><time>2026-05-01T13:39:20Z</time></trkpt><trkpt lat="42.28123796611674" lon="14.153538382760175"><ele>133.0</ele><time>2026-05-01T13:39:22Z</time></trkpt><trkpt lat="42.28131429650912" lon="14.153524168860626"><ele>133.0</ele><time>2026-05-01T13:39:23Z</time></trkpt><trkpt lat="42.28143711202573" lon="14.153457292656714"><ele>133.0</ele><time>2026-05-01T13:39:25Z</time></trkpt><trkpt lat="42.28149265321638" lon="14.153388847177954"><ele>131.16666666666669</ele><time>2026-05-01T13:39:26Z</time></trkpt><trkpt lat="42.28153259817903" lon="14.153310680952703"><ele>129.33333333333334</ele><time>2026-05-01T13:39:27Z</time></trkpt><trkpt lat="42.281587255776195" lon="14.153233079237921"><ele>127.5</ele><time>2026-05-01T13:39:28Z</time></trkpt><trkpt lat="42.281677992751206" lon="14.153173465124672"><ele>125.66666666666666</ele><time>2026-05-01T13:39:29Z</time></trkpt><trkpt lat="42.281759624456704" lon="14.153136433508838"><ele>123.83333333333333</ele><time>2026-05-01T13:39:30Z</time></trkpt><trkpt lat="42.28185366778393" lon="14.153109920656602"><ele>122.0</ele><time>2026-05-01T13:39:31Z</time></trkpt><trkpt lat="42.28193572021447" lon="14.1530809497082"><ele>121.66666666666666</ele><time>2026-05-01T13:39:32Z</time></trkpt><trkpt lat="42.28203005085834" lon="14.153054398316833"><ele>121.33333333333333</ele><time>2026-05-01T13:39:33Z</time></trkpt><trkpt lat="42.282114706800705" lon="14.153018486614124"><ele>121.0</ele><time>2026-05-01T13:39:34Z</time></trkpt><trkpt lat="42.282206011710485" lon="14.15300036545118"><ele>120.66666666666666</ele><time>2026-05-01T13:39:35Z</time></trkpt><trkpt lat="42.28229390193453" lon="14.15298796251135"><ele>120.33333333333333</ele><time>2026-05-01T13:39:36Z</time></trkpt><trkpt lat="42.28236245500352" lon="14.152983604140669"><ele>120.0</ele><time>2026-05-01T13:39:37Z</time></trkpt><trkpt lat="42.28246107323913" lon="14.152941386201121"><ele>119.8</ele><time>2026-05-01T13:39:40Z</time></trkpt><trkpt lat="42.28250915709168" lon="14.152808836223477"><ele>119.6</ele><time>2026-05-01T13:39:44Z</time></trkpt><trkpt lat="42.282459337088326" lon="14.152660354504293"><ele>119.4</ele><time>2026-05-01T13:39:46Z</time></trkpt><trkpt lat="42.28245077865884" lon="14.152571466410304"><ele>119.2</ele><time>2026-05-01T13:39:47Z</time></trkpt><trkpt lat="42.28242800803648" lon="14.15244679006365"><ele>119.0</ele><time>2026-05-01T13:39:48Z</time></trkpt><trkpt lat="42.282393149719894" lon="14.152336475273188"><ele>119.0</ele><time>2026-05-01T13:39:49Z</time></trkpt><trkpt lat="42.28235999871336" lon="14.15225578340565"><ele>119.0</ele><time>2026-05-01T13:39:50Z</time></trkpt><trkpt lat="42.282313370037905" lon="14.152164488722411"><ele>119.0</ele><time>2026-05-01T13:39:52Z</time></trkpt><trkpt lat="42.28231747807561" lon="14.152062141170346"><ele>119.0</ele><time>2026-05-01T13:40:14Z</time></trkpt><trkpt lat="42.28232452346048" lon="14.151960125363358"><ele>119.0</ele><time>2026-05-01T13:40:18Z</time></trkpt><trkpt lat="42.2823186881258" lon="14.151865129246424"><ele>119.0</ele><time>2026-05-01T13:40:21Z</time></trkpt><trkpt lat="42.28225220780359" lon="14.151825671894827"><ele>119.0</ele><time>2026-05-01T13:40:26Z</time></trkpt><trkpt lat="42.282158880523895" lon="14.15181262621172"><ele>118.99999999999999</ele><time>2026-05-01T13:40:29Z</time></trkpt><trkpt lat="42.28222488734491" lon="14.151840448574458"><ele>119.0</ele><time>2026-05-01T13:41:36Z</time></trkpt><trkpt lat="42.28229078816416" lon="14.151851023998677"><ele>119.0</ele><time>2026-05-01T13:41:43Z</time></trkpt><trkpt lat="42.282326843553975" lon="14.151948152123985"><ele>119.0</ele><time>2026-05-01T13:41:47Z</time></trkpt><trkpt lat="42.28229617820072" lon="14.152068539615241"><ele>118.99999999999999</ele><time>2026-05-01T13:41:49Z</time></trkpt><trkpt lat="42.28234126917441" lon="14.15217343696953"><ele>119.0</ele><time>2026-05-01T13:41:54Z</time></trkpt><trkpt lat="42.28242146926679" lon="14.152144177527065"><ele>118.99999999999999</ele><time>2026-05-01T13:45:03.001Z</time></trkpt><trkpt lat="42.28248567918758" lon="14.152140717991928"><ele>119.0</ele><time>2026-05-01T13:45:04.001Z</time></trkpt><trkpt lat="42.2825659725635" lon="14.152139840302471"><ele>119.0</ele><time>2026-05-01T13:45:05.001Z</time></trkpt><trkpt lat="42.28265309420049" lon="14.152143234908996"><ele>119.0</ele><time>2026-05-01T13:45:06.001Z</time></trkpt><trkpt lat="42.28276172319768" lon="14.152145665990329"><ele>118.99999999999999</ele><time>2026-05-01T13:45:07.001Z</time></trkpt><trkpt lat="42.28286480847377" lon="14.15213856008541"><ele>119.0</ele><time>2026-05-01T13:45:08.001Z</time></trkpt><trkpt lat="42.28295183741751" lon="14.152108035820397"><ele>119.0</ele><time>2026-05-01T13:45:09.001Z</time></trkpt><trkpt lat="42.28300970366091" lon="14.152049647262922"><ele>119.0</ele><time>2026-05-01T13:45:10.001Z</time></trkpt><trkpt lat="42.283053873631246" lon="14.151943177063792"><ele>119.0</ele><time>2026-05-01T13:45:11.001Z</time></trkpt><trkpt lat="42.283081867046306" lon="14.151812391179686"><ele>119.0</ele><time>2026-05-01T13:45:12.001Z</time></trkpt><trkpt lat="42.28309924163197" lon="14.15166872605825"><ele>119.0</ele><time>2026-05-01T13:45:13.001Z</time></trkpt><trkpt lat="42.28311793501661" lon="14.151531982683904"><ele>119.66666666666666</ele><time>2026-05-01T13:45:14.001Z</time></trkpt><trkpt lat="42.283139668536066" lon="14.151412623861857"><ele>120.33333333333333</ele><time>2026-05-01T13:45:15.001Z</time></trkpt><trkpt lat="42.283159767173885" lon="14.151309245863734"><ele>121.0</ele><time>2026-05-01T13:45:16.001Z</time></trkpt><trkpt lat="42.28317882179499" lon="14.151222188356133"><ele>121.66666666666666</ele><time>2026-05-01T13:45:17.001Z</time></trkpt><trkpt lat="42.283193880251396" lon="14.15112471751603"><ele>122.33333333333333</ele><time>2026-05-01T13:45:19.001Z</time></trkpt><trkpt lat="42.28315981209771" lon="14.151017639051718"><ele>123.0</ele><time>2026-05-01T13:45:28.001Z</time></trkpt><trkpt lat="42.28303375837068" lon="14.150947786341593"><ele>123.0</ele><time>2026-05-01T13:45:30.001Z</time></trkpt><trkpt lat="42.282948505987505" lon="14.15089618963444"><ele>123.00000000000001</ele><time>2026-05-01T13:45:31.001Z</time></trkpt><trkpt lat="42.28286634340314" lon="14.150828809964226"><ele>123.00000000000001</ele><time>2026-05-01T13:45:32.001Z</time></trkpt><trkpt lat="42.28279368173948" lon="14.150758641281445"><ele>123.0</ele><time>2026-05-01T13:45:33.001Z</time></trkpt><trkpt lat="42.28271269106121" lon="14.150687826184802"><ele>123.0</ele><time>2026-05-01T13:45:34.001Z</time></trkpt><trkpt lat="42.28263360574554" lon="14.150596338098435"><ele>124.80000000000001</ele><time>2026-05-01T13:45:35.001Z</time></trkpt><trkpt lat="42.28256847428326" lon="14.150503967364184"><ele>126.60000000000001</ele><time>2026-05-01T13:45:36.001Z</time></trkpt><trkpt lat="42.2825117529719" lon="14.150408633611166"><ele>128.39999999999998</ele><time>2026-05-01T13:45:37.001Z</time></trkpt><trkpt lat="42.28245263698783" lon="14.150301202644524"><ele>130.2</ele><time>2026-05-01T13:45:38.001Z</time></trkpt><trkpt lat="42.282396140673214" lon="14.150190796831074"><ele>132.0</ele><time>2026-05-01T13:45:39.001Z</time></trkpt><trkpt lat="42.2823327709101" lon="14.150071501405385"><ele>130.0</ele><time>2026-05-01T13:45:40.001Z</time></trkpt><trkpt lat="42.28226409013861" lon="14.149940077141896"><ele>128.0</ele><time>2026-05-01T13:45:41.001Z</time></trkpt><trkpt lat="42.28219485565998" lon="14.149809530323232"><ele>126.0</ele><time>2026-05-01T13:45:42.001Z</time></trkpt><trkpt lat="42.28212989312048" lon="14.149685143070451"><ele>124.0</ele><time>2026-05-01T13:45:43.001Z</time></trkpt><trkpt lat="42.28206954837064" lon="14.149565335038076"><ele>124.0</ele><time>2026-05-01T13:45:44.001Z</time></trkpt><trkpt lat="42.282005829775066" lon="14.149434249435979"><ele>124.0</ele><time>2026-05-01T13:45:45.001Z</time></trkpt><trkpt lat="42.28193515551539" lon="14.149291203238597"><ele>124.0</ele><time>2026-05-01T13:45:46.001Z</time></trkpt><trkpt lat="42.281867524670844" lon="14.149157348621479"><ele>124.0</ele><time>2026-05-01T13:45:47.001Z</time></trkpt><trkpt lat="42.28179758928457" lon="14.149023052185894"><ele>125.0</ele><time>2026-05-01T13:45:48.001Z</time></trkpt><trkpt lat="42.28172231449894" lon="14.148874517862671"><ele>126.0</ele><time>2026-05-01T13:45:49.001Z</time></trkpt><trkpt lat="42.28164071810895" lon="14.148713183005444"><ele>127.0</ele><time>2026-05-01T13:45:50.001Z</time></trkpt><trkpt lat="42.28155882216873" lon="14.148542623992167"><ele>128.0</ele><time>2026-05-01T13:45:51.001Z</time></trkpt><trkpt lat="42.28147510205349" lon="14.148366091469065"><ele>126.5</ele><time>2026-05-01T13:45:52.001Z</time></trkpt><trkpt lat="42.281393612244045" lon="14.148184431885085"><ele>125.0</ele><time>2026-05-01T13:45:53.001Z</time></trkpt><trkpt lat="42.28131741451725" lon="14.148016409454245"><ele>123.5</ele><time>2026-05-01T13:45:54.001Z</time></trkpt><trkpt lat="42.2812484321165" lon="14.147851644067998"><ele>122.0</ele><time>2026-05-01T13:45:55.001Z</time></trkpt><trkpt lat="42.28119146250614" lon="14.147702107324811"><ele>122.0</ele><time>2026-05-01T13:45:56.001Z</time></trkpt><trkpt lat="42.28115570751709" lon="14.147614841119552"><ele>121.99999999999999</ele><time>2026-05-01T13:45:57.001Z</time></trkpt><trkpt lat="42.28112186448382" lon="14.147514197965277"><ele>121.99999999999999</ele><time>2026-05-01T13:45:58.001Z</time></trkpt><trkpt lat="42.28107193032796" lon="14.147370531610655"><ele>122.0</ele><time>2026-05-01T13:45:59.001Z</time></trkpt><trkpt lat="42.28101841029163" lon="14.147194799137042"><ele>122.0</ele><time>2026-05-01T13:46:00.001Z</time></trkpt><trkpt lat="42.28096673423225" lon="14.147030074254538"><ele>122.8</ele><time>2026-05-01T13:46:01.001Z</time></trkpt><trkpt lat="42.28092133894413" lon="14.146893548280175"><ele>123.6</ele><time>2026-05-01T13:46:02.001Z</time></trkpt><trkpt lat="42.28088195301608" lon="14.146777876065284"><ele>124.39999999999999</ele><time>2026-05-01T13:46:03.001Z</time></trkpt><trkpt lat="42.280844518011286" lon="14.146676325684066"><ele>125.19999999999999</ele><time>2026-05-01T13:46:04.001Z</time></trkpt><trkpt lat="42.280811913294656" lon="14.146583378879422"><ele>126.0</ele><time>2026-05-01T13:46:05.001Z</time></trkpt><trkpt lat="42.28077418795336" lon="14.146465886447741"><ele>132.0</ele><time>2026-05-01T13:46:07.001Z</time></trkpt><trkpt lat="42.28074383211714" lon="14.146378919809496"><ele>132.0</ele><time>2026-05-01T13:46:09.001Z</time></trkpt><trkpt lat="42.28073056939755" lon="14.146295700590631"><ele>132.0</ele><time>2026-05-01T13:46:12.001Z</time></trkpt></trkseg></trk></gpx>